[[{"header":{"parameterUnit":"m.s-1","parameterCategory":1,"la1":30.6,"la2":29.2853,"lo1":-89.7004,"lo2":-87.6739,"dy":0.0162,"dx":0.0183,"nx":112,"ny":82,"refTime":"2023-07-20T12:00:00:Z","depth":0,"parameterNumber":2,"parameterNumberName":"U-component_of_WINDS"},"data":[0.0,0.0,0.0,0.0,0.0,0.0,0.0,0.0,0.0,0.0,0.0,0.0,0.0,0.0,0.0,0.0,0.0,0.0,0.0,0.0,0.0,0.0,0.0,0.0,0.0,0.0,0.0,0.0,0.0,0.0,0.0,0.0,0.0,0.0,0.0,0.0,0.0,0.0,0.0,0.0,0.0,0.0,0.0,0.0,0.0,0.0,0.0,0.0,0.0,0.0,0.0,0.0,0.0,0.0,0.0,0.0,0.0,0.0,0.0,0.0,0.0,0.0,0.0,0.0,0.0,0.0,0.0,0.0,0.0,0.0,0.0,0.0,0.0,0.0,0.0,0.0,0.0,0.0,0.0,0.0,0.0,0.0,0.0,0.0,0.0,0.0,0.0,0.0,0.0,0.0,-0.7893,-0.8579,-1.0181,-1.116,-1.1111,-1.1111,-1.0438,-0.9008,0.0,0.0,0.0,0.0,0.0,0.0,0.0,0.0,0.0,0.0,0.0,0.0,0.0,0.0,0.0,0.0,0.0,0.0,0.0,0.0,0.0,0.0,0.0,0.0,0.0,0.0,0.0,0.0,0.0,0.0,0.0,0.0,0.0,0.0,0.0,0.0,0.0,0.0,0.0,0.0,0.0,0.0,0.0,0.0,0.0,0.0,0.0,0.0,0.0,0.0,0.0,0.0,0.0,0.0,0.0,0.0,0.0,0.0,0.0,0.0,0.0,0.0,0.0,0.0,0.0,0.0,0.0,0.0,0.0,0.0,0.0,0.0,0.0,0.0,0.0,0.0,0.0,0.0,0.0,0.0,0.0,0.0,0.0,0.0,0.0,0.0,0.0,0.0,0.0,0.0,0.0,0.0,0.0,0.0,0.0,0.0,0.0,0.0,0.0,0.0,0.0,0.0,0.0,0.0,-0.9496,-0.9974,-1.0838,-1.1371,-1.1129,-1.1111,-1.0663,-0.9765,0.0,0.0,0.0,0.0,0.0,0.0,0.0,0.0,0.0,0.0,0.0,0.0,0.0,0.0,0.0,0.0,0.0,0.0,0.0,0.0,0.0,0.0,0.0,0.0,0.0,0.0,0.0,0.0,0.0,0.0,0.0,0.0,0.0,0.0,0.0,0.0,0.0,0.0,0.0,0.0,0.0,0.0,0.0,0.0,0.0,0.0,0.0,0.0,0.0,0.0,0.0,0.0,0.0,0.0,0.0,0.0,0.0,0.0,0.0,0.0,0.0,0.0,0.0,0.0,0.0,0.0,0.0,0.0,0.0,0.0,0.0,0.0,0.0,0.0,0.0,0.0,0.0,0.0,0.0,0.0,0.0,0.0,0.0,0.0,0.0,0.0,0.0,0.0,0.0,0.0,0.0,0.0,0.0,0.0,0.0,0.0,0.0,0.0,0.0,0.0,0.0,0.0,0.0,-0.9751,-1.0406,-1.0913,-1.1295,-1.1419,-1.1135,-1.0663,-1.0143,-0.9311,-0.8558,0.0,0.0,0.0,0.0,0.0,0.0,0.0,0.0,0.0,0.0,0.0,0.0,0.0,0.0,0.0,0.0,0.0,0.0,0.0,0.0,0.0,0.0,0.0,0.0,0.0,0.0,0.0,0.0,0.0,0.0,0.0,0.0,0.0,0.0,0.0,0.0,0.0,0.0,0.0,0.0,0.0,0.0,0.0,0.0,0.0,0.0,0.0,0.0,0.0,0.0,0.0,0.0,0.0,0.0,0.0,0.0,0.0,0.0,0.0,0.0,0.0,0.0,0.0,0.0,0.0,0.0,0.0,0.0,0.0,0.0,0.0,0.0,0.0,0.0,0.0,0.0,0.0,0.0,0.0,0.0,0.0,0.0,0.0,0.0,0.0,0.0,0.0,0.0,0.0,0.0,0.0,0.0,0.0,0.0,0.0,0.0,0.0,0.0,0.0,0.0,0.0,0.0,-1.0908,-1.1036,-1.1654,-1.1715,-1.1606,-1.1323,-1.0644,-0.9926,-0.9158,-0.8268,0.0,0.0,0.0,0.0,0.0,0.0,0.0,0.0,0.0,0.0,0.0,0.0,0.0,0.0,0.0,0.0,0.0,0.0,0.0,0.0,0.0,0.0,0.0,0.0,0.0,0.0,0.0,0.0,0.0,0.0,0.0,0.0,0.0,0.0,0.0,0.0,0.0,0.0,0.0,0.0,0.0,0.0,0.0,0.0,0.0,0.0,0.0,0.0,0.0,0.0,0.0,0.0,0.0,0.0,0.0,0.0,0.0,0.0,0.0,0.0,0.0,0.0,0.0,0.0,0.0,0.0,0.0,0.0,0.0,0.0,0.0,0.0,0.0,0.0,0.0,0.0,0.0,0.0,0.0,0.0,0.0,0.0,0.0,0.0,0.0,0.0,0.0,0.0,0.0,0.0,0.0,0.0,0.0,0.0,0.0,0.0,0.0,0.0,0.0,0.0,0.0,0.0,-1.1385,-1.1355,-1.2176,-1.2258,-1.2149,-1.189,-1.1564,-1.1028,-1.0245,-0.9192,0.0,0.0,0.0,0.0,0.0,0.0,0.0,0.0,0.0,0.0,0.0,0.0,0.0,0.0,0.0,0.0,0.0,0.0,0.0,0.0,0.0,0.0,0.0,0.0,0.0,0.0,0.0,0.0,0.0,0.0,0.0,0.0,0.0,0.0,0.0,0.0,0.0,0.0,0.0,0.0,0.0,0.0,0.0,0.0,0.0,0.0,0.0,0.0,0.0,0.0,0.0,0.0,0.0,0.0,0.0,0.0,0.0,0.0,0.0,0.0,0.0,0.0,0.0,0.0,0.0,0.0,0.0,0.0,0.0,0.0,0.0,0.0,0.0,0.0,0.0,0.0,0.0,0.0,0.0,0.0,0.0,0.0,0.0,0.0,0.0,0.0,0.0,0.0,0.0,0.0,0.0,0.0,0.0,0.0,0.0,0.0,0.0,0.0,0.0,0.0,0.0,0.0,-1.2141,-1.2152,0.0,-1.2312,-1.1952,-1.1117,-1.0445,-0.9692,-0.8769,0.0,0.0,0.0,0.0,0.0,0.0,0.0,0.0,0.0,0.0,0.0,0.0,0.0,0.0,0.0,0.0,0.0,0.0,0.0,0.0,0.0,0.0,0.0,0.0,0.0,0.0,0.0,0.0,0.0,0.0,0.0,0.0,0.0,0.0,0.0,0.0,0.0,0.0,0.0,0.0,0.0,0.0,0.0,0.0,0.0,0.0,0.0,0.0,0.0,0.0,0.0,0.0,0.0,0.0,0.0,0.0,0.0,0.0,0.0,0.0,0.0,0.0,0.0,0.0,0.0,0.0,0.0,0.0,0.0,0.0,0.0,0.0,0.0,0.0,0.0,0.0,0.0,0.0,0.0,0.0,0.0,0.0,0.0,0.0,0.0,0.0,0.0,0.0,0.0,0.0,0.0,0.0,0.0,0.0,0.0,0.0,0.0,0.0,0.0,0.0,0.0,0.0,-1.1752,-1.2314,-1.2378,0.0,-1.1758,-1.1517,-1.0424,-0.9766,-0.891,-0.7918,0.0,0.0,0.0,0.0,0.0,0.0,0.0,0.0,0.0,0.0,0.0,0.0,0.0,0.0,0.0,0.0,0.0,0.0,0.0,0.0,0.0,0.0,0.0,0.0,0.0,0.0,0.0,0.0,0.0,0.0,0.0,0.0,0.0,0.0,0.0,0.0,0.0,0.0,0.0,0.0,0.0,0.0,0.0,0.0,0.0,0.0,0.0,0.0,0.0,0.0,0.0,0.0,0.0,0.0,0.0,0.0,0.0,0.0,0.0,0.0,0.0,0.0,0.0,0.0,0.0,0.0,0.0,0.0,0.0,0.0,0.0,0.0,0.0,0.0,0.0,0.0,0.0,0.0,0.0,0.0,0.0,0.0,0.0,0.0,0.0,0.0,0.0,0.0,0.0,0.0,0.0,0.0,0.0,0.0,0.0,0.0,0.0,0.0,0.0,0.0,0.0,0.0,-1.0632,-1.1778,-1.2003,-1.0096,-1.0712,-1.0885,-0.9923,-0.9653,-0.9117,0.0,0.0,0.0,0.0,0.0,0.0,0.0,0.0,0.0,0.0,0.0,0.0,0.0,0.0,0.0,0.0,0.0,0.0,0.0,0.0,0.0,0.0,0.0,0.0,0.0,0.0,0.0,0.0,0.0,0.0,0.0,0.0,0.0,0.0,0.0,0.0,0.0,0.0,0.0,0.0,0.0,0.0,0.0,0.0,0.0,0.0,0.0,0.0,0.0,0.0,0.0,0.0,0.0,0.0,0.0,0.0,0.0,0.0,0.0,0.0,0.0,0.0,0.0,0.0,0.0,0.0,0.0,0.0,0.0,0.0,0.0,0.0,0.0,0.0,0.0,0.0,0.0,0.0,0.0,0.0,0.0,0.0,0.0,0.0,0.0,0.0,0.0,0.0,0.0,0.0,0.0,0.0,0.0,0.0,0.0,0.0,0.0,0.0,0.0,0.0,0.0,0.0,0.0,-1.053,-1.1193,-1.123,-1.0009,-1.0712,-1.0631,-0.9061,-0.8835,-0.8333,-0.7371,0.0,0.0,0.0,0.0,0.0,0.0,0.0,0.0,0.0,0.0,0.0,0.0,0.0,0.0,0.0,0.0,0.0,0.0,0.0,0.0,0.0,0.0,0.0,0.0,0.0,0.0,0.0,0.0,0.0,0.0,0.0,0.0,0.0,0.0,0.0,0.0,0.0,0.0,0.0,0.0,0.0,0.0,0.0,0.0,0.0,0.0,0.0,0.0,0.0,0.0,0.0,0.0,0.0,0.0,0.0,0.0,0.0,0.0,0.0,0.0,0.0,0.0,0.0,0.0,0.0,0.0,0.0,0.0,0.0,0.0,0.0,0.0,0.0,0.0,0.0,0.0,0.0,0.0,0.0,0.0,0.0,0.0,0.0,0.0,0.0,0.0,0.0,0.0,0.0,0.0,0.0,0.0,0.0,0.0,0.0,0.0,0.0,0.0,0.0,0.0,0.0,0.0,-0.9958,-1.0432,-1.0274,-0.8882,-0.9579,-0.9584,-0.8105,-0.8021,-0.7793,-0.7044,0.0,0.0,0.0,0.0,0.0,0.0,0.0,0.0,0.0,0.0,0.0,0.0,0.0,0.0,0.0,0.0,0.0,0.0,0.0,0.0,0.0,0.0,0.0,0.0,0.0,0.0,0.0,0.0,0.0,0.0,0.0,0.0,0.0,0.0,0.0,0.0,0.0,0.0,0.0,0.0,0.0,0.0,0.0,0.0,0.0,0.0,0.0,0.0,0.0,0.0,0.0,0.0,0.0,0.0,0.0,0.0,0.0,0.0,0.0,0.0,0.0,0.0,0.0,0.0,0.0,0.0,0.0,0.0,0.0,0.0,0.0,0.0,0.0,0.0,0.0,0.0,0.0,0.0,0.0,0.0,0.0,0.0,0.0,0.0,0.0,0.0,0.0,0.0,0.0,0.0,0.0,0.0,0.0,0.0,0.0,0.0,0.0,0.0,0.0,0.0,0.0,0.0,-0.9232,-0.9503,-0.9056,-0.7312,-0.7929,-0.8105,-0.7139,-0.7323,-0.7375,-0.7065,0.0,0.0,0.0,0.0,0.0,0.0,0.0,0.0,0.0,0.0,0.0,0.0,0.0,0.0,0.0,0.0,0.0,0.0,0.0,0.0,0.0,0.0,0.0,0.0,0.0,0.0,0.0,0.0,0.0,0.0,0.0,0.0,0.0,0.0,0.0,0.0,0.0,0.0,0.0,0.0,0.0,0.0,0.0,0.0,0.0,0.0,0.0,0.0,0.0,0.0,0.0,0.0,0.0,0.0,0.0,0.0,0.0,0.0,0.0,0.0,-0.519,0.0,0.0,0.0,0.0,0.0,0.0,0.0,0.0,0.0,0.0,0.0,0.0,0.0,0.0,0.0,0.0,0.0,0.0,0.0,0.0,0.0,0.0,0.0,0.0,0.0,0.0,0.0,0.0,0.0,0.0,0.0,0.0,0.0,0.0,0.0,0.0,0.0,0.0,0.0,0.0,0.0,-0.915,-0.8913,-0.8364,-0.7228,-0.7929,-0.8105,-0.7139,-0.7323,-0.7508,-0.7477,-0.755,0.0,0.0,0.0,0.0,0.0,0.0,0.0,0.0,0.0,0.0,0.0,0.0,0.0,0.0,0.0,0.0,0.0,0.0,0.0,0.0,0.0,0.0,0.0,0.0,0.0,0.0,0.0,0.0,0.0,0.0,0.0,0.0,0.0,0.0,0.0,0.0,0.0,0.0,0.0,0.0,0.0,0.0,0.0,0.0,0.0,0.0,0.0,0.0,0.0,0.0,0.0,0.0,0.0,0.0,0.0,0.0,0.0,0.0,0.0,0.0,-0.5927,0.0,0.0,0.0,0.0,0.0,0.0,0.0,0.0,0.0,0.0,0.0,0.0,0.0,0.0,0.0,0.0,0.0,0.0,0.0,0.0,0.0,0.0,0.0,0.0,0.0,0.0,0.0,0.0,0.0,0.0,0.0,0.0,0.0,0.0,0.0,0.0,0.0,0.0,0.0,0.0,-0.9294,-0.8455,-0.7665,-0.7139,-0.758,-0.7669,-0.7323,-0.7503,-0.7698,-0.7703,-0.7862,0.0,0.0,0.0,0.0,0.0,0.0,0.0,0.0,0.0,0.0,0.0,0.0,0.0,0.0,0.0,0.0,0.0,0.0,0.0,0.0,0.0,0.0,0.0,0.0,0.0,0.0,0.0,0.0,0.0,0.0,0.0,0.0,0.0,0.0,0.0,0.0,0.0,0.0,0.0,0.0,0.0,0.0,0.0,0.0,0.0,0.0,0.0,0.0,0.0,0.0,0.0,0.0,0.0,-0.2867,-0.3794,-0.5501,-0.5587,-0.5686,-0.589,-0.5085,-0.533,-0.6347,-0.8092,0.0,0.0,0.0,0.0,0.0,0.0,0.0,0.0,0.0,0.0,0.0,0.0,0.0,0.0,0.0,0.0,0.0,0.0,0.0,0.0,0.0,0.0,0.0,0.0,-1.3586,-1.3525,-1.3308,0.0,0.0,0.0,0.0,0.0,0.0,0.0,0.0,0.0,0.0,0.0,-0.9283,-0.7993,-0.7139,-0.7143,-0.7143,-0.7323,-0.7503,-0.7768,-0.7971,-0.7916,-0.817,-0.8268,0.0,0.0,0.0,0.0,0.0,0.0,0.0,0.0,0.0,0.0,0.0,0.0,0.0,0.0,0.0,0.0,0.0,0.0,0.0,0.0,0.0,0.0,0.0,0.0,0.0,0.0,0.0,0.0,0.0,0.0,0.0,0.0,0.7661,0.7136,0.0,0.0,0.0,0.0,0.0,0.0,0.0,0.0,0.0,0.0,0.0,0.0,0.0,-0.1451,-0.1424,-0.1454,-0.2003,-0.2867,-0.2867,-0.3496,-0.4486,-0.4484,-0.498,-0.5893,-0.5909,0.0,-0.6355,-0.8206,0.0,0.0,0.0,0.0,0.0,0.0,0.0,0.0,0.0,0.0,0.0,0.0,0.0,0.0,0.0,0.0,0.0,0.0,0.0,0.0,0.0,0.0,-1.3902,-1.3845,-1.3851,-1.3845,0.0,-1.3417,-1.3067,-1.3067,-1.2175,0.0,0.0,0.0,0.0,0.0,0.0,0.0,-0.8361,-0.757,-0.7231,-0.7415,-0.7415,-0.7591,-0.7856,-0.8028,-0.8189,-0.8169,-0.8436,-0.8519,-0.8495,-0.8519,0.0,0.0,0.0,0.0,0.0,0.0,0.0,0.0,0.0,0.0,0.0,0.0,0.0,0.0,0.0,0.0,0.0,0.0,0.0,0.0,0.0,0.0,0.0,0.0,0.0,0.0,0.0,0.0,0.0,0.7132,0.6514,0.5625,0.42,0.2774,0.0,0.0,0.0,0.0,0.0,0.0,0.0,0.0,0.0,-0.1441,-0.1451,-0.172,-0.2241,-0.2261,-0.2727,-0.3732,-0.3688,-0.4228,-0.5184,-0.5179,-0.5751,-0.6728,-0.687,-0.7026,-0.7123,-0.8524,-0.9411,-0.9875,0.0,0.0,0.0,0.0,-1.2133,-1.2061,-1.1811,-1.2425,-1.3162,-1.2368,0.0,0.0,0.0,0.0,0.0,0.0,0.0,0.0,0.0,0.0,-1.4403,-1.4181,-1.4123,-1.4123,-1.4123,-1.3833,-1.3519,0.0,-1.2886,-1.258,-1.2877,0.0,0.0,0.0,0.0,-0.8767,-0.834,-0.7625,-0.7231,-0.7507,-0.7507,-0.768,-0.8025,-0.8113,-0.8288,-0.8384,-0.8564,-0.8388,-0.7764,-0.83,-0.812,0.0,0.0,0.0,0.0,0.0,0.0,0.0,0.0,0.0,0.0,0.0,0.0,0.0,0.0,0.0,0.0,0.0,0.0,0.0,0.0,0.0,0.0,0.0,0.0,0.0,0.0,0.0,0.0,0.6109,0.5676,0.4234,0.3519,0.2438,0.0,0.0,0.0,0.0,0.0,0.0,-0.1284,-0.1357,-0.1355,-0.1376,-0.1636,-0.2163,-0.2867,-0.2883,-0.3356,-0.4296,-0.4053,-0.4595,-0.5764,-0.585,-0.6394,-0.7322,-0.7475,-0.7543,-0.7646,-0.8452,-0.8993,-0.9267,-0.9877,-1.0408,-1.1023,-1.1594,-1.2047,-1.2304,-1.213,-1.2885,-1.3582,-1.2631,-1.3091,-1.3966,-1.3958,0.0,0.0,0.0,0.0,-1.4754,-1.4782,-1.474,-1.4703,-1.4345,-1.4298,-1.4298,-1.4298,-1.4141,-1.393,0.0,-1.3191,-1.2808,-1.2987,0.0,0.0,0.0,0.0,-0.8573,-0.8355,-0.7727,-0.7361,-0.7598,-0.768,-0.7856,-0.8292,-0.8292,-0.8384,-0.8568,-0.8388,-0.7852,-0.7139,-0.7852,-0.7408,-0.5719,0.0,0.0,0.0,0.0,0.0,0.0,0.0,0.0,0.0,0.0,0.0,0.0,0.0,0.0,0.0,0.0,0.0,0.0,0.0,0.0,0.0,0.0,0.0,0.0,0.0,0.0,0.0,0.0,0.0,0.3777,0.3593,0.0,0.0,0.0,0.0,-0.018,-0.0639,-0.1008,-0.0989,-0.1256,-0.1436,-0.1438,-0.2286,-0.2834,-0.2868,-0.2924,-0.338,-0.4295,-0.3403,-0.3939,-0.573,-0.5727,-0.6263,-0.716,-0.7316,-0.7383,-0.7394,-0.764,-0.8262,-0.9185,-0.927,-1.0496,-1.2256,-1.1106,-1.1346,-1.2162,-1.0934,-1.1371,-1.2398,-1.2293,-1.3205,-1.437,-1.5114,-1.5298,0.0,0.0,-1.5393,-1.521,-1.4555,-1.437,-1.4376,-1.4292,-1.4298,-1.4298,-1.4298,-1.4286,-1.4297,0.0,-1.2368,-1.1196,-1.2478,0.0,-0.9338,-0.9802,-0.933,-0.871,-0.792,-0.7717,-0.775,-0.7871,-0.8028,-0.8292,-0.8564,-0.8568,-0.8568,-0.8568,-0.7676,-0.7139,-0.7139,-0.7139,-0.6697,-0.5719,-0.6609,0.0,0.0,0.0,0.0,0.0,0.0,0.0,0.0,0.0,0.0,0.0,0.0,0.0,0.0,0.0,0.0,0.0,0.0,0.0,0.0,0.0,0.0,0.0,0.0,0.0,0.0,0.0,0.0,0.3297,0.2353,0.0,0.037,-0.0749,-0.1216,-0.0916,-0.0559,-0.0662,-0.1237,-0.235,-0.3004,-0.3044,-0.3026,-0.3454,-0.4207,-0.35,-0.329,-0.3659,-0.4378,-0.5095,-0.5719,-0.634,-0.6786,-0.7143,-0.72,-0.7278,-0.7366,-0.7322,-0.7601,-0.8157,-0.8157,-0.8721,-0.9523,-0.9737,-1.0118,-1.0568,-1.0789,-1.1672,-1.2699,-1.3379,-1.3927,-1.4394,-1.458,-1.4675,-1.4675,-1.4675,-1.4675,-1.4675,-1.4394,-1.4298,-1.4298,-1.4298,-1.4298,-1.425,-1.4081,-1.3566,-1.3159,-1.3256,-1.2531,-1.1957,-1.1718,-1.0476,-0.9592,-0.9757,-0.9084,-0.8501,-0.8258,-0.8074,-0.8076,-0.829,-0.8271,-0.8292,-0.8568,-0.8032,-0.7676,-0.7676,-0.6697,-0.5897,-0.5364,-0.5897,-0.5453,-0.3942,-0.4832,-0.5453,0.0,0.0,0.0,0.0,0.0,0.0,0.0,0.0,0.0,0.0,0.0,0.0,0.0,0.0,0.0,0.0,0.0,0.0,0.0,0.0,0.0,0.0,0.0,0.0,0.0,0.0,0.2882,0.2019,0.1442,0.0574,-0.0662,-0.086,-0.0955,-0.0936,-0.1047,-0.1062,-0.0972,-0.2688,-0.3743,-0.3891,-0.3553,-0.3408,-0.3547,-0.3642,-0.38,-0.3924,-0.4836,-0.5385,-0.5751,-0.6472,-0.6931,-0.7295,-0.7295,-0.7326,-0.7366,-0.7316,-0.7383,-0.7522,-0.7522,-0.7827,-0.8375,-0.908,-0.9552,-1.0197,-1.1163,-1.2032,-1.2726,-1.3878,-1.4298,-1.4298,-1.4298,-1.4298,-1.4298,-1.4298,-1.4298,-1.4298,-1.4298,-1.4298,-1.4274,-1.4183,-1.4165,-1.4093,-1.3833,-1.302,-1.2269,-1.2072,-1.1782,-1.1525,-1.1173,-1.011,-0.9405,-0.9573,-0.8981,-0.8486,-0.8434,-0.8426,-0.8432,-0.8555,-0.8536,-0.8442,-0.8205,-0.7841,-0.7371,-0.67,-0.6074,-0.5275,-0.4297,-0.5186,-0.5008,-0.3409,-0.3969,-0.4628,-0.5294,0.0,0.0,0.0,0.0,0.0,0.0,0.0,0.0,0.0,0.0,0.0,0.0,0.0,0.0,0.0,0.0,0.0,0.0,0.0,0.0,0.0,0.0,0.0,0.3436,0.2709,0.1665,0.0098,0.0882,0.0785,-0.0982,-0.0491,-0.0,-0.0,-0.1942,-0.2239,-0.0287,-0.2004,-0.3248,-0.3827,-0.3823,-0.2863,-0.0762,-0.3238,-0.4575,-0.495,-0.4563,-0.4843,-0.5787,-0.6072,-0.6735,-0.7587,-0.759,-0.7509,-0.7383,-0.7533,-0.7509,-0.7387,-0.738,-0.8203,-0.9315,-0.9051,-0.9665,-1.0877,-1.1921,-1.2299,-1.2525,-1.3825,-1.4298,-1.4298,-1.4298,-1.4298,-1.4298,-1.4298,-1.4298,-1.4292,-1.4286,-1.4286,-1.422,-1.3954,-1.3894,-1.3728,-1.3471,-1.2666,-1.1736,-1.0731,-0.9866,-0.9673,-1.0542,-0.9406,-0.863,-0.9137,-0.9031,0.0,-0.8616,-0.8787,-0.8905,-0.8734,-0.8905,-0.8648,-0.7464,-0.8182,-0.784,-0.5822,-0.5633,-0.5188,-0.4304,-0.5102,-0.5193,-0.4308,-0.4387,-0.4473,-0.447,0.0,0.0,0.0,0.0,0.0,0.0,0.0,0.0,0.0,0.0,0.0,0.0,0.0,0.0,0.0,0.0,0.0,0.0,0.0,0.0,0.0,0.0,0.2978,0.3409,0.2665,0.1598,0.05,-0.03,-0.0897,-0.1377,-0.1293,-0.0796,-0.0098,-0.0595,-0.1988,-0.4501,-0.2566,-0.148,-0.1655,-0.2564,-0.2763,-0.214,-0.3113,-0.355,-0.3449,-0.4624,-0.5146,-0.5282,-0.6371,-0.6913,-0.7008,-0.7295,-0.7411,-0.7373,-0.7417,-0.7536,-0.7678,-0.7577,-0.7837,-0.8186,-0.8144,-0.8423,-0.9049,-1.0891,-1.1472,-1.1773,-1.3686,-1.4298,-1.4298,-1.4298,-1.4298,-1.4298,-1.4298,-1.4298,-1.4256,-1.4063,-1.4014,-1.3948,-1.3682,-1.3055,-1.2517,-1.2277,-1.0955,-0.9735,-0.9507,-0.8746,-0.8365,-0.9107,-0.8943,-0.8825,-0.943,-0.943,0.0,-0.9367,-0.8661,-0.8375,-0.9092,-0.8408,-0.7847,-0.7522,-0.7047,-0.615,-0.4845,-0.4064,-0.361,-0.3389,-0.3572,-0.3689,-0.3465,-0.4139,-0.4569,0.0,0.0,0.0,0.0,0.0,0.0,0.0,0.0,0.0,0.0,0.0,0.0,0.0,0.0,0.0,0.0,0.0,0.0,0.0,0.0,0.0,0.0,0.3896,0.2807,0.2877,0.15,0.0302,-0.0303,-0.1111,-0.161,-0.1592,-0.1607,-0.1308,-0.0696,-0.0502,-0.1407,-0.3887,-0.251,-0.1405,-0.1191,-0.1807,-0.221,-0.2284,-0.288,-0.3241,-0.3361,-0.442,-0.4944,-0.493,-0.6225,-0.6653,-0.6606,-0.724,-0.7465,-0.7465,-0.7465,-0.7567,0.0,0.0,0.0,0.0,0.0,-0.7868,-0.8136,-0.9879,-1.0408,-1.0642,-1.2358,-1.2897,-1.2914,-1.3291,-1.3391,-1.3391,-1.3391,-1.3466,-1.3299,-1.2675,-1.2593,-1.2582,-1.224,-1.1701,-1.1271,-1.104,-0.9841,-0.8926,-0.9021,-0.8478,0.0,-0.866,-0.8818,-0.8928,-0.9331,-0.9529,-0.9426,-0.8829,-0.8248,-0.7997,-0.8087,-0.7521,-0.6873,-0.6342,-0.6178,0.0,0.0,0.0,-0.3605,-0.3645,-0.3647,0.0,0.0,0.0,-0.4372,-0.4065,0.0,0.0,0.0,-0.6985,-0.7615,0.0,0.0,0.0,0.0,0.0,0.0,0.0,0.0,0.0,0.0,0.0,0.0,0.0,0.0,0.0,0.0,0.4638,0.3429,0.2014,-0.0101,-0.1617,-0.1617,-0.1617,-0.1617,-0.1617,-0.1617,-0.1617,-0.1516,-0.111,-0.0907,-0.0907,0.0,0.0,0.0,0.0,-0.1617,-0.1617,-0.2625,-0.3429,-0.3825,-0.4157,-0.4501,-0.4665,-0.5558,-0.5984,-0.5959,-0.691,-0.7289,-0.7386,-0.7383,-0.749,-0.76,-0.76,-0.776,-0.7974,-0.7838,-0.7787,-0.798,-0.902,0.0,0.0,-1.0575,-1.0889,-1.0833,-1.1655,-1.193,-1.193,-1.193,-1.1987,-1.1911,-1.0944,-1.0743,-1.0782,-1.0395,-1.0126,-1.007,-0.9791,-0.9235,-0.8773,-0.9054,-0.8686,-0.8389,-0.8749,-0.8815,-0.8928,-0.9232,-0.9331,-0.9027,-0.7829,-0.7627,-0.7322,-0.6523,0.0,0.0,-0.4818,-0.5482,-0.5147,-0.3254,-0.3913,-0.4387,-0.4387,-0.4395,-0.4342,-0.4418,-0.442,-0.4063,-0.323,-0.3732,-0.4033,-0.4033,-0.6833,-0.7733,0.0,0.0,0.0,0.0,0.0,0.0,0.0,0.0,0.0,0.0,0.0,0.0,0.0,0.0,0.0,0.5347,0.4391,0.2972,0.101,-0.0605,-0.1617,-0.1617,-0.1617,-0.1617,-0.1617,-0.1617,-0.1516,-0.1212,-0.1313,-0.1405,-0.1483,-0.1703,-0.1706,-0.1581,-0.1604,-0.1617,-0.1617,-0.2423,-0.2904,-0.2861,0.0,0.0,-0.3831,-0.4514,-0.4589,-0.4455,-0.4915,-0.547,-0.6121,-0.6204,-0.6734,-0.76,-0.76,-0.7634,-0.7682,-0.7651,-0.7641,-0.7827,-0.8851,-0.9202,-0.9363,-1.0417,-1.0774,-1.074,-1.0925,-1.1012,0.0,-1.1012,-1.0954,-1.0939,-1.0453,-1.0429,-1.0395,-1.0045,-0.938,-0.8937,-0.9069,-0.8372,-0.7904,-0.8249,-0.8321,-0.82,-0.7777,-0.8521,-0.9232,-0.9529,-0.8825,-0.8223,-0.7922,-0.6429,-0.5629,-0.6323,-0.5629,-0.5027,-0.481,-0.4937,-0.4497,-0.322,-0.3316,-0.3413,-0.3413,-0.3464,-0.35,-0.3512,-0.3512,-0.3419,-0.323,-0.3732,-0.4033,-0.4033,-0.5434,-0.6034,0.0,0.0,0.0,0.0,0.0,0.0,0.0,0.0,0.0,0.0,0.0,0.5572,0.0,0.0,0.5352,0.5412,0.3985,0.2451,0.1022,-0.0609,-0.1617,-0.1617,-0.1617,-0.1516,-0.1415,-0.1516,-0.1516,-0.1314,-0.1516,-0.161,-0.1595,-0.1609,-0.161,-0.1594,-0.1609,-0.1617,-0.1617,-0.202,-0.2211,-0.209,-0.2588,-0.2745,-0.2667,-0.3364,-0.3631,-0.3561,-0.417,-0.473,-0.5241,-0.5239,-0.5797,-0.6731,-0.6737,-0.7063,-0.759,-0.7512,-0.7485,-0.7578,-0.8125,-0.8249,-0.8284,-0.8822,-0.8968,-0.8984,-0.9435,-0.9615,-0.9615,-0.9615,-0.9686,-0.9622,-0.8897,-0.8833,-0.8943,-0.8761,-0.846,-0.8201,-0.8372,-0.8113,-0.7927,-0.8356,-0.8095,-0.7844,-0.768,-0.7776,-0.7826,-0.8024,-0.7521,-0.7024,-0.6429,-0.5434,-0.4832,-0.4828,-0.4332,-0.4033,-0.4033,-0.3999,-0.3679,-0.3185,-0.3185,-0.3185,-0.3185,-0.3214,-0.323,-0.323,-0.323,-0.323,-0.323,-0.3432,-0.3632,-0.3632,-0.4435,-0.4935,0.0,0.0,0.0,0.0,0.0,0.0,0.0,0.0,0.6279,0.6002,0.6207,0.6406,0.6106,0.6002,0.592,0.5171,0.3477,0.1832,0.0724,-0.0717,-0.1626,-0.1626,-0.162,-0.1516,-0.1212,-0.1415,-0.1617,-0.1617,-0.1617,-0.1617,-0.1617,-0.1617,-0.1617,-0.1617,-0.1617,-0.1617,-0.1617,-0.1617,-0.1617,-0.1616,-0.1592,-0.1577,-0.1669,-0.2414,-0.2678,-0.276,-0.3647,-0.412,-0.4279,-0.4466,-0.4996,-0.5681,-0.557,-0.6273,-0.7292,-0.7302,-0.7326,-0.7326,-0.7326,-0.7244,-0.7163,-0.7285,-0.7241,-0.7228,-0.8017,-0.8193,-0.8193,-0.8193,-0.8379,-0.8271,-0.7347,-0.741,-0.7652,-0.7535,-0.768,-0.7944,-0.794,-0.8113,-0.8201,-0.8409,-0.7934,-0.7475,-0.734,-0.6608,-0.6126,-0.6323,-0.6224,-0.5729,-0.4935,-0.4634,-0.4133,-0.3331,-0.323,-0.323,-0.323,-0.323,-0.323,-0.323,-0.323,-0.323,-0.323,-0.323,-0.323,-0.323,-0.323,-0.323,-0.323,-0.323,-0.323,-0.323,-0.3632,-0.4133,0.7434,0.6439,0.5837,0.5939,0.5839,0.566,0.0,0.0,0.6223,0.6005,0.6445,0.655,0.613,0.5492,0.473,0.405,0.2789,0.1136,-0.1038,-0.1555,-0.1657,-0.1657,-0.1633,-0.1617,-0.1516,-0.1617,-0.1617,-0.1617,-0.1617,-0.1617,-0.1617,-0.1617,-0.1617,-0.1617,-0.1617,-0.1617,-0.1617,-0.1617,-0.1617,-0.1617,-0.1613,-0.1598,-0.1571,-0.1666,-0.1745,-0.1716,-0.2756,-0.3137,-0.3238,-0.4087,-0.4506,-0.4756,-0.4577,-0.5211,-0.6233,-0.6905,-0.7166,-0.7166,-0.7166,-0.7153,-0.7143,-0.716,-0.7153,-0.7139,-0.7228,-0.7228,-0.7228,-0.7228,-0.7238,-0.7248,-0.7146,-0.7337,-0.7528,-0.751,-0.768,-0.794,-0.8113,-0.8201,-0.8074,-0.7434,-0.7393,-0.6966,-0.5275,-0.4976,-0.5331,-0.6224,-0.5629,-0.4933,-0.4834,-0.3932,-0.3331,-0.323,-0.323,-0.323,-0.323,-0.323,-0.323,-0.323,-0.323,-0.323,-0.323,-0.323,-0.323,-0.323,-0.323,-0.323,-0.323,-0.323,-0.323,-0.323,-0.323,-0.3531,0.8623,0.7132,0.6137,0.0,0.6189,0.6047,0.5686,0.5846,0.6008,0.6052,0.6275,0.6489,0.6275,0.5955,0.5195,0.0,0.3229,0.2173,-0.0104,-0.0617,-0.0919,-0.1534,-0.164,-0.1637,-0.1619,-0.1617,-0.1617,-0.1617,-0.1617,-0.1617,-0.1617,-0.1617,-0.1617,-0.1617,-0.1617,-0.1617,-0.1617,-0.1617,-0.1617,-0.1617,-0.1617,-0.161,-0.1598,-0.1598,-0.1581,-0.1552,-0.2037,-0.212,-0.2194,-0.2603,-0.3209,-0.3811,-0.3642,-0.4277,-0.5298,-0.6068,-0.6678,-0.7139,-0.7139,-0.7139,-0.7139,-0.7139,-0.7139,-0.7139,-0.7139,-0.7139,-0.7139,-0.7139,-0.7139,-0.7143,-0.7323,-0.7503,-0.7768,-0.7852,-0.812,-0.8296,-0.8384,-0.8008,-0.7576,-0.7362,-0.6567,-0.5538,-0.486,-0.421,-0.4033,-0.4429,-0.4131,-0.3833,-0.3833,-0.3432,-0.323,-0.323,-0.323,-0.323,-0.323,-0.323,-0.323,-0.323,-0.323,-0.323,-0.323,-0.323,-0.323,-0.323,-0.323,-0.323,-0.323,-0.323,-0.323,-0.323,-0.323,-0.3331,0.9114,0.7826,0.6842,0.6779,0.6655,0.6326,0.5976,0.5838,0.5899,0.6036,0.6261,0.637,0.6261,0.602,0.5247,0.3531,0.3254,0.2694,0.1043,0.0616,0.0204,-0.0614,-0.0726,-0.0728,-0.0616,-0.1225,-0.1626,-0.1618,-0.1617,-0.1617,-0.1617,-0.1617,-0.1617,-0.1617,-0.1313,-0.1313,-0.1617,-0.1313,-0.1313,-0.1617,-0.1617,-0.1617,-0.1616,-0.1608,-0.1597,-0.1583,-0.1575,-0.1564,-0.1553,-0.1575,-0.2077,-0.276,-0.2614,-0.3252,-0.4269,-0.4833,-0.5729,-0.6697,-0.6697,-0.6874,-0.7139,-0.7139,-0.7139,-0.7139,-0.7139,-0.7139,-0.7139,-0.7139,-0.7143,-0.7234,-0.7149,-0.7323,-0.758,-0.7489,-0.758,-0.7764,-0.7764,-0.7251,-0.6749,-0.6705,-0.5593,-0.453,-0.442,-0.3732,-0.323,-0.323,-0.323,-0.323,-0.323,-0.323,-0.323,-0.323,-0.323,-0.323,-0.323,-0.323,-0.323,-0.323,-0.323,-0.323,-0.323,-0.323,-0.323,-0.323,-0.323,-0.323,-0.323,-0.323,-0.323,-0.323,-0.323,-0.323,0.7928,0.7826,0.7959,0.7909,0.7021,0.6362,0.68,0.6315,0.5807,0.6243,0.6265,0.6151,0.5926,0.4962,0.4033,0.3705,0.254,0.1769,0.1695,0.1568,0.1561,0.1589,0.1592,0.1699,0.0,-0.0314,-0.1649,-0.1619,-0.1617,-0.1617,-0.1617,-0.1617,-0.1617,-0.1617,-0.0605,-0.0504,-0.1617,-0.0605,-0.0605,-0.1617,-0.1617,-0.1617,-0.1615,-0.1586,-0.1589,-0.1613,-0.1584,-0.1588,-0.1614,-0.1615,-0.1615,-0.1612,-0.1681,-0.223,-0.3041,-0.298,-0.4189,-0.5719,-0.5719,-0.634,-0.7139,-0.7139,-0.7139,-0.7139,-0.7139,-0.7139,-0.7139,-0.7139,-0.7323,-0.7238,-0.6349,-0.652,-0.6602,-0.5714,-0.5628,-0.5808,-0.5808,-0.5806,-0.5555,-0.4731,-0.4634,-0.4336,-0.342,-0.323,-0.323,-0.323,-0.323,-0.323,-0.323,-0.323,-0.323,-0.323,-0.323,-0.323,-0.323,-0.323,-0.323,-0.323,-0.323,-0.323,-0.323,-0.323,-0.323,-0.323,-0.323,-0.323,-0.323,-0.323,-0.323,-0.323,-0.323,-0.323,0.8928,0.8703,0.8487,0.8442,0.8297,0.783,0.6956,0.6491,0.6335,0.604,0.5883,0.5836,0.5724,0.5428,0.4939,0.4614,0.4206,0.3646,0.297,0.2827,0.2605,0.1909,0.1826,0.0,0.0,0.0,0.0,0.0616,0.0508,0.0504,0.0504,0.0504,0.0504,0.0504,0.0907,0.0907,0.0504,0.0907,0.0907,0.0504,-0.0202,-0.0504,-0.0605,-0.1304,-0.1607,-0.1616,-0.1606,-0.1607,-0.1617,-0.1617,-0.1617,-0.1613,-0.1583,-0.1761,-0.2033,-0.1967,-0.276,-0.3921,-0.458,-0.5001,-0.5267,-0.5267,-0.5267,-0.5267,-0.5267,-0.5267,-0.5267,-0.5447,-0.5539,-0.563,-0.563,-0.5716,-0.5802,-0.5628,-0.563,-0.5741,-0.5724,-0.5371,-0.4823,-0.4632,-0.4039,-0.3604,-0.3226,-0.323,-0.323,-0.323,-0.323,-0.323,-0.323,-0.323,-0.323,-0.323,-0.323,-0.323,-0.323,-0.323,-0.323,-0.323,-0.323,-0.323,-0.323,-0.323,-0.323,-0.323,-0.323,-0.323,-0.323,-0.323,-0.323,-0.323,-0.323,-0.323,1.0109,0.9991,0.9803,0.9328,0.9108,0.8755,0.7777,0.71,0.6591,0.622,0.5827,0.5662,0.5521,0.5576,0.543,0.5108,0.5032,0.4794,0.414,0.3982,0.3762,0.3103,0.3035,0.305,0.0,0.0,0.0,0.1761,0.1752,0.1635,0.1614,0.1623,0.1624,0.1613,0.2017,0.2017,0.1613,0.2017,0.2017,0.1613,0.0907,0.0605,0.0504,-0.0504,-0.1009,-0.101,-0.1414,-0.1617,-0.1617,-0.1617,-0.1617,-0.1613,-0.1583,-0.1571,-0.1566,-0.1515,-0.1861,-0.2489,-0.3514,-0.4022,-0.4289,-0.4289,-0.4289,-0.4289,-0.4289,-0.4378,-0.4467,-0.4559,-0.4736,-0.4917,-0.4914,-0.4917,-0.4926,-0.4784,-0.4703,-0.4729,-0.4822,-0.4356,-0.4051,-0.4103,-0.3584,-0.323,-0.323,-0.323,-0.323,-0.323,-0.323,-0.323,-0.323,-0.323,-0.323,-0.323,-0.323,-0.323,-0.323,-0.323,-0.323,-0.323,-0.323,-0.323,-0.323,-0.3432,-0.3531,-0.3531,-0.3632,-0.3632,-0.3531,-0.3531,-0.3432,-0.323,-0.323,-0.323,1.1365,1.157,1.1683,1.0484,0.9533,0.8984,0.9283,0.8026,0.6782,0.6668,0.6096,0.5524,0.0,0.0,0.5417,0.5108,0.5032,0.5008,0.5108,0.5043,0.5051,0.0,0.0,0.0,0.0,0.0,0.0,0.208,0.0,0.1988,0.182,0.1844,0.1846,0.1816,0.272,0.2821,0.1815,0.2821,0.2821,0.1714,0.1714,0.1713,0.1613,0.0605,0.0101,-0.0101,-0.1111,-0.1516,-0.1617,-0.1617,-0.1617,-0.1614,-0.1585,-0.1574,-0.157,-0.154,-0.1509,-0.1663,-0.2533,-0.3403,-0.42,-0.42,-0.42,-0.42,-0.42,-0.438,-0.4561,-0.4472,-0.4825,-0.5003,-0.4117,-0.4032,-0.4057,-0.322,-0.2961,-0.298,-0.3041,-0.31,-0.314,-0.3143,-0.3191,-0.323,-0.323,-0.323,-0.323,-0.323,-0.323,-0.323,-0.323,-0.323,-0.323,-0.323,-0.323,-0.323,-0.323,-0.323,-0.323,-0.323,-0.323,-0.323,-0.3331,-0.3732,-0.4033,-0.4033,-0.4533,-0.4533,-0.4033,-0.4033,-0.3732,-0.3331,-0.3331,-0.3331,1.1463,1.1387,1.1372,1.041,1.0051,0.985,0.9284,0.8869,0.8069,0.665,0.6243,0.5865,0.0,0.0,0.0,0.5086,0.5032,0.0,0.5279,0.5233,0.0,0.5333,0.0,0.5357,0.538,0.5361,0.0,0.0,0.4223,0.4154,0.4116,0.4077,0.4046,0.4029,0.423,0.423,0.4029,0.423,0.423,0.3929,0.3224,0.2821,0.272,0.1713,0.0706,-0.0,-0.0303,-0.0908,-0.1617,-0.1617,-0.1617,-0.1616,-0.1609,-0.1706,-0.1902,-0.1669,-0.183,-0.2077,-0.2127,-0.2271,-0.2419,-0.2419,-0.2598,-0.2778,-0.2778,-0.2778,-0.2868,-0.2959,-0.3138,-0.3227,-0.3141,-0.3266,-0.3305,-0.3046,-0.2993,-0.3042,-0.3104,-0.3128,-0.3153,-0.3198,-0.3219,-0.323,-0.323,-0.323,-0.323,-0.323,-0.323,-0.323,-0.323,-0.323,-0.323,-0.323,-0.323,-0.323,-0.323,-0.323,-0.3331,-0.3732,-0.3833,-0.3932,-0.4332,-0.4533,-0.4634,-0.4634,-0.4734,-0.4734,-0.4634,-0.4634,-0.4533,-0.4433,-0.4433,-0.4433,1.2145,1.1943,1.1701,1.0399,1.0119,1.0108,0.9655,0.9246,0.856,0.7154,0.6556,0.6085,0.5122,0.5006,0.0,0.0,0.0,0.0,0.5294,0.5277,0.5277,0.0,0.5345,0.0,0.532,0.5286,0.5257,0.0,0.5188,0.51,0.4977,0.4961,0.4918,0.4836,0.4834,0.4834,0.4834,0.4834,0.4834,0.4834,0.423,0.3929,0.3828,0.2821,0.2016,0.141,0.0,-0.0,-0.0606,-0.0808,-0.1111,-0.1415,-0.1415,-0.1717,-0.2118,-0.1996,-0.2161,-0.2312,-0.2078,-0.2036,-0.209,-0.198,-0.2064,-0.2243,-0.2243,-0.2244,-0.2334,-0.2424,-0.2603,-0.2699,-0.2905,-0.2935,-0.2971,-0.3025,-0.3064,-0.3105,-0.3166,-0.318,-0.3189,-0.3224,-0.323,-0.323,-0.323,-0.323,-0.323,-0.323,-0.323,-0.323,-0.323,-0.323,-0.323,-0.323,-0.323,-0.323,-0.323,-0.343,-0.3632,-0.3932,-0.4234,-0.4533,-0.4834,-0.5035,-0.5135,-0.5135,-0.5336,-0.5436,-0.5135,-0.5135,-0.5035,-0.4834,-0.4834,-0.4834,1.3022,1.2727,1.2299,1.0339,0.9884,0.9929,1.0091,0.9495,0.8713,0.784,0.0,0.6358,0.5151,0.5207,0.5274,0.5089,0.0,0.5143,0.5247,0.5263,0.5292,0.5371,0.531,0.5263,0.5263,0.5192,0.5177,0.5257,0.5326,0.5255,0.5004,0.5053,0.5012,0.4841,0.4834,0.4834,0.4834,0.4834,0.4834,0.4834,0.4834,0.4834,0.4734,0.3827,0.3324,0.3022,0.1612,0.0907,0.0706,0.0202,-0.0404,-0.101,-0.101,-0.1515,-0.232,-0.222,-0.2389,-0.2437,-0.2399,-0.2445,-0.2575,-0.2347,-0.2244,-0.2334,-0.2334,-0.2424,-0.2513,-0.2513,-0.2694,-0.2887,-0.2943,-0.2965,-0.2999,-0.3112,-0.3146,-0.3166,-0.3219,-0.323,-0.323,-0.323,-0.323,-0.323,-0.323,-0.323,-0.323,-0.323,-0.323,-0.323,-0.323,-0.323,-0.323,-0.323,-0.323,-0.323,-0.3331,-0.3732,-0.4033,-0.4234,-0.4634,-0.4935,-0.5035,-0.5436,-0.5737,-0.5737,-0.6137,-0.6137,-0.5737,-0.5737,-0.5436,-0.5035,-0.5035,-0.5035,1.3216,1.2727,1.2299,1.0339,0.9884,0.9892,0.9925,0.9827,0.0,0.0,0.7672,0.6865,0.5944,0.5352,0.4908,0.5059,0.5098,0.5167,0.5335,0.5357,0.5363,0.0,0.5367,0.5357,0.5357,0.5343,0.0,0.0,0.0,0.5214,0.5092,0.5026,0.4947,0.4839,0.4834,0.4834,0.4834,0.4834,0.4834,0.4834,0.4834,0.4834,0.4834,0.4632,0.3828,0.2521,0.2219,0.0,0.0101,-0.0,-0.0101,-0.0202,-0.0202,-0.0808,-0.1715,-0.1515,-0.2074,-0.2967,-0.2671,-0.2699,-0.2797,-0.2517,-0.2604,-0.2784,-0.2784,-0.2784,-0.2873,-0.2873,-0.2873,-0.2887,-0.2943,-0.2995,-0.305,-0.3123,-0.3179,-0.3218,-0.3229,-0.323,-0.323,-0.323,-0.323,-0.323,-0.323,-0.323,-0.323,-0.323,-0.323,-0.323,-0.323,-0.323,-0.323,-0.323,-0.323,-0.3331,-0.3831,-0.3932,-0.4332,-0.5236,-0.5434,-0.5634,-0.6137,-0.6234,-0.6237,-0.6237,-0.6337,-0.6337,-0.6237,-0.6237,-0.6234,-0.6134,-0.6134,-0.6134,1.3998,1.3511,1.3152,1.1693,1.0929,1.0536,1.0536,0.0,0.0,0.8546,0.7736,0.6939,0.6142,0.5381,0.0,0.5022,0.5077,0.5155,0.5292,0.5269,0.0,0.5369,0.5298,0.5259,0.0,0.0,0.0,0.0,0.0,0.5104,0.5108,0.4975,0.4879,0.4836,0.4834,0.4834,0.4834,0.4834,0.4834,0.4834,0.4834,0.4834,0.4834,0.4535,0.3932,0.3228,0.2622,0.1917,0.1211,0.0909,0.0606,0.0202,0.0202,-0.0404,-0.121,-0.1514,-0.1995,-0.2546,-0.2782,-0.2917,-0.2955,-0.2802,-0.2784,-0.2875,-0.2875,-0.2875,-0.2875,-0.2875,-0.2895,-0.2924,-0.2951,-0.3026,-0.3104,-0.3132,-0.3187,-0.323,-0.323,-0.323,-0.323,-0.323,-0.323,-0.323,-0.323,-0.323,-0.323,-0.323,-0.323,-0.323,-0.323,-0.323,-0.323,-0.323,-0.343,-0.3732,-0.3932,-0.4535,-0.5035,-0.5534,-0.5837,-0.6134,-0.6437,-0.6437,-0.6437,-0.6437,-0.6437,-0.6437,-0.6437,-0.6437,-0.6437,-0.6437,-0.6437,-0.6437,1.4586,1.4298,1.4004,1.2926,1.195,1.117,1.117,1.04,0.9426,0.8832,0.8035,0.7238,0.6439,0.0,0.5154,0.0,0.5032,0.5118,0.5228,0.5181,0.5198,0.0,0.5255,0.0,0.5267,0.0,0.0,0.0,0.0,0.0,0.5077,0.4943,0.4855,0.4836,0.4834,0.4834,0.4834,0.4834,0.4834,0.4834,0.4834,0.4734,0.4634,0.4234,0.3831,0.363,0.2724,0.2321,0.2221,0.1818,0.1212,0.0707,0.0707,0.0202,-0.0605,-0.121,-0.1609,-0.1796,-0.2411,-0.2565,-0.2636,-0.2635,-0.2784,-0.2875,-0.2875,-0.2875,-0.2875,-0.2875,-0.2914,-0.2961,-0.2974,-0.3057,-0.3143,-0.3155,-0.3195,-0.323,-0.323,-0.323,-0.323,-0.323,-0.323,-0.323,-0.323,-0.323,-0.323,-0.323,-0.323,-0.323,-0.3331,-0.3331,-0.343,-0.3531,-0.3831,-0.4133,-0.4334,-0.5135,-0.5634,-0.5737,-0.6137,-0.6437,-0.6437,-0.6437,-0.6437,-0.6437,-0.6437,-0.6437,-0.6437,-0.6437,-0.6437,-0.6437,-0.6437,-0.6437,1.4586,1.4298,1.4004,1.2926,1.195,1.117,1.117,1.04,0.9628,0.9529,0.8832,0.8035,0.7235,0.0,0.0,0.0,0.0,0.5045,0.522,0.5237,0.5269,0.5369,0.0,0.0,0.5367,0.0,0.0,0.0,0.0,0.0,0.4994,0.4969,0.492,0.4836,0.4834,0.4834,0.4834,0.4834,0.4834,0.4834,0.4834,0.4533,0.4033,0.4033,0.3429,0.2522,0.2422,0.2119,0.0,0.1617,0.1516,0.1516,0.1516,0.101,0.0303,0.0202,-0.02,-0.0882,-0.096,-0.0942,-0.1017,-0.1717,-0.2334,-0.2875,-0.2875,-0.2875,-0.2875,-0.2875,-0.2914,-0.297,-0.3122,-0.309,-0.3154,-0.3209,-0.3226,-0.323,-0.323,-0.323,-0.323,-0.323,-0.323,-0.323,-0.323,-0.323,-0.323,-0.323,-0.323,-0.3331,-0.3833,-0.3932,-0.4133,-0.4634,-0.4234,-0.4433,-0.5336,-0.5536,-0.5834,-0.6337,-0.6337,-0.6437,-0.6437,-0.6437,-0.6437,-0.6437,-0.6437,-0.6437,-0.6437,-0.6437,-0.6437,-0.6437,-0.6437,-0.6437,1.535,1.5159,1.5057,1.4663,1.3307,1.2145,1.2145,1.0788,0.9628,0.9628,0.8931,0.8333,0.7935,0.6839,0.0,0.0,0.0,0.0,0.5061,0.5032,0.5073,0.5275,0.5249,0.0,0.0,0.0,0.0,0.0,0.0,0.0,0.49,0.4941,0.493,0.4839,0.4834,0.4834,0.4834,0.4834,0.4634,0.4334,0.4334,0.4033,0.3531,0.3228,0.2823,0.2422,0.2019,0.1818,0.0,0.1617,0.1617,0.1617,0.1617,0.1415,0.1111,0.0606,0.0201,-0.01,-0.0585,-0.0766,-0.0845,-0.1012,-0.1359,-0.1705,-0.2604,-0.2898,-0.2917,-0.2884,-0.2941,-0.3103,-0.2997,-0.3067,-0.3155,-0.3215,-0.323,-0.323,-0.323,-0.323,-0.323,-0.323,-0.323,-0.323,-0.323,-0.323,-0.323,-0.323,-0.323,-0.323,-0.3531,-0.3531,-0.3934,-0.5039,-0.5037,-0.5135,-0.5534,-0.5934,-0.6139,-0.6353,-0.6442,-0.6442,-0.6353,-0.6442,-0.6437,-0.6437,-0.6437,-0.6437,-0.6437,-0.6437,-0.6437,-0.6437,-0.6437,-0.6437,1.5832,1.5832,1.573,1.5445,1.3992,1.263,0.0,1.0886,0.9628,0.9628,0.913,0.863,0.8134,0.7138,0.6239,0.0,0.0,0.4867,0.4959,0.4916,0.4957,0.0,0.0,0.0,0.0,0.0,0.0,0.0,0.0,0.0,0.4924,0.4977,0.4957,0.4839,0.4834,0.4847,0.4875,0.4647,0.4345,0.4067,0.3843,0.3531,0.2927,0.2522,0.2321,0.212,0.1717,0.1617,0.0,0.1617,0.1617,0.1617,0.1617,0.1617,0.1516,0.101,0.0707,0.0705,0.0197,-0.0097,-0.019,-0.0279,-0.0365,-0.0628,-0.1884,-0.2447,-0.265,-0.2886,-0.2959,-0.3044,-0.2734,-0.2702,-0.268,-0.2514,-0.2522,-0.2522,-0.2522,-0.2522,-0.2522,-0.2522,-0.2522,-0.2522,-0.2522,-0.2522,-0.2522,-0.2522,-0.2623,-0.2826,-0.3029,-0.2826,-0.3228,-0.4636,-0.5441,-0.5842,-0.5834,-0.6137,-0.6445,-0.6361,-0.6445,-0.6445,-0.6361,-0.6445,-0.6437,-0.6437,-0.6437,-0.6437,-0.6437,-0.6437,-0.6437,-0.6437,-0.6437,-0.6456,1.5832,1.5832,1.554,1.4586,1.3511,1.2436,0.0,0.0,0.9628,0.9628,0.9628,0.913,0.7537,0.7238,0.6637,0.5035,0.4834,0.4867,0.4959,0.4971,0.0,0.0,0.0,0.0,0.0,0.0,0.0,0.0,0.0,0.0,0.511,0.5106,0.5022,0.4841,0.4834,0.4877,0.4969,0.4374,0.407,0.4145,0.3564,0.2927,0.2422,0.2422,0.212,0.1617,0.1617,0.1617,0.0,0.1617,0.1617,0.1617,0.1617,0.1617,0.1617,0.1617,0.1617,0.1613,0.1582,0.1551,0.1331,0.0652,0.0365,0.0269,-0.0538,-0.1256,-0.1974,-0.2694,-0.2959,-0.2872,-0.2145,-0.1988,-0.1815,-0.1008,-0.0806,-0.0806,-0.0806,-0.0806,-0.0806,-0.0806,-0.0806,-0.0806,-0.0806,-0.0806,-0.0806,-0.0806,-0.131,-0.1916,-0.2623,-0.2118,-0.2016,-0.3123,-0.5144,-0.6356,-0.6437,-0.6437,-0.6445,-0.6361,-0.6445,-0.6445,-0.6361,-0.6445,-0.6437,-0.6437,-0.6437,-0.6437,-0.6437,-0.6437,-0.6437,-0.6437,-0.6437,-0.6606,1.3896,1.3698,1.3601,1.3318,1.2441,1.156,1.1268,0.0,0.9628,0.9628,0.9628,0.9229,0.8233,0.7537,0.6839,0.5839,0.5135,0.4845,0.4873,0.0,0.0,0.0,0.0,0.0,0.0,0.0,0.0,0.0,0.0,0.0,0.5108,0.5049,0.4988,0.493,0.499,0.4825,0.4434,0.4199,0.3757,0.3007,0.2784,0.2452,0.1818,0.1818,0.1717,0.1617,0.1617,0.1617,0.1617,0.1617,0.1617,0.1617,0.1617,0.1617,0.1617,0.1617,0.1617,0.1615,0.1606,0.1569,0.1429,0.1231,0.1108,0.0987,0.0269,-0.0453,-0.1287,-0.2048,-0.1887,-0.1627,-0.1853,-0.159,-0.1109,-0.0907,-0.0806,-0.0806,-0.0806,-0.0806,-0.0806,-0.0806,-0.0806,-0.0806,-0.0806,-0.0806,-0.0907,-0.131,-0.1513,-0.1917,-0.293,-0.2829,-0.2828,-0.3128,-0.5155,-0.6374,-0.6356,-0.6356,-0.6358,-0.6372,-0.5543,-0.5441,-0.6372,-0.645,-0.6437,-0.6437,-0.6437,-0.6437,-0.6437,-0.6437,-0.6537,-0.6642,-0.6839,-0.7208,0.0,1.2727,1.263,1.2242,1.1658,0.0,0.0,0.0,0.0,0.0,0.0,0.0,0.8134,0.7534,0.6836,0.5739,0.5135,0.4847,0.4881,0.0,0.0,0.0,0.0,0.0,0.0,0.0,0.0,0.0,0.0,0.0,0.511,0.5088,0.4954,0.4711,0.4761,0.4592,0.4193,0.374,0.3178,0.2516,0.229,0.1954,0.1617,0.1617,0.1617,0.1617,0.1617,0.1617,0.0,0.1617,0.1617,0.1617,0.1617,0.1617,0.1617,0.1617,0.1617,0.1617,0.1617,0.1584,0.1541,0.153,0.1485,0.1345,0.0897,0.0091,-0.0834,-0.1408,-0.1143,-0.0773,-0.0977,-0.0696,-0.0303,-0.0,0.0101,0.0101,0.0101,0.0101,0.0101,0.0101,0.0101,0.0101,0.0101,0.0101,-0.0,-0.0303,-0.121,-0.1816,-0.1414,-0.1717,-0.202,-0.2019,-0.3939,-0.5562,-0.6372,-0.6369,-0.6372,-0.638,-0.4843,-0.4638,-0.6374,-0.6358,-0.6442,-0.6437,-0.6437,-0.6437,-0.6437,-0.6537,-0.6639,-0.6942,-0.729,-0.7693,0.0,1.2436,1.2242,1.1365,1.1077,0.0,0.0,0.0,0.0,0.0,0.0,0.0,0.0,0.7138,0.6637,0.5035,0.4834,0.4867,0.4959,0.5055,0.0,0.0,0.0,0.0,0.0,0.0,0.0,0.0,0.0,0.0,0.5122,0.5084,0.4878,0.4278,0.4169,0.409,0.4147,0.3123,0.2566,0.2562,0.1993,0.165,0.162,0.1618,0.1617,0.0,0.1617,0.1617,0.1617,0.1617,0.1617,0.1617,0.1617,0.1617,0.1617,0.1617,0.1617,0.1617,0.1617,0.1597,0.1566,0.1534,0.1483,0.1436,0.1436,0.0455,-0.0555,-0.0649,-0.0572,-0.0392,0.0295,0.0498,0.0707,0.1415,0.1617,0.1617,0.1617,0.1617,0.1617,0.1617,0.1617,0.1617,0.1516,0.1617,0.1617,0.1617,-0.0504,-0.1312,0.0808,0.0404,-0.0101,-0.0404,-0.2117,-0.4038,-0.6186,-0.6279,-0.6276,-0.639,-0.4342,-0.4135,-0.607,-0.6366,-0.6353,-0.6437,-0.6437,-0.6437,-0.6437,-0.6742,-0.6942,-0.7241,-0.7683,-0.803,1.031,0.0,1.0306,1.0015,1.0015,0.9916,0.0,0.0,0.0,0.0,0.0,0.0,0.0,0.0,0.5939,0.4935,0.4834,0.4867,0.4959,0.0,0.0,0.0,0.0,0.0,0.0,0.0,0.0,0.0,0.0,0.5161,0.521,0.4738,0.4439,0.4426,0.3546,0.298,0.2953,0.276,0.2423,0.1956,0.1816,0.168,0.1651,0.1627,0.1617,0.1617,0.1617,0.1617,0.1617,0.1617,0.1617,0.1617,0.1617,0.1617,0.1617,0.1617,0.1617,0.1617,0.1617,0.1597,0.1563,0.1509,0.1466,0.1436,0.1436,0.1183,0.0835,0.0283,0.0578,0.0985,0.05,0.0906,0.1415,0.1516,0.1617,0.1617,0.1617,0.1617,0.1617,0.1617,0.1617,0.1516,0.101,0.1314,0.1617,0.1617,0.1111,-0.0606,-0.4051,-0.192,-0.1211,-0.4552,-0.3843,-0.4046,-0.6186,-0.4851,-0.4645,-0.6287,-0.4342,-0.3426,-0.3932,-0.5539,-0.6439,-0.6437,-0.6639,-0.6742,-0.6742,-0.7144,-0.7447,-0.7547,-0.7994,-0.8243,0.943,0.9529,0.9628,0.9628,0.9628,0.9628,0.0,0.0,0.0,0.0,0.0,0.0,0.0,0.0,0.0,0.5035,0.5135,0.5289,0.0,0.0,0.0,0.0,0.0,0.0,0.0,0.0,0.0,0.0,0.0,0.4798,0.4805,0.4256,0.3837,0.3654,0.3016,0.2682,0.2657,0.2457,0.2113,0.1749,0.1719,0.169,0.1661,0.163,0.1617,0.1617,0.1617,0.1617,0.1617,0.1617,0.1617,0.1617,0.1617,0.1617,0.1617,0.1617,0.1617,0.1617,0.1617,0.1597,0.1564,0.1517,0.1481,0.1456,0.1456,0.1478,0.141,0.0951,0.1168,0.1497,0.1108,0.1313,0.1617,0.1617,0.1617,0.1617,0.1617,0.1617,0.1617,0.1617,0.1415,0.1111,0.0808,0.0808,0.101,0.1516,0.1212,-0.0202,-0.3136,-0.3135,-0.3031,-0.3436,-0.4149,-0.5168,-0.6295,-0.5361,-0.5155,-0.629,-0.526,-0.4643,-0.4638,-0.5744,-0.6445,-0.6539,-0.6842,-0.7042,-0.7144,-0.7447,-0.7682,-0.7951,-0.8196,-0.8445,0.9236,0.9331,0.9529,0.9628,0.9628,0.9628,0.0,0.0,0.0,0.0,0.0,0.0,0.0,0.0,0.0,0.0,0.0,0.0,0.0,0.0,0.0,0.0,0.0,0.0,0.0,0.0,0.0,0.0,0.0,0.4434,0.4259,0.3765,0.3223,0.2637,0.2562,0.2581,0.2581,0.202,0.178,0.1749,0.1719,0.169,0.1661,0.163,0.1617,0.1617,0.0,0.0,0.1617,0.1617,0.1617,0.1617,0.1617,0.1617,0.1617,0.1617,0.1617,0.1617,0.1617,0.1597,0.1567,0.1541,0.1513,0.1487,0.1487,0.1509,0.1533,0.1533,0.1573,0.1617,0.1617,0.1617,0.1617,0.1617,0.1617,0.1617,0.1617,0.1617,0.1617,0.1617,0.1212,0.0909,0.0707,0.0304,0.0304,0.1218,0.0608,-0.0304,-0.1018,-0.3652,-0.4253,-0.1318,-0.4255,-0.6396,-0.6401,-0.6388,-0.638,-0.6388,-0.6388,-0.638,-0.6461,-0.6461,-0.6556,-0.6845,-0.7141,-0.7341,-0.7646,-0.7646,-0.7922,-0.8275,-0.8418,-0.8564,0.9133,0.9236,0.9331,0.9529,0.9628,0.9628,0.0,0.0,0.0,0.0,0.0,0.0,0.0,0.0,0.0,0.0,0.0,0.0,0.0,0.0,0.0,0.0,0.0,0.0,0.0,0.0,0.0,0.0,0.0,0.4269,0.4257,0.3287,0.2761,0.2682,0.2241,0.1908,0.1908,0.1795,0.178,0.1749,0.1719,0.169,0.1661,0.163,0.1617,0.1617,0.0,0.1617,0.1617,0.1617,0.1617,0.1617,0.1617,0.1617,0.1617,0.1617,0.1617,0.1617,0.1617,0.1597,0.157,0.1566,0.1544,0.1519,0.1519,0.154,0.1564,0.1564,0.159,0.1617,0.1617,0.1617,0.1617,0.1617,0.1617,0.1617,0.1617,0.1617,0.1617,0.1617,0.1516,0.1212,0.0303,0.0102,0.0103,0.0207,0.0103,-0.1455,-0.5604,-0.3089,-0.2234,-0.5364,-0.6139,-0.6396,-0.6382,-0.6385,-0.6382,-0.6369,-0.6366,-0.6461,-0.6748,-0.6748,-0.6845,-0.7138,-0.7444,-0.7547,-0.7646,-0.7842,-0.8019,-0.8275,-0.8418,-0.8564,0.8733,0.8935,0.9236,0.9331,0.9529,0.9628,0.0,0.0,0.0,0.0,0.0,0.0,0.0,0.0,0.0,0.0,0.0,0.0,0.0,0.0,0.0,0.0,0.0,0.0,0.0,0.0,0.0,0.0,0.0,0.0,0.3434,0.2661,0.2226,0.2244,0.1908,0.1795,0.1795,0.1795,0.178,0.1749,0.1719,0.169,0.1661,0.163,0.1617,0.1617,0.0,0.1617,0.1617,0.1617,0.1617,0.1617,0.1617,0.1617,0.1617,0.1617,0.1617,0.1617,0.1617,0.1608,0.1593,0.1577,0.1562,0.1551,0.1551,0.156,0.1575,0.1592,0.1606,0.1617,0.1617,0.1617,0.1617,0.1617,0.1617,0.1617,0.1617,0.163,0.1534,0.1215,0.1438,0.1241,0.0203,-0.0,-0.0,-0.0,-0.2198,-0.4654,-0.6945,-0.5263,-0.4579,-0.6349,-0.6519,-0.6361,-0.639,-0.6535,-0.654,-0.6366,-0.6353,-0.6548,-0.6745,-0.6942,-0.7141,-0.7441,-0.7643,-0.7842,-0.7842,-0.8026,-0.8241,-0.8387,-0.8537,-0.8686,0.8432,0.8733,0.9034,0.9133,0.0,0.0,0.0,0.0,0.0,0.0,0.0,0.0,0.0,0.0,0.0,0.0,0.0,0.0,0.0,0.0,0.0,0.0,0.0,0.0,0.0,0.0,0.0,0.0,0.0,0.0,0.2693,0.2132,0.1795,0.1795,0.1795,0.1791,0.1785,0.1791,0.178,0.1749,0.1726,0.1699,0.1671,0.1641,0.1627,0.1627,0.162,0.1617,0.1617,0.1617,0.1617,0.1617,0.1617,0.1617,0.1617,0.1617,0.1617,0.1617,0.1617,0.1617,0.1613,0.159,0.1582,0.1582,0.1582,0.1582,0.1587,0.161,0.1617,0.1617,0.1617,0.1617,0.1617,0.1617,0.1617,0.1619,0.1626,0.1645,0.145,0.1026,0.1152,0.0952,0.0103,-0.0,-0.0427,-0.1475,-0.4792,-0.7223,-0.7251,-0.7206,-0.7037,-0.6655,-0.6623,-0.6559,-0.6433,-0.6589,-0.6581,-0.6364,-0.6445,-0.6639,-0.6842,-0.7141,-0.7441,-0.7646,-0.7942,-0.8038,-0.8038,-0.8194,-0.8343,-0.8486,-0.8638,-0.8794,0.8333,0.8432,0.8531,0.8726,0.0,0.0,0.0,0.0,0.0,0.0,0.0,0.0,0.0,0.0,0.0,0.0,0.0,0.0,0.0,0.0,0.0,0.0,0.0,0.0,0.0,0.0,0.0,0.0,0.0,0.2693,0.2693,0.2132,0.1795,0.1795,0.1795,0.1781,0.1753,0.1781,0.178,0.175,0.1748,0.1731,0.17,0.1672,0.1659,0.1657,0.1629,0.1617,0.1617,0.1617,0.1617,0.1617,0.1617,0.1617,0.1617,0.1617,0.1617,0.1617,0.1617,0.1617,0.1616,0.1614,0.1613,0.1613,0.1613,0.1613,0.1614,0.1616,0.1617,0.1617,0.1617,0.1617,0.1617,0.1617,0.1617,0.1624,0.155,0.1557,0.1566,0.159,0.0745,0.0107,-0.0,-0.0,-0.1529,-0.6011,-0.7008,-0.7166,-0.7157,-0.72,-0.7209,-0.7197,-0.7113,-0.699,-0.6738,-0.6622,-0.6567,-0.6445,-0.6642,-0.6942,-0.7138,-0.7444,-0.7743,-0.7942,-0.8038,-0.8038,-0.8038,-0.8194,-0.8343,-0.8486,-0.8638,-0.8794,0.8137,0.8432,0.8627,0.8726,0.0,0.0,0.0,0.0,0.0,0.0,0.0,0.0,0.0,0.0,0.0,0.0,0.0,0.0,0.0,0.0,0.0,0.0,0.0,0.0,0.0,0.0,0.0,0.2467,0.2244,0.2132,0.2132,0.1908,0.1795,0.1795,0.1795,0.1789,0.1778,0.1789,0.1789,0.1778,0.1759,0.1725,0.1677,0.1667,0.1652,0.1633,0.1622,0.1617,0.1617,0.1617,0.1617,0.1617,0.1617,0.1617,0.1617,0.1617,0.1617,0.1617,0.1617,0.1617,0.1617,0.1617,0.1617,0.1617,0.1617,0.1617,0.1617,0.1617,0.1617,0.1617,0.1617,0.1617,0.1617,0.1617,0.1631,0.1648,0.1556,0.1586,0.1609,0.1602,0.076,-0.0,-0.0,-0.2511,-0.5103,-0.6928,-0.7199,-0.7149,-0.719,-0.7235,-0.7169,-0.7239,-0.7119,-0.6909,-0.6744,-0.6665,-0.66,-0.6554,-0.6581,-0.6739,-0.7138,-0.7338,-0.754,-0.8038,-0.8133,-0.8184,-0.8184,-0.8428,-0.857,-0.8628,-0.8781,-0.8882,0.7637,0.7932,0.8226,0.0,0.0,0.0,0.0,0.0,0.0,0.0,0.0,0.0,0.0,0.0,0.0,0.0,0.0,0.0,0.0,0.0,0.0,0.0,0.0,0.0,0.0,0.0,0.1795,0.1795,0.1795,0.1795,0.1795,0.1795,0.1795,0.1795,0.1795,0.1791,0.178,0.179,0.179,0.178,0.1769,0.1743,0.1703,0.1684,0.1664,0.1643,0.1625,0.1617,0.1617,0.1617,0.1617,0.1617,0.1617,0.1617,0.1617,0.1617,0.1617,0.1617,0.1617,0.1617,0.1617,0.1617,0.1617,0.1617,0.1617,0.1617,0.1617,0.1617,0.1617,0.1617,0.1617,0.1617,0.162,0.1629,0.1647,0.1563,0.137,0.1507,0.1093,-0.0868,-0.1766,-0.2004,-0.1305,-0.3866,-0.627,-0.7089,-0.7143,-0.6966,-0.651,-0.686,-0.7171,-0.7188,-0.7091,-0.6907,-0.6864,-0.6782,-0.6703,-0.6624,-0.6644,-0.6782,-0.7138,-0.7238,-0.7563,-0.8113,-0.8218,-0.8292,-0.8336,-0.8587,-0.871,-0.8713,-0.8866,-0.894,0.6734,0.7033,0.0,0.0,0.0,0.0,0.0,0.0,0.0,0.0,0.0,0.0,0.0,0.0,0.0,0.0,0.0,0.0,0.0,0.0,0.0,0.0,0.0,0.0,0.0,0.1795,0.1795,0.1795,0.1795,0.1795,0.1795,0.1795,0.1795,0.1795,0.1795,0.178,0.175,0.178,0.178,0.175,0.178,0.1794,0.1792,0.1732,0.1704,0.17,0.1642,0.1617,0.1617,0.1617,0.1617,0.1617,0.1617,0.1617,0.1617,0.1617,0.1617,0.1617,0.1617,0.1617,0.1617,0.1617,0.1617,0.1617,0.1617,0.1617,0.1617,0.1617,0.1617,0.1617,0.1617,0.1617,0.1624,0.1655,0.1662,0.1468,0.0868,0.1204,-0.022,-0.6056,-0.7209,-0.641,-0.403,-0.358,-0.4477,-0.6842,-0.719,-0.6624,-0.5033,-0.617,-0.7192,-0.7184,-0.7165,-0.7108,-0.6994,-0.6986,-0.688,-0.6635,-0.683,-0.7082,-0.7244,-0.7444,-0.7815,-0.8269,-0.8272,-0.8343,-0.8482,-0.8638,-0.8713,-0.8716,-0.8869,-0.894,0.6334,0.6132,0.0,0.0,0.0,0.0,0.0,0.0,0.0,0.0,0.0,0.0,0.0,0.0,0.0,0.0,0.0,0.0,0.0,0.0,0.0,0.0,0.0,0.0,0.1795,0.1795,0.1795,0.1795,0.1795,0.1795,0.1795,0.1795,0.1795,0.1795,0.1795,0.178,0.175,0.178,0.1769,0.1718,0.1748,0.1752,0.1731,0.1712,0.1682,0.1641,0.1624,0.1617,0.1617,0.1617,0.1617,0.1619,0.164,0.1649,0.1649,0.1649,0.1649,0.1646,0.1624,0.1617,0.1617,0.1617,0.1617,0.1617,0.1617,0.1617,0.1617,0.1617,0.1617,0.1617,0.1617,0.1617,0.1624,0.1655,0.1679,0.1491,0.0979,-0.1987,-0.5139,-0.6862,-0.7203,-0.6972,-0.6286,-0.6168,-0.6393,-0.7078,-0.719,-0.7073,-0.651,-0.6961,-0.7184,-0.7182,-0.7165,-0.7108,-0.6994,-0.6986,-0.6918,-0.6757,-0.6956,-0.717,-0.7247,-0.7444,-0.7815,-0.8269,-0.837,-0.8492,-0.8645,-0.8798,-0.8869,-0.8872,-0.8916,-0.894,0.5129,0.0,0.0,0.0,0.0,0.0,0.0,0.0,0.0,0.0,0.0,0.0,0.0,0.0,0.0,0.0,0.0,0.0,0.0,0.0,0.0,0.0,0.0,0.0,0.1795,0.1795,0.1795,0.1795,0.1795,0.1795,0.1795,0.1795,0.1789,0.1777,0.1789,0.178,0.175,0.178,0.1776,0.174,0.1746,0.1733,0.1704,0.1692,0.1668,0.1635,0.1622,0.1617,0.1617,0.1617,0.1624,0.1637,0.1655,0.1669,0.1679,0.1679,0.1679,0.1676,0.1658,0.1652,0.165,0.1639,0.1635,0.1633,0.1621,0.1617,0.1617,0.1617,0.1617,0.1617,0.1617,0.1626,0.1643,0.1673,0.1695,0.1288,-0.022,-0.4121,-0.7206,-0.7201,-0.7195,-0.7187,-0.7182,-0.7182,-0.7182,-0.7179,-0.7176,-0.7176,-0.719,-0.7179,-0.7171,-0.7171,-0.7163,-0.7127,-0.7059,-0.7054,-0.7108,-0.6987,-0.7295,-0.7518,-0.7511,-0.7709,-0.7955,-0.8353,-0.8499,-0.8648,-0.8801,-0.8893,-0.894,-0.894,-0.894,-0.894,0.0,0.0,0.0,0.0,0.0,0.0,0.0,0.0,0.0,0.0,0.0,0.0,0.0,0.0,0.0,0.0,0.0,0.0,0.0,0.0,0.0,0.0,0.0,0.1795,0.1795,0.1795,0.1795,0.1795,0.1795,0.1795,0.1795,0.1795,0.1781,0.175,0.1776,0.1775,0.1742,0.1772,0.1784,0.1778,0.1753,0.1726,0.1695,0.1673,0.1661,0.1656,0.1628,0.1617,0.1617,0.1617,0.1633,0.1659,0.1664,0.1682,0.1705,0.1707,0.1708,0.1708,0.1705,0.1704,0.17,0.1675,0.1666,0.166,0.163,0.1621,0.162,0.1618,0.1617,0.1618,0.1518,0.1537,0.1458,0.1487,0.1389,0.0647,-0.2002,-0.5052,-0.7203,-0.7184,-0.7182,-0.7173,-0.7157,-0.7168,-0.7173,-0.7157,-0.7157,-0.7163,-0.7179,-0.7165,-0.716,-0.7171,-0.7171,-0.7171,-0.7171,-0.7282,-0.7343,-0.7437,-0.775,-0.7908,-0.8091,-0.818,-0.8282,-0.8503,-0.8638,-0.8784,-0.894,-0.894,-0.894,-0.894,-0.894,-0.894,0.0,0.0,0.0,0.0,0.0,0.0,0.0,0.0,0.0,0.0,0.0,0.0,0.0,0.0,0.0,0.0,0.0,0.0,0.0,0.0,0.0,0.0,0.1791,0.1795,0.1795,0.1795,0.1795,0.1795,0.1795,0.1795,0.1795,0.1795,0.1781,0.175,0.1756,0.1734,0.1682,0.171,0.1701,0.1655,0.1673,0.1665,0.1636,0.1654,0.165,0.1626,0.162,0.1617,0.1617,0.1617,0.1621,0.1631,0.1677,0.1699,0.1707,0.1731,0.174,0.1736,0.1712,0.1704,0.1703,0.1697,0.1695,0.169,0.1661,0.1652,0.1647,0.1624,0.1617,0.1419,0.0719,0.0307,-0.0,-0.0317,-0.0753,-0.1201,-0.1892,-0.4704,-0.7187,-0.7184,-0.7171,-0.716,-0.7154,-0.7157,-0.716,-0.7154,-0.7168,-0.7173,-0.7163,-0.7157,-0.719,-0.7288,-0.7296,-0.7296,-0.7296,-0.7522,-0.7694,-0.7572,-0.8002,-0.8269,-0.8243,-0.8335,-0.854,-0.8659,-0.8693,-0.8784,-0.894,-0.894,-0.894,-0.894,-0.894,-0.894,0.0,0.0,0.0,0.0,0.0,0.0,0.0,0.0,0.0,0.0,0.0,0.0,0.0,0.0,0.0,0.0,0.0,0.0,0.0,0.0,0.0,0.0,0.1777,0.1795,0.1795,0.1795,0.1795,0.1795,0.1795,0.1789,0.1774,0.1774,0.1753,0.1709,0.1721,0.1707,0.1662,0.169,0.1689,0.1658,0.1661,0.1646,0.1618,0.1633,0.1632,0.1617,0.1617,0.1617,0.1618,0.1633,0.1639,0.1644,0.1703,0.1726,0.173,0.176,0.1771,0.1769,0.1753,0.1748,0.1746,0.1731,0.1726,0.172,0.1691,0.1682,0.1571,0.1131,0.1023,0.0818,-0.0,-0.0613,-0.1231,-0.2088,-0.2659,-0.3139,-0.4074,-0.5791,-0.7179,-0.7171,-0.7163,-0.7154,-0.7154,-0.7154,-0.7157,-0.7168,-0.7168,-0.7165,-0.7157,-0.7203,-0.7266,-0.7328,-0.7388,-0.7423,-0.7423,-0.7651,-0.7944,-0.793,-0.8367,-0.8638,-0.861,-0.8635,-0.8703,-0.871,-0.8781,-0.8859,-0.894,-0.894,-0.894,-0.894,-0.894,-0.894,0.0,0.0,0.0,0.0,0.0,0.0,0.0,0.0,0.0,0.0,0.0,0.0,0.0,0.0,0.0,0.0,0.0,0.0,0.0,0.0,0.0,0.1711,0.1752,0.1783,0.1794,0.179,0.1789,0.1795,0.1795,0.1782,0.1751,0.175,0.1722,0.1664,0.1685,0.1683,0.1654,0.1677,0.1689,0.1689,0.1665,0.1641,0.1617,0.1617,0.1617,0.1617,0.1617,0.1617,0.1619,0.1644,0.1654,0.166,0.1719,0.1742,0.1746,0.1782,0.1683,0.157,0.157,0.157,0.1567,0.1435,0.1427,0.1532,0.1286,0.1281,0.1065,0.0417,0.0207,-0.0,-0.0922,-0.1645,-0.2381,-0.3841,-0.4425,-0.5147,-0.6645,-0.7092,-0.7173,-0.7157,-0.7154,-0.7154,-0.7154,-0.7154,-0.716,-0.7176,-0.7165,-0.7163,-0.7184,-0.7274,-0.7353,-0.7394,-0.7489,-0.7666,-0.7666,-0.8017,-0.8191,-0.8292,-0.8603,-0.8874,-0.8981,-0.895,-0.8879,-0.8754,-0.8872,-0.894,-0.894,-0.894,-0.894,-0.894,-0.894,-0.894,0.0,0.0,0.0,0.0,0.0,0.0,0.0,0.0,0.0,0.0,0.0,0.0,0.0,0.0,0.0,0.0,0.0,0.0,0.0,0.0,0.1687,0.1737,0.1727,0.1737,0.179,0.1771,0.1767,0.1793,0.1795,0.1782,0.1751,0.175,0.1722,0.1664,0.1666,0.1654,0.1623,0.1626,0.1628,0.1628,0.1624,0.1621,0.1617,0.1617,0.1617,0.1617,0.1617,0.1617,0.1617,0.1622,0.1623,0.1628,0.1687,0.171,0.1717,0.1774,0.1234,0.0561,0.0561,0.0561,0.0448,-0.0336,-0.0,0.0444,-0.0323,-0.0538,-0.0541,-0.0733,-0.0725,-0.1043,-0.2469,-0.3173,-0.3843,-0.5277,-0.6119,-0.664,-0.6983,-0.7076,-0.7157,-0.7154,-0.7154,-0.7154,-0.7154,-0.7154,-0.7157,-0.7157,-0.7157,-0.7192,-0.7298,-0.7326,-0.7418,-0.763,-0.7903,-0.815,-0.815,-0.8622,-0.8918,-0.8781,-0.9,-0.9144,-0.9123,-0.9005,-0.893,-0.891,-0.8927,-0.894,-0.894,-0.894,-0.894,-0.894,-0.894,-0.894,0.0,0.0,0.0,0.0,0.0,0.0,0.0,0.0,0.0,0.0,0.0,0.0,0.0,0.0,0.0,0.0,0.0,0.0,0.0,0.0,0.1672,0.1697,0.1703,0.1714,0.1742,0.1732,0.173,0.1743,0.1744,0.1731,0.1702,0.1701,0.1681,0.1638,0.1637,0.163,0.1617,0.1617,0.1617,0.1617,0.1617,0.1617,0.1617,0.1617,0.1617,0.1617,0.1617,0.1617,0.1618,0.1635,0.1633,0.1623,0.1682,0.1385,0.0961,0.0986,0.0445,-0.0336,-0.0336,-0.0336,-0.0336,-0.0785,-0.0669,-0.0331,-0.076,-0.0863,-0.0857,-0.1358,-0.1761,-0.2286,-0.3487,-0.4262,-0.5026,-0.5807,-0.6417,-0.6902,-0.697,-0.7073,-0.7154,-0.7154,-0.7154,-0.7154,-0.7154,-0.7211,-0.7255,-0.7255,-0.7315,-0.7377,-0.7432,-0.7497,-0.7581,-0.769,-0.8122,-0.8285,-0.8285,-0.8883,-0.9149,-0.8933,-0.9205,-0.9208,-0.9042,-0.8974,-0.894,-0.894,-0.894,-0.894,-0.894,-0.894,-0.894,-0.894,-0.894,-0.8981,0.0,0.0,0.0,0.0,0.0,0.0,0.0,0.0,0.0,0.0,0.0,0.0,0.0,0.0,0.0,0.0,0.0,0.0,0.0,0.1637,0.1654,0.1661,0.1674,0.1688,0.1703,0.1698,0.1697,0.1703,0.1704,0.1692,0.1664,0.1662,0.1648,0.1618,0.1617,0.1617,0.1617,0.1617,0.1617,0.1617,0.1617,0.1617,0.1617,0.1617,0.1516,0.1314,0.1516,0.1617,0.1619,0.1641,0.1535,0.1318,0.1359,0.0846,0.0106,0.0108,-0.0438,-0.1219,-0.1224,-0.1226,-0.1227,-0.1456,-0.1441,-0.1202,-0.1414,-0.1511,-0.1814,-0.2413,-0.3034,-0.3677,-0.4541,-0.5214,-0.5798,-0.6169,-0.6549,-0.6915,-0.7008,-0.7095,-0.7154,-0.7154,-0.7179,-0.7201,-0.7201,-0.7301,-0.7383,-0.7383,-0.7462,-0.7532,-0.7562,-0.7765,-0.7837,-0.7864,-0.8311,-0.8613,-0.8613,-0.9095,-0.9366,-0.9157,-0.9342,-0.934,-0.912,-0.9072,-0.9052,-0.9052,-0.9052,-0.9015,-0.894,-0.8977,-0.8991,-0.8991,-0.8991,-0.9072,0.0,0.0,0.0,0.0,0.0,0.0,0.0,0.0,0.0,0.0,0.0,0.0,0.0,0.0,0.0,0.0,0.0,0.0,0.1617,0.1618,0.163,0.1659,0.1638,0.1643,0.1699,0.168,0.1675,0.1702,0.1704,0.1692,0.1664,0.1662,0.1648,0.1618,0.1617,0.1617,0.1617,0.1617,0.1617,0.1617,0.1617,0.1617,0.1617,0.1617,0.1212,0.0505,0.1313,0.1617,0.1617,0.1619,0.1112,0.0506,0.0515,-0.0,-0.0728,-0.0636,-0.128,-0.2035,-0.2069,-0.2081,-0.2305,-0.3123,-0.2882,-0.229,-0.3005,-0.3665,-0.4236,-0.4168,-0.4623,-0.5349,-0.5989,-0.6165,-0.631,-0.6864,-0.7059,-0.7138,-0.7143,-0.7149,-0.7154,-0.7154,-0.7247,-0.7326,-0.7326,-0.7429,-0.7508,-0.7508,-0.7405,-0.7453,-0.7676,-0.8062,-0.8233,-0.8349,-0.8848,-0.9214,-0.9214,-0.9579,-0.9815,-0.9798,-0.9673,-0.9591,-0.9574,-0.9435,-0.9357,-0.9357,-0.9357,-0.9222,-0.894,-0.9076,-0.9144,-0.9144,-0.9144,-0.9222,0.0,0.0,0.0,0.0,0.0,0.0,0.0,0.0,0.0,0.0,0.0,0.0,0.0,0.0,0.0,0.0,0.0,0.0,0.1617,0.1617,0.1628,0.1659,0.1635,0.1633,0.1673,0.165,0.1637,0.1647,0.1648,0.1643,0.1634,0.1633,0.1628,0.1617,0.1617,0.1617,0.1617,0.1617,0.1617,0.1617,0.1617,0.1617,0.1617,0.1111,0.0707,0.0404,0.0202,0.0101,0.0101,0.0101,-0.0101,-0.0404,-0.0406,-0.0923,-0.166,-0.1566,-0.223,-0.3035,-0.3054,-0.3082,-0.3114,-0.3469,-0.3302,-0.3117,-0.3737,-0.4,-0.4261,-0.4598,-0.5147,-0.5735,-0.6122,-0.6416,-0.6674,-0.6967,-0.707,-0.7154,-0.7154,-0.7154,-0.7154,-0.7154,-0.726,-0.7239,-0.7239,-0.7402,-0.7533,-0.7533,-0.7603,-0.7052,-0.512,-0.5983,-0.6611,-0.6151,-0.6517,-0.6759,-0.6759,-0.7123,-0.7215,-0.7148,-0.7108,-0.7055,-0.6982,-0.694,-0.692,-0.692,-0.692,-0.7696,-0.9225,-0.9273,-0.93,-0.93,-0.93,-0.9381,-0.2118,0.0,0.0,0.0,0.0,0.0,0.0,0.0,0.0,0.0,0.0,0.0,0.0,0.0,0.0,0.0,0.0,0.1617,0.1617,0.1626,0.1639,0.166,0.1653,0.1654,0.1675,0.165,0.1633,0.1633,0.1623,0.0,0.1617,0.1617,0.1617,0.1617,0.1617,0.1617,0.1617,0.1617,0.1617,0.1617,0.1314,0.1212,0.1212,0.0404,-0.0101,-0.0404,-0.1009,-0.1008,-0.0806,-0.0806,-0.1008,-0.121,-0.121,-0.1727,-0.2467,-0.2467,-0.2817,-0.341,-0.3431,-0.3465,-0.3501,-0.374,-0.3799,-0.3837,-0.4367,-0.4607,-0.4741,-0.5248,-0.5798,-0.626,-0.6446,-0.6764,-0.6942,-0.7024,-0.71,-0.7154,-0.7154,-0.7187,-0.7217,-0.7217,-0.7244,-0.7364,-0.7364,-0.6807,-0.6317,-0.6317,-0.6623,-0.6046,-0.3566,-0.4556,-0.5423,-0.5047,-0.5412,-0.5533,-0.5533,-0.5776,-0.5872,-0.5816,-0.5812,-0.5784,-0.5604,-0.5602,-0.5602,-0.5602,-0.5602,-0.6432,-0.8216,-0.8175,-0.8157,-0.8157,-0.8157,-0.8204,0.0,0.0,0.0,0.0,0.0,0.0,0.0,0.0,0.0,0.0,0.0,0.0,0.0,0.0,0.0,0.0,0.1618,0.1619,0.162,0.1644,0.1663,0.1665,0.1688,0.1705,0.1705,0.168,0.1664,0.1664,0.1636,0.1619,0.1618,0.1617,0.1617,0.1617,0.1617,0.1617,0.1617,0.1617,0.1617,0.1617,0.0808,0.0404,0.0404,-0.0504,-0.131,-0.2017,-0.2017,-0.1613,-0.0907,-0.0907,-0.131,-0.2017,-0.2017,-0.2522,-0.323,-0.323,-0.3232,-0.3241,-0.3304,-0.3324,-0.3438,-0.4029,-0.4261,-0.447,-0.5002,-0.553,-0.5974,-0.6194,-0.6552,-0.7013,-0.7124,-0.7154,-0.7154,-0.7154,-0.7154,-0.7157,-0.716,-0.7255,-0.7339,-0.7336,-0.7423,-0.7592,-0.7472,-0.5483,-0.3815,-0.3815,-0.4435,-0.4438,-0.3445,-0.3942,-0.4684,-0.5293,-0.5535,-0.578,-0.5782,-0.578,-0.5778,-0.5778,-0.5776,-0.5774,-0.5774,-0.5774,-0.5774,-0.5774,-0.5774,-0.5774,-0.5774,-0.5694,-0.5654,-0.5654,-0.5654,-0.5654,-0.2927,0.0,0.0,0.0,0.0,0.0,0.0,0.0,0.0,0.0,0.0,0.0,0.0,0.0,0.0,0.1649,0.165,0.1656,0.1677,0.1669,0.1678,0.172,0.1713,0.1713,0.1735,0.171,0.1692,0.0,0.1684,0.1671,0.1651,0.1628,0.1617,0.1617,0.1617,0.1617,0.1617,0.1617,0.1617,0.1617,0.0808,0.0404,0.0303,-0.1009,-0.1815,-0.2017,-0.2623,-0.2725,-0.2522,-0.2522,-0.2623,-0.2826,-0.2826,-0.3027,-0.323,-0.323,-0.3259,-0.3305,-0.3367,-0.3598,-0.403,-0.4209,-0.448,-0.4812,-0.551,-0.5796,-0.5984,-0.6603,-0.6875,-0.7013,-0.7124,-0.7154,-0.7154,-0.7154,-0.7154,-0.7179,-0.7266,-0.7383,-0.7442,-0.7353,-0.7429,-0.6873,-0.505,-0.2682,-0.1357,-0.2344,-0.2716,-0.2716,-0.2344,-0.2591,-0.2726,-0.2878,-0.3005,-0.3143,-0.3178,-0.3149,-0.313,-0.313,-0.3099,-0.3082,-0.3082,-0.3082,-0.3082,-0.3082,-0.3082,-0.3082,-0.3082,-0.4899,-0.5861,-0.5861,-0.5861,-0.5861,0.0,0.0,0.0,0.0,0.0,0.0,0.0101,0.0404,0.0607,0.0,0.1636,0.0,0.0,0.0,0.1678,0.1696,0.1699,0.17,0.1704,0.1701,0.1712,0.1746,0.1745,0.1749,0.1767,0.1741,0.1723,0.1723,0.1712,0.1692,0.1664,0.1645,0.163,0.1617,0.1617,0.1617,0.1617,0.1617,0.1415,0.1111,0.0303,-0.0303,-0.0606,-0.1917,-0.2522,-0.2522,-0.3027,-0.323,-0.323,-0.323,-0.323,-0.323,-0.323,-0.323,-0.323,-0.323,-0.3354,-0.36,-0.3665,-0.4108,-0.4535,-0.4796,-0.511,-0.551,-0.6054,-0.626,-0.6389,-0.6893,-0.7056,-0.707,-0.7138,-0.7154,-0.7154,-0.7154,-0.7154,-0.7173,-0.7244,-0.7399,-0.7402,-0.738,-0.7544,-0.719,-0.56,-0.2821,-0.1111,-0.1853,-0.1977,-0.1977,-0.1977,-0.1977,-0.1983,-0.1999,-0.2011,-0.2021,-0.2027,-0.2022,-0.2014,-0.2002,-0.1986,-0.1977,-0.1977,-0.1977,-0.1977,-0.1977,-0.1977,-0.1977,-0.1977,-0.3573,-0.4307,-0.4307,-0.4307,-0.4307,0.0,0.0,0.0,0.0,0.0,0.0,-0.0202,0.0101,0.0406,0.1238,0.145,0.0,0.0,0.1716,0.1737,0.1744,0.1745,0.1737,0.1717,0.1735,0.1751,0.1754,0.1778,0.1795,0.1795,0.177,0.1755,0.1755,0.1727,0.1698,0.1673,0.1666,0.165,0.1623,0.1619,0.1617,0.1617,0.1617,0.1212,0.0404,-0.0403,-0.121,-0.2017,-0.2826,-0.323,-0.323,-0.323,-0.323,-0.323,-0.323,-0.323,-0.323,-0.323,-0.323,-0.3331,-0.334,-0.3643,-0.4159,-0.4245,-0.4685,-0.5195,-0.5723,-0.6059,-0.63,-0.6746,-0.6899,-0.701,-0.7122,-0.7146,-0.7138,-0.7152,-0.7143,-0.7138,-0.7152,-0.7157,-0.7163,-0.7173,-0.7249,-0.7333,-0.7332,-0.758,-0.7795,-0.756,-0.445,-0.1977,-0.1977,-0.1977,-0.1977,-0.1977,-0.1977,-0.1977,-0.1981,-0.2003,-0.2009,-0.1988,-0.2006,-0.2007,-0.1983,-0.1978,-0.1977,-0.1977,-0.1977,-0.1977,-0.1977,-0.1977,-0.1977,-0.1977,-0.1977,-0.1977,-0.1977,-0.1977,-0.1977,0.0,0.0,0.0,0.0,0.0,0.0,-0.1715,-0.1513,-0.1313,0.0,0.0203,0.061,0.0612,0.1229,0.1658,0.1705,0.1713,0.1728,0.1771,0.1761,0.1759,0.1783,0.1791,0.1795,0.1795,0.179,0.1787,0.1787,0.1758,0.1738,0.1733,0.1688,0.166,0.1654,0.163,0.1617,0.1617,0.1617,0.1212,0.0404,-0.0403,-0.121,-0.2017,-0.2826,-0.323,-0.323,-0.323,-0.323,-0.323,-0.323,-0.323,-0.323,-0.323,-0.3432,-0.384,-0.4,-0.433,-0.4864,-0.5022,-0.5352,-0.5833,-0.6024,-0.6343,-0.6746,-0.6926,-0.6967,-0.701,-0.7122,-0.7089,-0.7037,-0.713,-0.7086,-0.7043,-0.7133,-0.7165,-0.7201,-0.7293,-0.7322,-0.6874,-0.5656,-0.6736,-0.7431,-0.5806,-0.3581,-0.1977,-0.1977,-0.1977,-0.1977,-0.1977,-0.1977,-0.1986,-0.2008,-0.2016,-0.2026,-0.2046,-0.2029,-0.2016,-0.2011,-0.1989,-0.1977,-0.1977,-0.1977,-0.1977,-0.1977,-0.1977,-0.1977,-0.1977,-0.1977,-0.1977,-0.1977,-0.1977,-0.1977,0.0,0.0,0.0,-0.323,0.0,0.0,0.0,-0.2017,-0.1815,-0.1008,-0.0504,-0.0202,-0.0202,0.0,0.0412,0.0419,0.0853,0.1086,0.1105,0.1551,0.1778,0.1793,0.1795,0.1795,0.1795,0.1795,0.1795,0.1795,0.1781,0.1765,0.175,0.1707,0.1677,0.1662,0.1633,0.1617,0.1617,0.1212,0.0606,-0.0202,-0.1009,-0.1815,-0.2623,-0.3027,-0.323,-0.323,-0.323,-0.323,-0.323,-0.3531,-0.3632,-0.3632,-0.3632,-0.3732,-0.4043,-0.4426,-0.4971,-0.541,-0.5714,-0.6077,-0.6473,-0.6531,-0.6764,-0.6978,-0.6983,-0.7024,-0.7081,-0.7138,-0.7114,-0.7084,-0.7141,-0.7111,-0.7086,-0.7152,-0.7176,-0.6873,-0.5718,-0.6408,-0.6764,-0.5056,-0.4892,-0.4573,-0.3209,-0.247,-0.1977,-0.1977,-0.1977,-0.1977,-0.1977,-0.1977,-0.1981,-0.1996,-0.201,-0.2024,-0.2039,-0.2041,-0.2035,-0.202,-0.2005,-0.1991,-0.1977,-0.1977,-0.1977,-0.1977,-0.1977,-0.1977,-0.1977,-0.1977,-0.1977,-0.1977,-0.1977,-0.1977,0.0,0.0,0.0,0.0,0.0,-0.3029,0.0,0.0,0.0,0.0,0.0,0.0,0.0,0.0,0.0,0.0,0.0,0.0,0.0,0.0883,0.0,0.1794,0.1795,0.1795,0.1795,0.1795,0.1795,0.1795,0.1795,0.1784,0.176,0.1724,0.1694,0.1671,0.1636,0.1617,0.1617,0.0808,-0.0,-0.0806,-0.1613,-0.2422,-0.323,-0.3331,-0.3331,-0.3331,-0.3432,-0.3531,-0.3531,-0.3932,-0.4133,-0.4133,-0.4133,-0.4234,-0.4343,-0.4939,-0.5498,-0.6063,-0.6263,-0.6673,-0.7018,-0.7018,-0.7081,-0.7133,-0.7018,-0.7065,-0.7154,-0.7154,-0.7138,-0.7127,-0.7149,-0.7138,-0.7135,-0.7173,-0.7203,-0.6564,-0.4236,-0.5024,-0.5835,-0.4335,-0.2934,-0.1853,-0.1235,-0.1606,-0.1977,-0.1977,-0.1977,-0.1977,-0.1977,-0.1977,-0.1977,-0.1977,-0.1996,-0.201,-0.201,-0.2038,-0.2042,-0.2012,-0.2016,-0.2006,-0.1977,-0.1977,-0.1977,-0.1977,-0.1977,-0.1977,-0.1977,-0.1977,-0.1977,-0.1977,-0.1977,-0.1977,0.0,0.0,0.0,0.0,-0.323,0.0,0.0,0.0,-0.3029,-0.2927,0.0,0.0,0.0,0.0,0.0,0.0,0.0,0.0,-0.0534,-0.0542,0.011,0.1567,0.1795,0.1795,0.1795,0.1795,0.1795,0.1795,0.1795,0.1793,0.179,0.1735,0.1703,0.1699,0.1646,0.1617,0.1617,0.0808,-0.0,-0.0806,-0.1613,-0.2422,-0.323,-0.3732,-0.3932,-0.3932,-0.4435,-0.4634,-0.4634,-0.4734,-0.4734,-0.4734,-0.4734,-0.5035,-0.5448,-0.5653,-0.6167,-0.6695,-0.6829,-0.7051,-0.7135,-0.7135,-0.7143,-0.7133,-0.7018,-0.7065,-0.7154,-0.7154,-0.7084,-0.7027,-0.7127,-0.7084,-0.6934,-0.7154,-0.7164,-0.6675,-0.4831,-0.3535,-0.253,-0.2292,-0.2078,-0.1977,-0.1853,-0.1977,-0.1977,-0.1977,-0.1977,-0.1977,-0.1977,-0.1977,-0.1977,-0.1977,-0.1979,-0.1981,-0.1981,-0.2007,-0.2011,-0.1983,-0.2005,-0.2006,-0.1977,-0.1977,-0.1977,-0.1977,-0.1977,-0.1977,-0.1977,-0.1977,-0.1977,-0.1977,-0.1977,-0.1977,0.0,0.0,0.0,0.0,0.0,0.0,-0.323,0.0,-0.323,0.0,0.0,0.0,0.0,0.0,0.0,0.0,-0.1866,0.0,0.0,0.0,-0.0432,0.0,0.0,0.0,0.0896,0.1009,0.1234,0.1795,0.1346,0.1234,0.1795,0.1754,0.1722,0.1705,0.1143,0.0918,0.0909,-0.0706,-0.1612,-0.2015,-0.3123,-0.3828,-0.4133,-0.4332,-0.4433,-0.4433,-0.4734,-0.4834,-0.4834,-0.5135,-0.5236,-0.5336,-0.5636,-0.5634,-0.5648,-0.6062,-0.649,-0.682,-0.6942,-0.7059,-0.7154,-0.7154,-0.7154,-0.7146,-0.7097,-0.7116,-0.7154,-0.7154,-0.7122,-0.7097,-0.7154,-0.7138,-0.6785,-0.5824,-0.5686,-0.5079,-0.3026,-0.2257,-0.2057,-0.1954,-0.1968,-0.1977,-0.1977,-0.1977,-0.1977,-0.1977,-0.1977,-0.1977,-0.1977,-0.1977,-0.1977,-0.1977,-0.1977,-0.1983,-0.1999,-0.2028,-0.2039,-0.2028,-0.2038,-0.2032,-0.2002,-0.2001,-0.1993,-0.1977,-0.1977,-0.1977,-0.1977,-0.1977,-0.1977,-0.1977,-0.1977,-0.1977,-0.323,0.0,0.0,0.0,0.0,0.0,0.0,0.0,0.0,0.0,0.0,0.0,0.0,0.0,0.0,0.0,0.0,-0.2399,0.0,-0.1887,0.0,0.0,0.0,0.0,0.0,-0.0,0.0445,0.1217,0.0666,0.0557,0.1002,0.1541,0.1522,0.0965,0.084,0.0309,-0.0407,-0.2022,-0.282,-0.302,-0.4228,-0.4834,-0.4834,-0.4935,-0.5035,-0.5035,-0.5135,-0.5236,-0.5236,-0.5634,-0.5834,-0.5837,-0.6237,-0.6137,-0.5849,-0.6371,-0.6698,-0.682,-0.6942,-0.7059,-0.7149,-0.7119,-0.713,-0.7149,-0.7119,-0.713,-0.7154,-0.7154,-0.7154,-0.716,-0.7179,-0.6616,-0.5835,-0.4739,-0.4233,-0.3372,-0.1655,-0.1681,-0.195,-0.1973,-0.1977,-0.1977,-0.1977,-0.1977,-0.1977,-0.1977,-0.1977,-0.1979,-0.1987,-0.1988,-0.1988,-0.1988,-0.1988,-0.1996,-0.2017,-0.2046,-0.2067,-0.2076,-0.2068,-0.2054,-0.2032,-0.2031,-0.2021,-0.2001,-0.2001,-0.1996,-0.1988,-0.1988,-0.1984,-0.1977,-0.1977,-0.1977,0.0,0.0,0.0,-0.3304,0.0,0.0,0.0,0.0,-0.3319,0.0,0.0,0.0,0.0,0.0,0.0,0.0,0.0,0.0,0.0,0.0,0.0,0.0,0.0,0.0,0.0,-0.1093,-0.0543,0.0107,0.0108,-0.0219,-0.1092,0.0765,0.0874,-0.109,0.0634,0.0208,-0.2592,-0.2648,-0.3024,-0.362,-0.4429,-0.4834,-0.4834,-0.5334,-0.5534,-0.5636,-0.6134,-0.6337,-0.6337,-0.6337,-0.6337,-0.6337,-0.6437,-0.6437,-0.635,-0.6573,-0.6698,-0.682,-0.6942,-0.7059,-0.7135,-0.7027,-0.7065,-0.7133,-0.7024,-0.7067,-0.7154,-0.7154,-0.7154,-0.716,-0.7179,-0.515,-0.3371,-0.4349,-0.3259,-0.201,-0.1923,-0.1954,-0.1975,-0.1976,-0.1977,-0.1977,-0.1977,-0.1977,-0.1977,-0.1977,-0.1977,-0.1986,-0.2014,-0.2017,-0.2017,-0.2017,-0.2017,-0.2018,-0.2018,-0.2046,-0.2076,-0.2106,-0.208,-0.2063,-0.2063,-0.2063,-0.2062,-0.2061,-0.2061,-0.2046,-0.2017,-0.2017,-0.2003,-0.1977,-0.1977,-0.1977,0.0,0.0,-0.3245,-0.3307,0.0,0.0,0.0,0.0,0.0,0.0,0.0,0.0,0.0,0.0,0.0,0.0,0.0,0.0,0.0,0.0,0.0,0.0,0.0,0.0,0.0,0.0,-0.2275,-0.1065,-0.1497,-0.151,-0.109,-0.1747,-0.1965,-0.1637,-0.1834,-0.2439,-0.3417,-0.4321,-0.479,-0.4929,-0.5534,-0.5837,-0.5837,-0.6034,-0.6134,-0.6134,-0.6337,-0.6437,-0.6437,-0.6437,-0.6437,-0.6437,-0.6437,-0.6437,-0.6442,-0.6483,-0.6575,-0.6711,-0.6915,-0.7059,-0.7149,-0.7108,-0.7124,-0.7146,-0.7108,-0.7124,-0.7265,-0.7382,-0.7493,-0.7271,-0.627,-0.4474,-0.2919,-0.2862,-0.2329,-0.1894,-0.1924,-0.1955,-0.1977,-0.1977,-0.1977,-0.1982,-0.2001,-0.2004,-0.2004,-0.2004,-0.2022,-0.2037,-0.2048,-0.2048,-0.2048,-0.2048,-0.2048,-0.2048,-0.2048,-0.2076,-0.2107,-0.2138,-0.2129,-0.2115,-0.2095,-0.2094,-0.2084,-0.2064,-0.2064,-0.2059,-0.2048,-0.2048,-0.2044,-0.2034,-0.2014,-0.1994,-0.323,-0.323,0.0,-0.3334,-0.3338,0.0,-0.3424,0.0,-0.3443,0.0,0.0,0.0,0.0,0.0,0.0,0.0,0.0,0.0,0.0,-0.4987,-0.5471,-0.6095,-0.5084,0.0,0.0,-0.398,-0.3616,-0.2924,-0.336,-0.3505,0.0,-0.37,-0.3943,-0.3744,-0.46,-0.4955,-0.4808,-0.5712,-0.6052,-0.5934,-0.6237,-0.6437,-0.6437,-0.6437,-0.6437,-0.6437,-0.6437,-0.6437,-0.6437,-0.6437,-0.6437,-0.6437,-0.6437,-0.6437,-0.6442,-0.6486,-0.6605,-0.6774,-0.6931,-0.7059,-0.7154,-0.7154,-0.7265,-0.7379,-0.7379,-0.7379,-0.7388,-0.7209,-0.719,-0.6945,-0.5868,-0.4403,-0.2833,-0.208,-0.188,-0.191,-0.1941,-0.1962,-0.1977,-0.1977,-0.1977,-0.1986,-0.2014,-0.2027,-0.2031,-0.202,-0.2044,-0.2064,-0.2064,-0.2074,-0.208,-0.208,-0.208,-0.208,-0.208,-0.2108,-0.2133,-0.2153,-0.2155,-0.2146,-0.2126,-0.2125,-0.2121,-0.2112,-0.2101,-0.2096,-0.2096,-0.2085,-0.2074,-0.2063,-0.2054,-0.2029]},{"header":{"parameterUnit":"m.s-1","parameterCategory":1,"la1":30.6,"la2":29.2853,"lo1":-89.7004,"lo2":-87.6739,"dy":0.0162,"dx":0.0183,"nx":112,"ny":82,"refTime":"2023-07-20T12:00:00:Z","depth":0,"parameterNumber":3,"parameterNumberName":"V-component_of_WINDS"},"data":[0.0,0.0,0.0,0.0,0.0,0.0,0.0,0.0,0.0,0.0,0.0,0.0,0.0,0.0,0.0,0.0,0.0,0.0,0.0,0.0,0.0,0.0,0.0,0.0,0.0,0.0,0.0,0.0,0.0,0.0,0.0,0.0,0.0,0.0,0.0,0.0,0.0,0.0,0.0,0.0,0.0,0.0,0.0,0.0,0.0,0.0,0.0,0.0,0.0,0.0,0.0,0.0,0.0,0.0,0.0,0.0,0.0,0.0,0.0,0.0,0.0,0.0,0.0,0.0,0.0,0.0,0.0,0.0,0.0,0.0,0.0,0.0,0.0,0.0,0.0,0.0,0.0,0.0,0.0,0.0,0.0,0.0,0.0,0.0,0.0,0.0,0.0,0.0,0.0,0.0,-3.524,-3.5059,-3.4648,-3.4346,-3.4197,-3.4197,-3.4409,-3.4831,0.0,0.0,0.0,0.0,0.0,0.0,0.0,0.0,0.0,0.0,0.0,0.0,0.0,0.0,0.0,0.0,0.0,0.0,0.0,0.0,0.0,0.0,0.0,0.0,0.0,0.0,0.0,0.0,0.0,0.0,0.0,0.0,0.0,0.0,0.0,0.0,0.0,0.0,0.0,0.0,0.0,0.0,0.0,0.0,0.0,0.0,0.0,0.0,0.0,0.0,0.0,0.0,0.0,0.0,0.0,0.0,0.0,0.0,0.0,0.0,0.0,0.0,0.0,0.0,0.0,0.0,0.0,0.0,0.0,0.0,0.0,0.0,0.0,0.0,0.0,0.0,0.0,0.0,0.0,0.0,0.0,0.0,0.0,0.0,0.0,0.0,0.0,0.0,0.0,0.0,0.0,0.0,0.0,0.0,0.0,0.0,0.0,0.0,0.0,0.0,0.0,0.0,0.0,0.0,-3.5752,-3.5663,-3.545,-3.4996,-3.4253,-3.4197,-3.434,-3.4626,0.0,0.0,0.0,0.0,0.0,0.0,0.0,0.0,0.0,0.0,0.0,0.0,0.0,0.0,0.0,0.0,0.0,0.0,0.0,0.0,0.0,0.0,0.0,0.0,0.0,0.0,0.0,0.0,0.0,0.0,0.0,0.0,0.0,0.0,0.0,0.0,0.0,0.0,0.0,0.0,0.0,0.0,0.0,0.0,0.0,0.0,0.0,0.0,0.0,0.0,0.0,0.0,0.0,0.0,0.0,0.0,0.0,0.0,0.0,0.0,0.0,0.0,0.0,0.0,0.0,0.0,0.0,0.0,0.0,0.0,0.0,0.0,0.0,0.0,0.0,0.0,0.0,0.0,0.0,0.0,0.0,0.0,0.0,0.0,0.0,0.0,0.0,0.0,0.0,0.0,0.0,0.0,0.0,0.0,0.0,0.0,0.0,0.0,0.0,0.0,0.0,0.0,0.0,-3.6392,-3.6291,-3.5693,-3.5553,-3.5144,-3.4271,-3.434,-3.4517,-3.4751,-3.5306,0.0,0.0,0.0,0.0,0.0,0.0,0.0,0.0,0.0,0.0,0.0,0.0,0.0,0.0,0.0,0.0,0.0,0.0,0.0,0.0,0.0,0.0,0.0,0.0,0.0,0.0,0.0,0.0,0.0,0.0,0.0,0.0,0.0,0.0,0.0,0.0,0.0,0.0,0.0,0.0,0.0,0.0,0.0,0.0,0.0,0.0,0.0,0.0,0.0,0.0,0.0,0.0,0.0,0.0,0.0,0.0,0.0,0.0,0.0,0.0,0.0,0.0,0.0,0.0,0.0,0.0,0.0,0.0,0.0,0.0,0.0,0.0,0.0,0.0,0.0,0.0,0.0,0.0,0.0,0.0,0.0,0.0,0.0,0.0,0.0,0.0,0.0,0.0,0.0,0.0,0.0,0.0,0.0,0.0,0.0,0.0,0.0,0.0,0.0,0.0,0.0,0.0,-3.7122,-3.6962,-3.6136,-3.6055,-3.572,-3.4847,-3.4815,-3.4905,-3.5094,-3.5114,0.0,0.0,0.0,0.0,0.0,0.0,0.0,0.0,0.0,0.0,0.0,0.0,0.0,0.0,0.0,0.0,0.0,0.0,0.0,0.0,0.0,0.0,0.0,0.0,0.0,0.0,0.0,0.0,0.0,0.0,0.0,0.0,0.0,0.0,0.0,0.0,0.0,0.0,0.0,0.0,0.0,0.0,0.0,0.0,0.0,0.0,0.0,0.0,0.0,0.0,0.0,0.0,0.0,0.0,0.0,0.0,0.0,0.0,0.0,0.0,0.0,0.0,0.0,0.0,0.0,0.0,0.0,0.0,0.0,0.0,0.0,0.0,0.0,0.0,0.0,0.0,0.0,0.0,0.0,0.0,0.0,0.0,0.0,0.0,0.0,0.0,0.0,0.0,0.0,0.0,0.0,0.0,0.0,0.0,0.0,0.0,0.0,0.0,0.0,0.0,0.0,0.0,-3.753,-3.8028,-3.7753,-3.7726,-3.7392,-3.6593,-3.5857,-3.5515,-3.5728,-3.5227,0.0,0.0,0.0,0.0,0.0,0.0,0.0,0.0,0.0,0.0,0.0,0.0,0.0,0.0,0.0,0.0,0.0,0.0,0.0,0.0,0.0,0.0,0.0,0.0,0.0,0.0,0.0,0.0,0.0,0.0,0.0,0.0,0.0,0.0,0.0,0.0,0.0,0.0,0.0,0.0,0.0,0.0,0.0,0.0,0.0,0.0,0.0,0.0,0.0,0.0,0.0,0.0,0.0,0.0,0.0,0.0,0.0,0.0,0.0,0.0,0.0,0.0,0.0,0.0,0.0,0.0,0.0,0.0,0.0,0.0,0.0,0.0,0.0,0.0,0.0,0.0,0.0,0.0,0.0,0.0,0.0,0.0,0.0,0.0,0.0,0.0,0.0,0.0,0.0,0.0,0.0,0.0,0.0,0.0,0.0,0.0,0.0,0.0,0.0,0.0,0.0,0.0,-3.8215,-3.854,0.0,-3.7894,-3.762,-3.6937,-3.6727,-3.6489,-3.6179,0.0,0.0,0.0,0.0,0.0,0.0,0.0,0.0,0.0,0.0,0.0,0.0,0.0,0.0,0.0,0.0,0.0,0.0,0.0,0.0,0.0,0.0,0.0,0.0,0.0,0.0,0.0,0.0,0.0,0.0,0.0,0.0,0.0,0.0,0.0,0.0,0.0,0.0,0.0,0.0,0.0,0.0,0.0,0.0,0.0,0.0,0.0,0.0,0.0,0.0,0.0,0.0,0.0,0.0,0.0,0.0,0.0,0.0,0.0,0.0,0.0,0.0,0.0,0.0,0.0,0.0,0.0,0.0,0.0,0.0,0.0,0.0,0.0,0.0,0.0,0.0,0.0,0.0,0.0,0.0,0.0,0.0,0.0,0.0,0.0,0.0,0.0,0.0,0.0,0.0,0.0,0.0,0.0,0.0,0.0,0.0,0.0,0.0,0.0,0.0,0.0,0.0,-3.756,-3.8468,-3.896,0.0,-3.8458,-3.8265,-3.7909,-3.7761,-3.7471,-3.6854,0.0,0.0,0.0,0.0,0.0,0.0,0.0,0.0,0.0,0.0,0.0,0.0,0.0,0.0,0.0,0.0,0.0,0.0,0.0,0.0,0.0,0.0,0.0,0.0,0.0,0.0,0.0,0.0,0.0,0.0,0.0,0.0,0.0,0.0,0.0,0.0,0.0,0.0,0.0,0.0,0.0,0.0,0.0,0.0,0.0,0.0,0.0,0.0,0.0,0.0,0.0,0.0,0.0,0.0,0.0,0.0,0.0,0.0,0.0,0.0,0.0,0.0,0.0,0.0,0.0,0.0,0.0,0.0,0.0,0.0,0.0,0.0,0.0,0.0,0.0,0.0,0.0,0.0,0.0,0.0,0.0,0.0,0.0,0.0,0.0,0.0,0.0,0.0,0.0,0.0,0.0,0.0,0.0,0.0,0.0,0.0,0.0,0.0,0.0,0.0,0.0,0.0,-3.708,-3.8226,-3.9261,-3.9754,-3.9632,-3.9585,-3.9797,-3.9079,-3.8345,0.0,0.0,0.0,0.0,0.0,0.0,0.0,0.0,0.0,0.0,0.0,0.0,0.0,0.0,0.0,0.0,0.0,0.0,0.0,0.0,0.0,0.0,0.0,0.0,0.0,0.0,0.0,0.0,0.0,0.0,0.0,0.0,0.0,0.0,0.0,0.0,0.0,0.0,0.0,0.0,0.0,0.0,0.0,0.0,0.0,0.0,0.0,0.0,0.0,0.0,0.0,0.0,0.0,0.0,0.0,0.0,0.0,0.0,0.0,0.0,0.0,0.0,0.0,0.0,0.0,0.0,0.0,0.0,0.0,0.0,0.0,0.0,0.0,0.0,0.0,0.0,0.0,0.0,0.0,0.0,0.0,0.0,0.0,0.0,0.0,0.0,0.0,0.0,0.0,0.0,0.0,0.0,0.0,0.0,0.0,0.0,0.0,0.0,0.0,0.0,0.0,0.0,0.0,-3.7028,-3.8402,-3.9489,-3.9775,-3.9632,-3.9675,-4.0042,-3.9853,-3.9202,-3.7923,0.0,0.0,0.0,0.0,0.0,0.0,0.0,0.0,0.0,0.0,0.0,0.0,0.0,0.0,0.0,0.0,0.0,0.0,0.0,0.0,0.0,0.0,0.0,0.0,0.0,0.0,0.0,0.0,0.0,0.0,0.0,0.0,0.0,0.0,0.0,0.0,0.0,0.0,0.0,0.0,0.0,0.0,0.0,0.0,0.0,0.0,0.0,0.0,0.0,0.0,0.0,0.0,0.0,0.0,0.0,0.0,0.0,0.0,0.0,0.0,0.0,0.0,0.0,0.0,0.0,0.0,0.0,0.0,0.0,0.0,0.0,0.0,0.0,0.0,0.0,0.0,0.0,0.0,0.0,0.0,0.0,0.0,0.0,0.0,0.0,0.0,0.0,0.0,0.0,0.0,0.0,0.0,0.0,0.0,0.0,0.0,0.0,0.0,0.0,0.0,0.0,0.0,-3.7165,-3.8595,-3.9728,-4.0062,-3.9901,-3.992,-4.0286,-4.0323,-3.9632,-3.8005,0.0,0.0,0.0,0.0,0.0,0.0,0.0,0.0,0.0,0.0,0.0,0.0,0.0,0.0,0.0,0.0,0.0,0.0,0.0,0.0,0.0,0.0,0.0,0.0,0.0,0.0,0.0,0.0,0.0,0.0,0.0,0.0,0.0,0.0,0.0,0.0,0.0,0.0,0.0,0.0,0.0,0.0,0.0,0.0,0.0,0.0,0.0,0.0,0.0,0.0,0.0,0.0,0.0,0.0,0.0,0.0,0.0,0.0,0.0,0.0,0.0,0.0,0.0,0.0,0.0,0.0,0.0,0.0,0.0,0.0,0.0,0.0,0.0,0.0,0.0,0.0,0.0,0.0,0.0,0.0,0.0,0.0,0.0,0.0,0.0,0.0,0.0,0.0,0.0,0.0,0.0,0.0,0.0,0.0,0.0,0.0,0.0,0.0,0.0,0.0,0.0,0.0,-3.7373,-3.8835,-4.0023,-4.0438,-4.0321,-4.0286,-4.0489,-4.0495,-3.9791,-3.812,0.0,0.0,0.0,0.0,0.0,0.0,0.0,0.0,0.0,0.0,0.0,0.0,0.0,0.0,0.0,0.0,0.0,0.0,0.0,0.0,0.0,0.0,0.0,0.0,0.0,0.0,0.0,0.0,0.0,0.0,0.0,0.0,0.0,0.0,0.0,0.0,0.0,0.0,0.0,0.0,0.0,0.0,0.0,0.0,0.0,0.0,0.0,0.0,0.0,0.0,0.0,0.0,0.0,0.0,0.0,0.0,0.0,0.0,0.0,0.0,-4.0095,0.0,0.0,0.0,0.0,0.0,0.0,0.0,0.0,0.0,0.0,0.0,0.0,0.0,0.0,0.0,0.0,0.0,0.0,0.0,0.0,0.0,0.0,0.0,0.0,0.0,0.0,0.0,0.0,0.0,0.0,0.0,0.0,0.0,0.0,0.0,0.0,0.0,0.0,0.0,0.0,0.0,-3.7393,-3.8994,-4.0213,-4.0473,-4.0321,-4.0286,-4.0489,-4.0495,-4.0024,-3.8917,-3.8843,0.0,0.0,0.0,0.0,0.0,0.0,0.0,0.0,0.0,0.0,0.0,0.0,0.0,0.0,0.0,0.0,0.0,0.0,0.0,0.0,0.0,0.0,0.0,0.0,0.0,0.0,0.0,0.0,0.0,0.0,0.0,0.0,0.0,0.0,0.0,0.0,0.0,0.0,0.0,0.0,0.0,0.0,0.0,0.0,0.0,0.0,0.0,0.0,0.0,0.0,0.0,0.0,0.0,0.0,0.0,0.0,0.0,0.0,0.0,0.0,-4.1513,0.0,0.0,0.0,0.0,0.0,0.0,0.0,0.0,0.0,0.0,0.0,0.0,0.0,0.0,0.0,0.0,0.0,0.0,0.0,0.0,0.0,0.0,0.0,0.0,0.0,0.0,0.0,0.0,0.0,0.0,0.0,0.0,0.0,0.0,0.0,0.0,0.0,0.0,0.0,0.0,-3.7981,-3.9356,-4.0372,-4.0489,-4.0408,-4.0392,-4.0495,-4.0482,-4.0068,-3.9172,-3.908,0.0,0.0,0.0,0.0,0.0,0.0,0.0,0.0,0.0,0.0,0.0,0.0,0.0,0.0,0.0,0.0,0.0,0.0,0.0,0.0,0.0,0.0,0.0,0.0,0.0,0.0,0.0,0.0,0.0,0.0,0.0,0.0,0.0,0.0,0.0,0.0,0.0,0.0,0.0,0.0,0.0,0.0,0.0,0.0,0.0,0.0,0.0,0.0,0.0,0.0,0.0,0.0,0.0,-4.0994,-4.1291,-4.1788,-4.1737,-4.1783,-4.1912,-4.2175,-4.2637,-4.3109,-4.212,0.0,0.0,0.0,0.0,0.0,0.0,0.0,0.0,0.0,0.0,0.0,0.0,0.0,0.0,0.0,0.0,0.0,0.0,0.0,0.0,0.0,0.0,0.0,0.0,-4.1813,-4.1627,-4.0958,0.0,0.0,0.0,0.0,0.0,0.0,0.0,0.0,0.0,0.0,0.0,-3.8667,-3.9731,-4.0489,-4.0508,-4.0508,-4.0495,-4.0482,-4.0432,-4.0074,-3.9348,-3.9276,-3.8897,0.0,0.0,0.0,0.0,0.0,0.0,0.0,0.0,0.0,0.0,0.0,0.0,0.0,0.0,0.0,0.0,0.0,0.0,0.0,0.0,0.0,0.0,0.0,0.0,0.0,0.0,0.0,0.0,0.0,0.0,0.0,0.0,-4.0353,-4.0469,0.0,0.0,0.0,0.0,0.0,0.0,0.0,0.0,0.0,0.0,0.0,0.0,0.0,-4.1537,-4.0776,-4.1635,-4.169,-4.0994,-4.0994,-4.0984,-4.0966,-4.0946,-4.1302,-4.1932,-4.2718,0.0,-4.3167,-4.2715,0.0,0.0,0.0,0.0,0.0,0.0,0.0,0.0,0.0,0.0,0.0,0.0,0.0,0.0,0.0,0.0,0.0,0.0,0.0,0.0,0.0,0.0,-4.247,-4.2612,-4.263,-4.2612,0.0,-4.1293,-4.0215,-4.0215,-3.9821,0.0,0.0,0.0,0.0,0.0,0.0,0.0,-3.8917,-3.9874,-4.0492,-4.0499,-4.0499,-4.0466,-4.0415,-4.0362,-4.025,-4.0154,-4.0119,-4.0081,-3.9966,-4.0081,0.0,0.0,0.0,0.0,0.0,0.0,0.0,0.0,0.0,0.0,0.0,0.0,0.0,0.0,0.0,0.0,0.0,0.0,0.0,0.0,0.0,0.0,0.0,0.0,0.0,0.0,0.0,0.0,0.0,-4.045,-4.0554,-4.0667,-4.082,-4.0961,0.0,0.0,0.0,0.0,0.0,0.0,0.0,0.0,0.0,-4.1264,-4.1537,-4.1468,-4.1052,-4.1423,-4.161,-4.161,-4.1124,-4.1092,-4.1474,-4.1435,-4.1577,-4.1885,-4.2772,-4.3142,-4.3146,-4.3349,-4.3345,-4.3202,0.0,0.0,0.0,0.0,-4.2664,-4.2765,-4.3321,-4.3332,-4.3052,-4.2779,0.0,0.0,0.0,0.0,0.0,0.0,0.0,0.0,0.0,0.0,-4.2736,-4.3324,-4.3466,-4.3466,-4.3466,-4.2575,-4.1609,0.0,-4.0868,-4.0514,-3.9928,0.0,0.0,0.0,0.0,-3.9548,-3.966,-4.0161,-4.0492,-4.0502,-4.0502,-4.0449,-4.0342,-4.0325,-4.0289,-4.0309,-4.0291,-4.0328,-4.0413,-4.0346,-4.0363,0.0,0.0,0.0,0.0,0.0,0.0,0.0,0.0,0.0,0.0,0.0,0.0,0.0,0.0,0.0,0.0,0.0,0.0,0.0,0.0,0.0,0.0,0.0,0.0,0.0,0.0,0.0,0.0,-4.0874,-4.1035,-4.115,-4.1256,-4.1334,0.0,0.0,0.0,0.0,0.0,0.0,-4.2031,-4.1443,-4.1404,-4.2048,-4.1647,-4.1271,-4.0994,-4.1227,-4.1485,-4.1752,-4.1148,-4.1131,-4.1673,-4.1622,-4.1542,-4.1527,-4.2393,-4.2777,-4.2819,-4.3483,-4.3713,-4.3596,-4.2781,-4.2534,-4.2621,-4.2894,-4.3074,-4.3265,-4.374,-4.3849,-4.3741,-4.3333,-4.3156,-4.2983,-4.2328,0.0,0.0,0.0,0.0,-4.1954,-4.2627,-4.2807,-4.3005,-4.3825,-4.4005,-4.4005,-4.4005,-4.3522,-4.2872,0.0,-4.1837,-4.1568,-4.0877,0.0,0.0,0.0,0.0,-4.0768,-4.0614,-4.0699,-4.0707,-4.0504,-4.0449,-4.0415,-4.0308,-4.0308,-4.0309,-4.031,-4.0328,-4.0396,-4.0489,-4.0396,-4.046,-4.0694,0.0,0.0,0.0,0.0,0.0,0.0,0.0,0.0,0.0,0.0,0.0,0.0,0.0,0.0,0.0,0.0,0.0,0.0,0.0,0.0,0.0,0.0,0.0,0.0,0.0,0.0,0.0,0.0,0.0,-4.2116,-4.2132,0.0,0.0,0.0,0.0,-4.1152,-4.187,-4.2,-4.1219,-4.1114,-4.1127,-4.1166,-4.1871,-4.1838,-4.1013,-4.1812,-4.1777,-4.0869,-4.0953,-4.0904,-4.0771,-4.0752,-4.0693,-4.0604,-4.1489,-4.1873,-4.1931,-4.278,-4.3003,-4.2755,-4.2697,-4.2895,-4.3096,-4.2559,-4.2718,-4.3122,-4.2664,-4.2812,-4.3238,-4.3227,-4.3529,-4.3899,-4.3586,-4.3502,0.0,0.0,-4.3468,-4.3553,-4.3818,-4.3899,-4.3918,-4.3986,-4.4005,-4.4005,-4.4005,-4.3968,-4.3677,0.0,-4.2433,-4.2152,-4.179,0.0,-4.2562,-4.2457,-4.2524,-4.2336,-4.1716,-4.1635,-4.1311,-4.0492,-4.0362,-4.0308,-4.0291,-4.031,-4.031,-4.031,-4.043,-4.0489,-4.0489,-4.0489,-4.0564,-4.0694,-4.0579,0.0,0.0,0.0,0.0,0.0,0.0,0.0,0.0,0.0,0.0,0.0,0.0,0.0,0.0,0.0,0.0,0.0,0.0,0.0,0.0,0.0,0.0,0.0,0.0,0.0,0.0,0.0,0.0,-4.3097,-4.31,0.0,-4.2401,-4.2884,-4.2873,-4.2002,-4.2731,-4.3354,-4.3596,-4.3041,-4.2961,-4.3526,-4.3273,-4.2692,-4.1781,-4.212,-4.1804,-4.0793,-4.0801,-4.0757,-4.0694,-4.0602,-4.0549,-4.0508,-4.0835,-4.1277,-4.1777,-4.1527,-4.2033,-4.2963,-4.2963,-4.335,-4.3861,-4.3474,-4.3828,-4.4444,-4.409,-4.3945,-4.3924,-4.3762,-4.3837,-4.3974,-4.3892,-4.386,-4.386,-4.386,-4.386,-4.386,-4.3974,-4.4005,-4.4005,-4.4005,-4.4005,-4.3856,-4.3336,-4.3357,-4.338,-4.3023,-4.3342,-4.3484,-4.2982,-4.3221,-4.3266,-4.2688,-4.2737,-4.2737,-4.2486,-4.2024,-4.1547,-4.1206,-4.0651,-4.0308,-4.031,-4.0381,-4.043,-4.043,-4.0564,-4.0668,-4.0742,-4.0668,-4.073,-4.0943,-4.0828,-4.073,0.0,0.0,0.0,0.0,0.0,0.0,0.0,0.0,0.0,0.0,0.0,0.0,0.0,0.0,0.0,0.0,0.0,0.0,0.0,0.0,0.0,0.0,0.0,0.0,0.0,0.0,-4.3968,-4.4036,-4.4039,-4.3844,-4.3335,-4.38,-4.3779,-4.29,-4.362,-4.4245,-4.454,-4.3941,-4.3884,-4.4478,-4.3919,-4.3303,-4.2685,-4.2696,-4.2369,-4.171,-4.1634,-4.1606,-4.1577,-4.1451,-4.1416,-4.1373,-4.1373,-4.1546,-4.1777,-4.1489,-4.1873,-4.2662,-4.2662,-4.3282,-4.4114,-4.3655,-4.3994,-4.4611,-4.4359,-4.4131,-4.4018,-4.4016,-4.4005,-4.4005,-4.4005,-4.4005,-4.4005,-4.4005,-4.4005,-4.4005,-4.4005,-4.4005,-4.3931,-4.3652,-4.3596,-4.3373,-4.2575,-4.2585,-4.2787,-4.2803,-4.3592,-4.4166,-4.3994,-4.423,-4.4246,-4.363,-4.3656,-4.3655,-4.3387,-4.2851,-4.2392,-4.2049,-4.1494,-4.1035,-4.0784,-4.0816,-4.0765,-4.0583,-4.0642,-4.0754,-4.0888,-4.0765,-4.0787,-4.103,-4.1216,-4.1422,-4.1618,0.0,0.0,0.0,0.0,0.0,0.0,0.0,0.0,0.0,0.0,0.0,0.0,0.0,0.0,0.0,0.0,0.0,0.0,0.0,0.0,0.0,0.0,0.0,-4.3654,-4.4292,-4.4871,-4.4922,-4.4933,-4.4954,-4.5009,-4.5017,-4.4687,-4.3808,-4.4489,-4.4592,-4.3788,-4.3704,-4.3708,-4.3739,-4.37,-4.3676,-4.3646,-4.3571,-4.353,-4.3449,-4.3413,-4.3343,-4.3228,-4.3208,-4.313,-4.3028,-4.3047,-4.2585,-4.1873,-4.272,-4.2585,-4.1893,-4.1854,-4.2696,-4.3825,-4.3043,-4.315,-4.3625,-4.3352,-4.3246,-4.3323,-4.3849,-4.4005,-4.4005,-4.4005,-4.4005,-4.4005,-4.4005,-4.4005,-4.3986,-4.3968,-4.3968,-4.3763,-4.2946,-4.276,-4.2567,-4.1768,-4.1754,-4.1964,-4.2252,-4.3164,-4.4088,-4.4772,-4.5223,-4.5457,-4.5418,-4.54,0.0,-4.4327,-4.4174,-4.3771,-4.2929,-4.2814,-4.2508,-4.18,-4.1605,-4.1294,-4.0778,-4.0725,-4.0784,-4.0946,-4.0815,-4.0823,-4.0985,-4.1743,-4.2558,-4.3442,0.0,0.0,0.0,0.0,0.0,0.0,0.0,0.0,0.0,0.0,0.0,0.0,0.0,0.0,0.0,0.0,0.0,0.0,0.0,0.0,0.0,0.0,-4.543,-4.4557,-4.5195,-4.5773,-4.5837,-4.5897,-4.5675,-4.5057,-4.5567,-4.5579,-4.4707,-4.5426,-4.5542,-4.4696,-4.5181,-4.521,-4.4598,-4.5162,-4.5169,-4.4558,-4.452,-4.388,-4.2634,-4.3092,-4.2679,-4.1521,-4.2632,-4.2448,-4.1324,-4.1909,-4.2027,-4.1816,-4.2066,-4.2739,-4.3547,-4.297,-4.334,-4.417,-4.3939,-4.4364,-4.4978,-4.4507,-4.4361,-4.4322,-4.4076,-4.4005,-4.4005,-4.4005,-4.4005,-4.4005,-4.4005,-4.4005,-4.3875,-4.328,-4.3132,-4.2927,-4.211,-4.2043,-4.1921,-4.1116,-4.1246,-4.1751,-4.2444,-4.2986,-4.354,-4.4268,-4.4959,-4.54,-4.5338,-4.5338,0.0,-4.5032,-4.4557,-4.4114,-4.3713,-4.3253,-4.2862,-4.2662,-4.211,-4.1776,-4.1712,-4.1265,-4.1268,-4.1894,-4.1879,-4.2163,-4.2829,-4.2985,-4.3471,0.0,0.0,0.0,0.0,0.0,0.0,0.0,0.0,0.0,0.0,0.0,0.0,0.0,0.0,0.0,0.0,0.0,0.0,0.0,0.0,0.0,0.0,-4.5674,-4.5891,-4.5417,-4.5835,-4.619,-4.6249,-4.6276,-4.6105,-4.5597,-4.6007,-4.6095,-4.5581,-4.5993,-4.6053,-4.5577,-4.5967,-4.5975,-4.5492,-4.598,-4.6002,-4.5489,-4.5456,-4.4942,-4.3934,-4.3899,-4.3391,-4.2449,-4.293,-4.2609,-4.1707,-4.2136,-4.2335,-4.2335,-4.2335,-4.2912,0.0,0.0,0.0,0.0,0.0,-4.4624,-4.4993,-4.4562,-4.4201,-4.3904,-4.3818,-4.354,-4.325,-4.3135,-4.3125,-4.3125,-4.3125,-4.3368,-4.3501,-4.2791,-4.2856,-4.2819,-4.1657,-4.1487,-4.1343,-4.0495,-4.0602,-4.1112,-4.1991,-4.2622,0.0,-4.4039,-4.4844,-4.54,-4.5359,-4.5317,-4.5319,-4.5419,-4.5052,-4.478,-4.4724,-4.4347,-4.4017,-4.3742,-4.3272,0.0,0.0,0.0,-4.2268,-4.2735,-4.2755,0.0,0.0,0.0,-4.4394,-4.5326,0.0,0.0,0.0,-4.4731,-4.4906,0.0,0.0,0.0,0.0,0.0,0.0,0.0,0.0,0.0,0.0,0.0,0.0,0.0,0.0,0.0,0.0,-4.6056,-4.6142,-4.6128,-4.6211,-4.63,-4.63,-4.63,-4.63,-4.63,-4.63,-4.63,-4.6303,-4.6237,-4.6182,-4.6163,0.0,0.0,0.0,0.0,-4.63,-4.63,-4.6234,-4.6142,-4.6033,-4.5239,-4.4696,-4.4384,-4.3691,-4.326,-4.3086,-4.3023,-4.298,-4.2983,-4.2964,-4.3025,-4.3104,-4.3104,-4.4008,-4.522,-4.4451,-4.4162,-4.4128,-4.3847,0.0,0.0,-4.3217,-4.2877,-4.2267,-4.2027,-4.195,-4.195,-4.195,-4.2502,-4.2949,-4.2319,-4.2692,-4.2844,-4.131,-4.0994,-4.0767,-4.0011,-4.0002,-4.0406,-4.1264,-4.2221,-4.3157,-4.3982,-4.4825,-4.54,-4.5379,-4.5359,-4.538,-4.5563,-4.5577,-4.5587,-4.5689,0.0,0.0,-4.4898,-4.4645,-4.4311,-4.3785,-4.3633,-4.3569,-4.3569,-4.3646,-4.4083,-4.4861,-4.488,-4.5306,-4.6196,-4.6138,-4.6093,-4.6093,-4.5723,-4.5599,0.0,0.0,0.0,0.0,0.0,0.0,0.0,0.0,0.0,0.0,0.0,0.0,0.0,0.0,0.0,-4.6038,-4.6669,-4.6918,-4.6278,-4.6246,-4.63,-4.63,-4.63,-4.63,-4.63,-4.63,-4.6303,-4.6293,-4.629,-4.5975,-4.5288,-4.5906,-4.5964,-4.5265,-4.5929,-4.63,-4.63,-4.6226,-4.5845,-4.5163,0.0,0.0,-4.2719,-4.387,-4.3666,-4.2384,-4.2313,-4.2265,-4.2215,-4.2143,-4.2517,-4.3104,-4.3104,-4.3297,-4.3566,-4.3393,-4.3335,-4.3282,-4.3025,-4.2831,-4.2676,-4.2572,-4.2423,-4.229,-4.2243,-4.22,0.0,-4.22,-4.2356,-4.23,-4.1537,-4.1442,-4.131,-4.029,-4.0229,-4.031,-4.008,-4.0252,-4.0665,-4.1473,-4.2315,-4.3193,-4.4105,-4.4882,-4.5379,-4.5317,-4.54,-4.5473,-4.5507,-4.5742,-4.5847,-4.5717,-4.5847,-4.5897,-4.5763,-4.5082,-4.4657,-4.465,-4.4623,-4.4616,-4.4616,-4.5278,-4.5745,-4.5901,-4.5901,-4.6006,-4.6196,-4.6138,-4.6093,-4.6093,-4.591,-4.5835,0.0,0.0,0.0,0.0,0.0,0.0,0.0,0.0,0.0,0.0,0.0,-4.5382,0.0,0.0,-4.6077,-4.6601,-4.6725,-4.6772,-4.6844,-4.6539,-4.63,-4.63,-4.63,-4.6303,-4.6306,-4.6303,-4.6303,-4.6309,-4.6303,-4.6105,-4.5675,-4.6066,-4.6105,-4.5656,-4.6066,-4.63,-4.63,-4.6264,-4.6021,-4.5597,-4.5571,-4.4877,-4.361,-4.3973,-4.3697,-4.286,-4.2334,-4.2334,-4.2687,-4.2668,-4.2596,-4.2498,-4.2536,-4.278,-4.3047,-4.2604,-4.245,-4.2434,-4.2293,-4.195,-4.1645,-4.1954,-4.1743,-4.138,-4.1279,-4.1238,-4.1238,-4.1238,-4.1542,-4.1677,-4.0979,-4.1113,-4.1189,-4.0349,-4.0233,-4.0307,-4.0252,-4.0325,-4.078,-4.2009,-4.2637,-4.3378,-4.4696,-4.5255,-4.5543,-4.5509,-4.5555,-4.5634,-4.5742,-4.591,-4.5977,-4.5938,-4.6047,-4.6093,-4.6093,-4.5704,-4.5476,-4.5553,-4.5553,-4.5553,-4.5553,-4.5962,-4.6196,-4.6196,-4.6196,-4.6196,-4.6196,-4.6181,-4.6146,-4.6146,-4.6056,-4.5986,0.0,0.0,0.0,0.0,0.0,0.0,0.0,0.0,-4.6137,-4.6371,-4.6364,-4.6317,-4.6377,-4.6371,-4.6539,-4.7218,-4.6785,-4.6624,-4.7416,-4.6967,-4.6554,-4.6554,-4.6397,-4.6303,-4.6293,-4.6306,-4.63,-4.63,-4.63,-4.63,-4.63,-4.63,-4.63,-4.63,-4.63,-4.63,-4.63,-4.63,-4.63,-4.628,-4.5597,-4.5168,-4.4969,-4.4211,-4.3785,-4.3565,-4.2755,-4.279,-4.3442,-4.3404,-4.3012,-4.2434,-4.2311,-4.2607,-4.2999,-4.1947,-4.1546,-4.1546,-4.1546,-4.1085,-4.0623,-4.1316,-4.1066,-4.0473,-4.0304,-4.0269,-4.0269,-4.0269,-4.0729,-4.111,-4.063,-4.0976,-4.1289,-4.0655,-4.0449,-4.0398,-4.0379,-4.0325,-4.0765,-4.2277,-4.2806,-4.3503,-4.507,-4.5578,-4.5764,-4.5717,-4.5731,-4.5835,-4.5986,-4.6017,-4.6084,-4.6189,-4.6196,-4.6196,-4.6196,-4.6196,-4.6196,-4.6196,-4.6196,-4.6196,-4.6196,-4.6196,-4.6196,-4.6196,-4.6196,-4.6196,-4.6196,-4.6196,-4.6196,-4.6196,-4.6146,-4.6084,-4.5648,-4.5819,-4.588,-4.5887,-4.5899,-4.6099,0.0,0.0,-4.7268,-4.8044,-4.8145,-4.813,-4.8186,-4.8204,-4.8029,-4.7484,-4.7301,-4.733,-4.7567,-4.7514,-4.7451,-4.7451,-4.6768,-4.63,-4.6303,-4.63,-4.63,-4.63,-4.63,-4.63,-4.63,-4.63,-4.63,-4.63,-4.63,-4.63,-4.63,-4.63,-4.63,-4.63,-4.6202,-4.5753,-4.4992,-4.4891,-4.4419,-4.3677,-4.3506,-4.35,-4.3571,-4.3441,-4.3792,-4.4316,-4.3549,-4.3222,-4.2988,-4.1262,-4.0642,-4.0642,-4.0642,-4.0566,-4.0508,-4.0604,-4.0566,-4.0489,-4.0473,-4.0473,-4.0473,-4.0473,-4.0531,-4.0588,-4.0527,-4.0572,-4.0617,-4.0521,-4.0449,-4.0379,-4.0325,-4.0307,-4.0591,-4.1627,-4.2467,-4.337,-4.4572,-4.5431,-4.5902,-4.5731,-4.5847,-4.5966,-4.5997,-4.6102,-4.6189,-4.6196,-4.6196,-4.6196,-4.6196,-4.6196,-4.6196,-4.6196,-4.6196,-4.6196,-4.6196,-4.6196,-4.6196,-4.6196,-4.6196,-4.6196,-4.6196,-4.6196,-4.6196,-4.6196,-4.6196,-4.6154,-4.5419,-4.5677,-4.5841,0.0,-4.6228,-4.672,-4.7158,-4.7611,-4.8063,-4.8412,-4.8482,-4.8474,-4.8482,-4.8503,-4.8413,0.0,-4.7664,-4.7392,-4.7519,-4.7105,-4.6807,-4.685,-4.6963,-4.6866,-4.6358,-4.63,-4.63,-4.63,-4.63,-4.63,-4.63,-4.63,-4.63,-4.63,-4.63,-4.63,-4.63,-4.63,-4.63,-4.63,-4.63,-4.6105,-4.5753,-4.5753,-4.5285,-4.4445,-4.4426,-4.4129,-4.3695,-4.4142,-4.4494,-4.4681,-4.3833,-4.3423,-4.3152,-4.1847,-4.1003,-4.0489,-4.0489,-4.0489,-4.0489,-4.0489,-4.0489,-4.0489,-4.0489,-4.0489,-4.0489,-4.0489,-4.0489,-4.0508,-4.0495,-4.0482,-4.0432,-4.0396,-4.0363,-4.0327,-4.0309,-4.0724,-4.1382,-4.2294,-4.3294,-4.4304,-4.5287,-4.5822,-4.6093,-4.5998,-4.6065,-4.613,-4.613,-4.6181,-4.6196,-4.6196,-4.6196,-4.6196,-4.6196,-4.6196,-4.6196,-4.6196,-4.6196,-4.6196,-4.6196,-4.6196,-4.6196,-4.6196,-4.6196,-4.6196,-4.6196,-4.6196,-4.6196,-4.6196,-4.6196,-4.6189,-4.5303,-4.5543,-4.5781,-4.6047,-4.6617,-4.7254,-4.7811,-4.8419,-4.8923,-4.9162,-4.9213,-4.9218,-4.9213,-4.9026,-4.8899,-4.8955,-4.8034,-4.7443,-4.7781,-4.7086,-4.664,-4.6929,-4.7514,-4.7651,-4.7027,-4.6781,-4.6554,-4.6319,-4.63,-4.63,-4.63,-4.63,-4.63,-4.63,-4.627,-4.627,-4.63,-4.627,-4.627,-4.63,-4.63,-4.63,-4.628,-4.6046,-4.5734,-4.5343,-4.5109,-4.4777,-4.4465,-4.5109,-4.5304,-4.513,-4.4317,-4.3766,-4.3345,-4.2421,-4.1422,-4.0564,-4.0564,-4.0534,-4.0489,-4.0489,-4.0489,-4.0489,-4.0489,-4.0489,-4.0489,-4.0489,-4.0508,-4.0511,-4.0546,-4.0495,-4.0408,-4.0406,-4.0408,-4.0413,-4.0413,-4.1123,-4.202,-4.2937,-4.3962,-4.4987,-4.5901,-4.6138,-4.6196,-4.6196,-4.6196,-4.6196,-4.6196,-4.6196,-4.6196,-4.6196,-4.6196,-4.6196,-4.6196,-4.6196,-4.6196,-4.6196,-4.6196,-4.6196,-4.6196,-4.6196,-4.6196,-4.6196,-4.6196,-4.6196,-4.6196,-4.6196,-4.6196,-4.6196,-4.6196,-4.6196,-4.5545,-4.5543,-4.5719,-4.6639,-4.6978,-4.7525,-4.9161,-4.9639,-4.9996,-5.0848,-5.1023,-5.1017,-5.1024,-5.0381,-4.9857,-4.9862,-4.8469,-4.7682,-4.8545,-4.7904,-4.7689,-4.8529,-4.8646,-4.8662,0.0,-4.7987,-4.7217,-4.6358,-4.63,-4.63,-4.63,-4.63,-4.63,-4.63,-4.6246,-4.6228,-4.63,-4.6246,-4.6246,-4.63,-4.63,-4.63,-4.6261,-4.5421,-4.55,-4.6202,-4.5363,-4.546,-4.6222,-4.6241,-4.6261,-4.6163,-4.5301,-4.4397,-4.3487,-4.2611,-4.1606,-4.0694,-4.0694,-4.0602,-4.0489,-4.0489,-4.0489,-4.0489,-4.0489,-4.0489,-4.0489,-4.0489,-4.0495,-4.0531,-4.066,-4.0593,-4.054,-4.0655,-4.0687,-4.0681,-4.0681,-4.1313,-4.2194,-4.3199,-4.4093,-4.5026,-4.6025,-4.6196,-4.6196,-4.6196,-4.6196,-4.6196,-4.6196,-4.6196,-4.6196,-4.6196,-4.6196,-4.6196,-4.6196,-4.6196,-4.6196,-4.6196,-4.6196,-4.6196,-4.6196,-4.6196,-4.6196,-4.6196,-4.6196,-4.6196,-4.6196,-4.6196,-4.6196,-4.6196,-4.6196,-4.6196,-4.54,-4.5841,-4.6358,-4.6684,-4.7662,-4.875,-4.9494,-5.0148,-5.068,-5.103,-5.0655,-5.0248,-5.0241,-4.9567,-4.9049,-4.9041,-4.8078,-4.7654,-4.8561,-4.7944,-4.7722,-4.8595,-4.9204,0.0,0.0,0.0,0.0,-4.7047,-4.654,-4.6228,-4.6228,-4.6228,-4.6228,-4.6228,-4.6202,-4.6202,-4.6228,-4.6202,-4.6202,-4.6228,-4.623,-4.6228,-4.6226,-4.5977,-4.6027,-4.628,-4.5987,-4.6027,-4.63,-4.63,-4.63,-4.6202,-4.5343,-4.4809,-4.4348,-4.2904,-4.2117,-4.1671,-4.0995,-4.0729,-4.0696,-4.0696,-4.0696,-4.0696,-4.0696,-4.0696,-4.0696,-4.0692,-4.0699,-4.0706,-4.0706,-4.0674,-4.0642,-4.0687,-4.0706,-4.0848,-4.1383,-4.2218,-4.3169,-4.4074,-4.5034,-4.5796,-4.6137,-4.6196,-4.6196,-4.6196,-4.6196,-4.6196,-4.6196,-4.6196,-4.6196,-4.6196,-4.6196,-4.6196,-4.6196,-4.6196,-4.6196,-4.6196,-4.6196,-4.6196,-4.6196,-4.6196,-4.6196,-4.6196,-4.6196,-4.6196,-4.6196,-4.6196,-4.6196,-4.6196,-4.6196,-4.6196,-4.5132,-4.5538,-4.6118,-4.6894,-4.7971,-4.9029,-4.9806,-5.0519,-5.0923,-5.0655,-5.017,-4.9698,-4.9419,-4.8941,-4.8604,-4.8599,-4.7881,-4.7611,-4.8535,-4.7921,-4.7801,-4.8984,-4.9614,-4.9868,0.0,0.0,0.0,-4.7448,-4.7213,-4.6827,-4.6222,-4.6475,-4.6495,-4.6202,-4.6186,-4.6186,-4.6202,-4.6186,-4.6186,-4.6202,-4.6202,-4.6207,-4.6208,-4.6247,-4.6258,-4.6278,-4.6287,-4.63,-4.63,-4.63,-4.63,-4.6202,-4.5343,-4.4992,-4.4836,-4.3391,-4.2635,-4.2212,-4.1198,-4.0837,-4.081,-4.081,-4.081,-4.081,-4.081,-4.0801,-4.0791,-4.0801,-4.078,-4.0779,-4.0759,-4.0779,-4.0856,-4.1188,-4.1276,-4.1509,-4.2324,-4.3258,-4.4091,-4.4656,-4.5543,-4.6196,-4.6196,-4.6196,-4.6196,-4.6196,-4.6196,-4.6196,-4.6196,-4.6196,-4.6196,-4.6196,-4.6196,-4.6196,-4.6196,-4.6196,-4.6196,-4.6196,-4.6196,-4.6196,-4.6196,-4.6181,-4.6154,-4.6154,-4.6146,-4.6146,-4.6154,-4.6154,-4.6181,-4.6196,-4.6196,-4.6196,-4.4751,-4.4739,-4.5174,-4.7289,-4.7928,-4.8471,-5.0084,-5.0677,-5.0661,-4.9809,-4.9647,-4.9438,0.0,0.0,-4.8487,-4.8599,-4.7881,-4.7648,-4.8599,-4.7978,-4.8055,0.0,0.0,0.0,0.0,0.0,0.0,-4.765,0.0,-4.7927,-4.6331,-4.6936,-4.6975,-4.6214,-4.6131,-4.6125,-4.6195,-4.6125,-4.6125,-4.6199,-4.6199,-4.6179,-4.6183,-4.6207,-4.6191,-4.6191,-4.6276,-4.6303,-4.63,-4.63,-4.63,-4.6222,-4.5382,-4.507,-4.4953,-4.4094,-4.3216,-4.2331,-4.1407,-4.0953,-4.082,-4.082,-4.082,-4.082,-4.082,-4.082,-4.082,-4.083,-4.077,-4.0749,-4.0887,-4.0935,-4.1187,-4.2084,-4.2338,-4.2611,-4.3487,-4.4325,-4.491,-4.4949,-4.5631,-4.6196,-4.6196,-4.6196,-4.6196,-4.6196,-4.6196,-4.6196,-4.6196,-4.6196,-4.6196,-4.6196,-4.6196,-4.6196,-4.6196,-4.6196,-4.6196,-4.6196,-4.6196,-4.6196,-4.6189,-4.6138,-4.6093,-4.6093,-4.6027,-4.6027,-4.6093,-4.6093,-4.6138,-4.6189,-4.6189,-4.6189,-4.4726,-4.5249,-4.6038,-4.7446,-4.8321,-4.896,-4.9488,-4.9663,-4.9542,-4.8866,-4.823,-4.7766,0.0,0.0,0.0,-4.8386,-4.7881,0.0,-5.0231,-4.9784,0.0,-5.0736,0.0,-5.0969,-5.1183,-5.1008,0.0,0.0,-4.8273,-4.7475,-4.7047,-4.6599,-4.6249,-4.6054,-4.6036,-4.6036,-4.6054,-4.6036,-4.6036,-4.6063,-4.6098,-4.6125,-4.6131,-4.6179,-4.6205,-4.6191,-4.6229,-4.6241,-4.63,-4.63,-4.63,-4.628,-4.6066,-4.5964,-4.5859,-4.4988,-4.4122,-4.3231,-4.2349,-4.1598,-4.1022,-4.1022,-4.1011,-4.1019,-4.1019,-4.1019,-4.1013,-4.1026,-4.1013,-4.1006,-4.1052,-4.1493,-4.1999,-4.2234,-4.2806,-4.3507,-4.4384,-4.4734,-4.5085,-4.5728,-4.604,-4.6196,-4.6196,-4.6196,-4.6196,-4.6196,-4.6196,-4.6196,-4.6196,-4.6196,-4.6196,-4.6196,-4.6196,-4.6196,-4.6196,-4.6196,-4.6189,-4.6138,-4.613,-4.6102,-4.6047,-4.6027,-4.6017,-4.6017,-4.6007,-4.6007,-4.6017,-4.6017,-4.6027,-4.6037,-4.6037,-4.6037,-4.4546,-4.4964,-4.5653,-4.6908,-4.7608,-4.807,-4.8541,-4.87,-4.8548,-4.7867,-4.74,-4.701,-4.6771,-4.6646,0.0,0.0,0.0,0.0,-5.0367,-5.0212,-5.0212,0.0,-5.0853,0.0,-5.0619,-5.0289,-5.0017,0.0,-4.9357,-4.8522,-4.7356,-4.7201,-4.6793,-4.6016,-4.5997,-4.5997,-4.5997,-4.5997,-4.5997,-4.5997,-4.6036,-4.6063,-4.6072,-4.6125,-4.6167,-4.615,0.0,-4.6211,-4.6265,-4.6282,-4.6295,-4.6306,-4.6306,-4.6277,-4.6201,-4.5718,-4.4987,-4.4119,-4.327,-4.2392,-4.1608,-4.1222,-4.11,-4.1091,-4.1091,-4.1111,-4.1106,-4.11,-4.1089,-4.1181,-4.1539,-4.1968,-4.2494,-4.3254,-4.3819,-4.4403,-4.528,-4.5475,-4.5611,-4.6098,-4.6196,-4.6196,-4.6196,-4.6196,-4.6196,-4.6196,-4.6196,-4.6196,-4.6196,-4.6196,-4.6196,-4.6196,-4.6196,-4.6196,-4.6196,-4.6162,-4.6146,-4.6102,-4.6075,-4.6027,-4.5997,-4.5975,-4.5964,-4.5964,-4.5941,-4.5929,-4.5964,-4.5964,-4.5975,-4.5997,-4.5997,-4.5997,-4.4318,-4.4383,-4.4726,-4.6161,-4.65,-4.671,-4.7474,-4.7737,-4.7588,-4.6848,0.0,-4.6718,-4.61,-4.6604,-4.7206,-4.7423,0.0,-4.893,-4.992,-5.0076,-5.0348,-5.1105,-5.0522,-5.0076,-5.0076,-4.9396,-4.926,-5.0017,-5.0678,-4.9998,-4.7609,-4.8075,-4.7686,-4.6055,-4.5997,-4.5997,-4.5997,-4.5997,-4.5997,-4.5997,-4.5997,-4.5997,-4.6007,-4.6052,-4.6091,-4.6112,-4.6163,-4.6202,-4.6225,-4.6289,-4.6307,-4.6297,-4.6297,-4.6264,-4.6192,-4.6216,-4.5582,-4.464,-4.3938,-4.3056,-4.2109,-4.134,-4.1111,-4.1106,-4.1106,-4.11,-4.1095,-4.1095,-4.1103,-4.1286,-4.2085,-4.2396,-4.2883,-4.4501,-4.4988,-4.528,-4.604,-4.6196,-4.6196,-4.6196,-4.6196,-4.6196,-4.6196,-4.6196,-4.6196,-4.6196,-4.6196,-4.6196,-4.6196,-4.6196,-4.6196,-4.6196,-4.6196,-4.6196,-4.6189,-4.6138,-4.6093,-4.6075,-4.6017,-4.5986,-4.5975,-4.5929,-4.5893,-4.5893,-4.5841,-4.5841,-4.5893,-4.5893,-4.5929,-4.5975,-4.5975,-4.5975,-4.426,-4.4383,-4.4726,-4.6161,-4.65,-4.6538,-4.6691,-4.6732,0.0,0.0,-4.5847,-4.5935,-4.5925,-4.6077,-4.6696,-4.8133,-4.8502,-4.9163,-5.0755,-5.0969,-5.1027,0.0,-5.1066,-5.0969,-5.0969,-5.0833,0.0,0.0,0.0,-4.9609,-4.8444,-4.7822,-4.7065,-4.6035,-4.5997,-4.5997,-4.5997,-4.5997,-4.5997,-4.5997,-4.5997,-4.5997,-4.5997,-4.5998,-4.6072,-4.6181,-4.6197,0.0,-4.6289,-4.6308,-4.6308,-4.6308,-4.6308,-4.6262,-4.6218,-4.6264,-4.5245,-4.3806,-4.3668,-4.261,-4.1292,-4.1153,-4.1109,-4.1097,-4.1097,-4.1097,-4.1091,-4.1091,-4.1091,-4.1286,-4.2085,-4.2825,-4.3624,-4.4656,-4.5455,-4.602,-4.6176,-4.6196,-4.6196,-4.6196,-4.6196,-4.6196,-4.6196,-4.6196,-4.6196,-4.6196,-4.6196,-4.6196,-4.6196,-4.6196,-4.6196,-4.6196,-4.6196,-4.6189,-4.6111,-4.6102,-4.6047,-4.5953,-4.591,-4.5886,-4.5841,-4.5808,-4.5827,-4.5827,-4.5814,-4.5814,-4.5827,-4.5827,-4.5808,-4.5822,-4.5822,-4.5822,-4.406,-4.4192,-4.4401,-4.5212,-4.5523,-4.5635,-4.5635,0.0,0.0,-4.5553,-4.5618,-4.5746,-4.588,-4.6329,0.0,-4.7784,-4.8308,-4.9046,-5.0348,-5.0134,0.0,-5.1086,-5.0406,-5.0037,0.0,0.0,0.0,0.0,0.0,-4.8561,-4.8599,-4.7337,-4.6424,-4.6016,-4.5997,-4.5997,-4.5997,-4.5997,-4.5997,-4.5997,-4.5997,-4.5997,-4.5997,-4.6047,-4.6102,-4.6157,-4.6176,-4.623,-4.6254,-4.63,-4.6305,-4.6308,-4.6308,-4.6268,-4.6195,-4.6245,-4.5699,-4.483,-4.3916,-4.3065,-4.226,-4.137,-4.1097,-4.111,-4.111,-4.111,-4.111,-4.111,-4.1403,-4.1812,-4.2202,-4.3273,-4.4384,-4.4793,-4.5572,-4.6196,-4.6196,-4.6196,-4.6196,-4.6196,-4.6196,-4.6196,-4.6196,-4.6196,-4.6196,-4.6196,-4.6196,-4.6196,-4.6196,-4.6196,-4.6196,-4.6196,-4.6162,-4.6138,-4.6102,-4.6047,-4.5975,-4.5898,-4.588,-4.5822,-4.58,-4.58,-4.58,-4.58,-4.58,-4.58,-4.58,-4.58,-4.58,-4.58,-4.58,-4.58,-4.391,-4.4005,-4.4079,-4.4346,-4.4599,-4.48,-4.48,-4.5045,-4.5319,-4.5438,-4.5566,-4.57,-4.5819,0.0,-4.7062,0.0,-4.7881,-4.8696,-4.9745,-4.9299,-4.9454,0.0,-4.9998,0.0,-5.0114,0.0,0.0,0.0,0.0,0.0,-4.8308,-4.7026,-4.6191,-4.6016,-4.5997,-4.5997,-4.5997,-4.5997,-4.5997,-4.5997,-4.5997,-4.6007,-4.6017,-4.6075,-4.6111,-4.6127,-4.6189,-4.6211,-4.6236,-4.6273,-4.6293,-4.6303,-4.6303,-4.6269,-4.6226,-4.6215,-4.6085,-4.5707,-4.4153,-4.3499,-4.3103,-4.1596,-4.1097,-4.111,-4.111,-4.111,-4.111,-4.111,-4.1675,-4.2338,-4.2533,-4.3721,-4.4949,-4.5124,-4.5689,-4.6196,-4.6196,-4.6196,-4.6196,-4.6196,-4.6196,-4.6196,-4.6196,-4.6196,-4.6196,-4.6196,-4.6196,-4.6196,-4.6189,-4.6189,-4.6162,-4.6154,-4.6111,-4.6084,-4.6066,-4.5964,-4.5886,-4.5893,-4.5841,-4.58,-4.58,-4.58,-4.58,-4.58,-4.58,-4.58,-4.58,-4.58,-4.58,-4.58,-4.58,-4.58,-4.391,-4.4005,-4.4079,-4.4346,-4.4599,-4.48,-4.48,-4.5045,-4.5297,-4.5317,-4.5438,-4.5566,-4.568,0.0,0.0,0.0,0.0,-4.7997,-4.9668,-4.9823,-5.0134,-5.1086,0.0,0.0,-5.1066,0.0,0.0,0.0,0.0,0.0,-4.7512,-4.7279,-4.6812,-4.6016,-4.5997,-4.5997,-4.5997,-4.5997,-4.5997,-4.5997,-4.5997,-4.6027,-4.6093,-4.6093,-4.6142,-4.6201,-4.6206,-4.6221,0.0,-4.63,-4.6303,-4.6303,-4.6303,-4.6297,-4.6288,-4.6289,-4.5742,-4.4894,-4.3993,-4.3173,-4.2351,-4.141,-4.1106,-4.111,-4.111,-4.111,-4.111,-4.111,-4.1675,-4.2474,-4.3286,-4.4189,-4.5105,-4.5884,-4.6137,-4.6196,-4.6196,-4.6196,-4.6196,-4.6196,-4.6196,-4.6196,-4.6196,-4.6196,-4.6196,-4.6196,-4.6196,-4.6189,-4.613,-4.6102,-4.6084,-4.6017,-4.6075,-4.6037,-4.5941,-4.5917,-4.5861,-4.5814,-4.5814,-4.58,-4.58,-4.58,-4.58,-4.58,-4.58,-4.58,-4.58,-4.58,-4.58,-4.58,-4.58,-4.58,-4.3649,-4.3716,-4.373,-4.3823,-4.4213,-4.4546,-4.4546,-4.4934,-4.5297,-4.5297,-4.5419,-4.5513,-4.5584,-4.5761,0.0,0.0,0.0,0.0,-4.8153,-4.7881,-4.8269,-5.0192,-4.994,0.0,0.0,0.0,0.0,0.0,0.0,0.0,-4.6618,-4.7007,-4.6909,-4.6035,-4.5997,-4.5997,-4.5997,-4.5997,-4.6017,-4.6066,-4.6066,-4.6093,-4.6154,-4.6157,-4.6164,-4.6206,-4.6245,-4.6273,0.0,-4.63,-4.63,-4.63,-4.63,-4.6306,-4.6295,-4.6305,-4.6054,-4.5625,-4.4723,-4.388,-4.3038,-4.2175,-4.1521,-4.1097,-4.1109,-4.1442,-4.1714,-4.1247,-4.2065,-4.3033,-4.2864,-4.3858,-4.5124,-4.5981,-4.6196,-4.6196,-4.6196,-4.6196,-4.6196,-4.6196,-4.6196,-4.6196,-4.6196,-4.6196,-4.6196,-4.6196,-4.6196,-4.6196,-4.6154,-4.6154,-4.6122,-4.6014,-4.5994,-4.5964,-4.5898,-4.5848,-4.586,-4.593,-4.5838,-4.5838,-4.593,-4.5838,-4.58,-4.58,-4.58,-4.58,-4.58,-4.58,-4.58,-4.58,-4.58,-4.58,-4.3497,-4.3497,-4.3513,-4.3615,-4.4042,-4.4411,0.0,-4.491,-4.5297,-4.5297,-4.538,-4.5457,-4.5549,-4.5715,-4.5847,0.0,0.0,-4.6307,-4.7181,-4.6773,-4.7162,0.0,0.0,0.0,0.0,0.0,0.0,0.0,0.0,0.0,-4.6851,-4.7356,-4.7162,-4.6035,-4.5997,-4.6113,-4.6385,-4.6153,-4.6183,-4.6482,-4.6247,-4.6154,-4.6196,-4.6201,-4.6211,-4.624,-4.6277,-4.63,0.0,-4.63,-4.63,-4.63,-4.63,-4.63,-4.6303,-4.6297,-4.6303,-4.6166,-4.5253,-4.4394,-4.3554,-4.2675,-4.1815,-4.1108,-4.109,-4.149,-4.183,-4.1266,-4.2318,-4.3526,-4.3156,-4.4175,-4.5448,-4.6045,-4.6201,-4.6201,-4.6201,-4.6201,-4.6201,-4.6201,-4.6201,-4.6201,-4.6201,-4.6201,-4.6201,-4.6201,-4.6195,-4.6203,-4.6209,-4.6203,-4.6157,-4.6037,-4.5968,-4.5919,-4.5861,-4.5841,-4.5858,-4.5988,-4.5858,-4.5858,-4.5988,-4.5858,-4.58,-4.58,-4.58,-4.58,-4.58,-4.58,-4.58,-4.58,-4.58,-4.5935,-4.3497,-4.3497,-4.3582,-4.391,-4.4192,-4.4465,0.0,0.0,-4.5297,-4.5297,-4.5297,-4.538,-4.5651,-4.57,-4.5771,-4.5975,-4.5997,-4.6307,-4.7181,-4.7298,0.0,0.0,0.0,0.0,0.0,0.0,0.0,0.0,0.0,0.0,-4.8619,-4.858,-4.7784,-4.6055,-4.5997,-4.6404,-4.7279,-4.6494,-4.6521,-4.7378,-4.6583,-4.6196,-4.6206,-4.6206,-4.624,-4.63,-4.63,-4.63,0.0,-4.63,-4.63,-4.63,-4.63,-4.63,-4.63,-4.63,-4.63,-4.6183,-4.5304,-4.4426,-4.3554,-4.2671,-4.1815,-4.1093,-4.109,-4.1114,-4.1105,-4.1103,-4.2318,-4.3812,-4.4655,-4.5523,-4.6195,-4.62,-4.6204,-4.6204,-4.6204,-4.6204,-4.6204,-4.6204,-4.6204,-4.6204,-4.6204,-4.6204,-4.6204,-4.6204,-4.6192,-4.6191,-4.6195,-4.6201,-4.6167,-4.6105,-4.6042,-4.5949,-4.58,-4.58,-4.5858,-4.5988,-4.5858,-4.5858,-4.5988,-4.5858,-4.58,-4.58,-4.58,-4.58,-4.58,-4.58,-4.58,-4.58,-4.58,-4.6269,-4.4072,-4.4114,-4.4143,-4.425,-4.4484,-4.4701,-4.4776,0.0,-4.5297,-4.5297,-4.5297,-4.536,-4.5531,-4.5651,-4.5761,-4.5899,-4.5964,-4.6094,-4.6366,0.0,0.0,0.0,0.0,0.0,0.0,0.0,0.0,0.0,0.0,0.0,-4.8599,-4.8036,-4.7453,-4.6909,-4.7473,-4.7922,-4.8254,-4.8,-4.7743,-4.7463,-4.7203,-4.6791,-4.6273,-4.6273,-4.6277,-4.63,-4.63,-4.63,-4.63,-4.63,-4.63,-4.63,-4.63,-4.63,-4.63,-4.63,-4.63,-4.6261,-4.5987,-4.4933,-4.3648,-4.3381,-4.231,-4.1101,-4.1093,-4.1521,-4.2109,-4.2646,-4.322,-4.3856,-4.4688,-4.5539,-4.6198,-4.6202,-4.6204,-4.6204,-4.6204,-4.6204,-4.6204,-4.6204,-4.6204,-4.6204,-4.6204,-4.6204,-4.6202,-4.6192,-4.6206,-4.623,-4.6255,-4.6261,-4.6242,-4.6183,-4.6139,-4.6085,-4.5949,-4.5949,-4.5969,-4.6065,-4.5976,-4.5968,-4.6065,-4.5896,-4.58,-4.58,-4.58,-4.58,-4.58,-4.58,-4.5786,-4.581,-4.5761,-4.6159,0.0,-4.4383,-4.4411,-4.4519,-4.4676,0.0,0.0,0.0,0.0,0.0,0.0,0.0,-4.5549,-4.5632,-4.5742,-4.5912,-4.5964,-4.6113,-4.6443,0.0,0.0,0.0,0.0,0.0,0.0,0.0,0.0,0.0,0.0,0.0,-4.8619,-4.8405,-4.8144,-4.7835,-4.834,-4.8808,-4.9157,-4.888,-4.849,-4.8,-4.7679,-4.7108,-4.63,-4.63,-4.63,-4.63,-4.63,-4.63,0.0,-4.63,-4.63,-4.63,-4.63,-4.63,-4.63,-4.63,-4.63,-4.63,-4.63,-4.5363,-4.4133,-4.3801,-4.2513,-4.1091,-4.1103,-4.1719,-4.2492,-4.3004,-4.3637,-4.427,-4.4794,-4.5581,-4.6249,-4.623,-4.623,-4.623,-4.623,-4.623,-4.623,-4.623,-4.623,-4.623,-4.623,-4.623,-4.623,-4.6249,-4.6215,-4.6214,-4.6287,-4.6277,-4.6264,-4.6245,-4.618,-4.6131,-4.6065,-4.6046,-4.6065,-4.6123,-4.6074,-4.6056,-4.6085,-4.5969,-4.5838,-4.58,-4.58,-4.58,-4.58,-4.5786,-4.5791,-4.5765,-4.6028,-4.6596,0.0,-4.4465,-4.4519,-4.4751,-4.4843,0.0,0.0,0.0,0.0,0.0,0.0,0.0,0.0,-4.5715,-4.5771,-4.5975,-4.5997,-4.6307,-4.7181,-4.8094,0.0,0.0,0.0,0.0,0.0,0.0,0.0,0.0,0.0,0.0,-4.8735,-4.9407,-4.9526,-4.8895,-4.8885,-4.9225,-4.9906,-4.9296,-4.8956,-4.8878,-4.8064,-4.7237,-4.6397,-4.6339,-4.63,0.0,-4.63,-4.63,-4.63,-4.63,-4.63,-4.63,-4.63,-4.63,-4.63,-4.63,-4.63,-4.63,-4.63,-4.5734,-4.4855,-4.3918,-4.2474,-4.1108,-4.1108,-4.1716,-4.2418,-4.2475,-4.3668,-4.494,-4.5058,-4.5681,-4.6303,-4.6306,-4.63,-4.63,-4.63,-4.63,-4.63,-4.63,-4.63,-4.63,-4.6303,-4.63,-4.63,-4.63,-4.6247,-4.6231,-4.6282,-4.6248,-4.623,-4.6287,-4.6182,-4.6152,-4.6209,-4.6137,-4.6118,-4.6201,-4.6144,-4.6104,-4.6106,-4.6027,-4.593,-4.58,-4.58,-4.58,-4.58,-4.5795,-4.5765,-4.5719,-4.6538,-4.7351,-4.5106,0.0,-4.5087,-4.5173,-4.5173,-4.5194,0.0,0.0,0.0,0.0,0.0,0.0,0.0,0.0,-4.5887,-4.5986,-4.5997,-4.6307,-4.7181,0.0,0.0,0.0,0.0,0.0,0.0,0.0,0.0,0.0,0.0,-4.9104,-4.9571,-4.9206,-4.9489,-5.0588,-5.0716,-5.0537,-5.0069,-5.055,-5.045,-4.9786,-4.8931,-4.8096,-4.7276,-4.6593,-4.63,-4.63,-4.63,-4.63,-4.63,-4.63,-4.63,-4.63,-4.63,-4.63,-4.63,-4.63,-4.63,-4.63,-4.63,-4.5734,-4.4758,-4.3216,-4.1986,-4.1108,-4.1108,-4.1702,-4.2531,-4.3202,-4.4156,-4.5126,-4.5817,-4.6143,-4.6306,-4.6303,-4.63,-4.63,-4.63,-4.63,-4.63,-4.63,-4.63,-4.6303,-4.6297,-4.6309,-4.63,-4.63,-4.6295,-4.6285,-4.6307,-4.6288,-4.6254,-4.6222,-4.6247,-4.6249,-4.6209,-4.6152,-4.6134,-4.6195,-4.6144,-4.6103,-4.6102,-4.5937,-4.5819,-4.58,-4.5791,-4.5795,-4.5795,-4.5754,-4.5726,-4.5709,-4.6525,-4.7354,-4.5338,-4.5317,-4.5297,-4.5297,-4.5297,-4.5297,0.0,0.0,0.0,0.0,0.0,0.0,0.0,0.0,0.0,-4.5975,-4.5964,-4.6418,0.0,0.0,0.0,0.0,0.0,0.0,0.0,0.0,0.0,0.0,0.0,-4.9828,-4.9906,-4.9897,-5.0146,-5.0669,-5.1141,-5.118,-5.0692,-5.1152,-5.0952,-5.0087,-4.9228,-4.8388,-4.7569,-4.669,-4.63,-4.63,-4.63,-4.63,-4.63,-4.63,-4.63,-4.63,-4.63,-4.63,-4.63,-4.63,-4.63,-4.63,-4.63,-4.5734,-4.4777,-4.343,-4.2415,-4.1693,-4.1693,-4.2318,-4.3082,-4.3564,-4.4614,-4.5718,-4.6178,-4.629,-4.63,-4.63,-4.63,-4.63,-4.63,-4.63,-4.63,-4.63,-4.6306,-4.6295,-4.6301,-4.6301,-4.6297,-4.6303,-4.6273,-4.6269,-4.63,-4.6281,-4.6248,-4.624,-4.626,-4.6255,-4.6253,-4.6154,-4.6139,-4.6215,-4.6166,-4.6114,-4.6056,-4.5951,-4.5858,-4.5805,-4.5781,-4.575,-4.5754,-4.5726,-4.5905,-4.6275,-4.7085,-4.7894,-4.5398,-4.5359,-4.5317,-4.5297,-4.5297,-4.5297,0.0,0.0,0.0,0.0,0.0,0.0,0.0,0.0,0.0,0.0,0.0,0.0,0.0,0.0,0.0,0.0,0.0,0.0,0.0,0.0,0.0,0.0,0.0,-5.0685,-4.9936,-5.0661,-5.0874,-5.0321,-5.101,-5.14,-5.14,-5.1406,-5.0965,-5.0087,-4.9228,-4.8388,-4.7569,-4.669,-4.63,-4.63,0.0,0.0,-4.63,-4.63,-4.63,-4.63,-4.63,-4.63,-4.63,-4.63,-4.63,-4.63,-4.63,-4.5734,-4.4875,-4.4133,-4.3313,-4.2591,-4.2591,-4.3216,-4.3899,-4.3899,-4.5051,-4.63,-4.63,-4.63,-4.63,-4.63,-4.63,-4.63,-4.63,-4.63,-4.63,-4.63,-4.6293,-4.63,-4.6303,-4.6405,-4.6503,-4.6507,-4.6441,-4.6464,-4.6649,-4.6399,-4.6289,-4.6446,-4.6309,-4.6239,-4.6278,-4.6181,-4.6123,-4.6181,-4.6181,-4.6123,-4.5974,-4.5974,-4.5921,-4.58,-4.5735,-4.5703,-4.5693,-4.5693,-4.6102,-4.6932,-4.774,-4.8567,-4.5399,-4.5398,-4.5359,-4.5317,-4.5297,-4.5297,0.0,0.0,0.0,0.0,0.0,0.0,0.0,0.0,0.0,0.0,0.0,0.0,0.0,0.0,0.0,0.0,0.0,0.0,0.0,0.0,0.0,0.0,0.0,-5.0053,-4.9916,-5.0146,-5.0569,-5.118,-5.1338,-5.141,-5.141,-5.1394,-5.0965,-5.0087,-4.9228,-4.8388,-4.7569,-4.669,-4.63,-4.63,0.0,-4.63,-4.63,-4.63,-4.63,-4.63,-4.63,-4.63,-4.63,-4.63,-4.63,-4.63,-4.63,-4.5734,-4.4972,-4.4836,-4.4211,-4.3509,-4.3509,-4.4114,-4.4797,-4.4797,-4.5519,-4.63,-4.63,-4.63,-4.63,-4.63,-4.63,-4.63,-4.63,-4.63,-4.63,-4.63,-4.6303,-4.6293,-4.6307,-4.6914,-4.7402,-4.7402,-4.7383,-4.7614,-4.825,-4.7125,-4.6509,-4.7078,-4.6629,-4.6239,-4.6143,-4.6162,-4.6143,-4.6046,-4.6027,-4.5974,-4.5834,-4.5834,-4.58,-4.5715,-4.5706,-4.5709,-4.5693,-4.564,-4.6065,-4.6932,-4.774,-4.8567,-4.5458,-4.5438,-4.5398,-4.5359,-4.5317,-4.5297,0.0,0.0,0.0,0.0,0.0,0.0,0.0,0.0,0.0,0.0,0.0,0.0,0.0,0.0,0.0,0.0,0.0,0.0,0.0,0.0,0.0,0.0,0.0,0.0,-5.0704,-5.077,-5.0986,-5.1396,-5.141,-5.1394,-5.1394,-5.1394,-5.0965,-5.0087,-4.9228,-4.8388,-4.7569,-4.669,-4.63,-4.63,0.0,-4.63,-4.63,-4.63,-4.63,-4.63,-4.63,-4.63,-4.63,-4.63,-4.63,-4.63,-4.63,-4.6046,-4.5617,-4.5148,-4.4738,-4.4406,-4.4406,-4.468,-4.5109,-4.5578,-4.5987,-4.63,-4.63,-4.63,-4.63,-4.63,-4.63,-4.63,-4.63,-4.6671,-4.685,-4.639,-4.7068,-4.7406,-4.6464,-4.7402,-4.8144,-4.7676,-4.7938,-4.8331,-4.8647,-4.8052,-4.7553,-4.7428,-4.7129,-4.6737,-4.6201,-4.6496,-4.6535,-4.6027,-4.593,-4.5863,-4.5815,-4.5765,-4.5735,-4.5687,-4.5673,-4.564,-4.564,-4.6103,-4.674,-4.7567,-4.8413,-4.926,-4.5495,-4.5458,-4.5419,-4.5399,0.0,0.0,0.0,0.0,0.0,0.0,0.0,0.0,0.0,0.0,0.0,0.0,0.0,0.0,0.0,0.0,0.0,0.0,0.0,0.0,0.0,0.0,0.0,0.0,0.0,0.0,-5.1394,-5.1401,-5.1394,-5.1394,-5.1394,-5.1297,-5.1102,-5.1297,-5.0965,-5.0087,-4.9423,-4.8662,-4.7842,-4.6983,-4.6593,-4.6593,-4.6397,-4.63,-4.63,-4.63,-4.63,-4.63,-4.63,-4.63,-4.63,-4.63,-4.63,-4.63,-4.63,-4.63,-4.6183,-4.5519,-4.5304,-4.5304,-4.5304,-4.5304,-4.5441,-4.6105,-4.63,-4.63,-4.63,-4.63,-4.63,-4.63,-4.63,-4.6358,-4.6554,-4.712,-4.7458,-4.7,-4.7994,-4.8487,-4.7148,-4.8183,-4.8963,-4.8278,-4.8651,-4.9061,-4.9254,-4.8945,-4.8535,-4.8116,-4.7884,-4.742,-4.651,-4.6883,-4.6825,-4.6007,-4.5858,-4.5791,-4.5781,-4.5735,-4.5687,-4.5693,-4.5622,-4.5586,-4.5586,-4.6471,-4.7317,-4.8125,-4.899,-4.9875,-4.5513,-4.5495,-4.5476,-4.5419,0.0,0.0,0.0,0.0,0.0,0.0,0.0,0.0,0.0,0.0,0.0,0.0,0.0,0.0,0.0,0.0,0.0,0.0,0.0,0.0,0.0,0.0,0.0,0.0,0.0,-5.1394,-5.1394,-5.1401,-5.1394,-5.1394,-5.1394,-5.1004,-5.0204,-5.1004,-5.0965,-5.0106,-5.0048,-4.956,-4.8681,-4.7881,-4.751,-4.7451,-4.6651,-4.63,-4.63,-4.63,-4.63,-4.63,-4.63,-4.63,-4.63,-4.63,-4.63,-4.63,-4.63,-4.63,-4.628,-4.6222,-4.6202,-4.6202,-4.6202,-4.6202,-4.6222,-4.628,-4.63,-4.63,-4.63,-4.63,-4.63,-4.63,-4.63,-4.6515,-4.7338,-4.7553,-4.7826,-4.8568,-4.8803,-4.8867,-4.873,-4.9492,-5.0035,-4.9854,-4.9861,-5.0194,-5.0925,-4.9656,-4.8964,-4.9637,-4.9057,-4.8207,-4.7197,-4.7115,-4.6728,-4.5858,-4.581,-4.5765,-4.5715,-4.5706,-4.5657,-4.5622,-4.5586,-4.5586,-4.5586,-4.6471,-4.7317,-4.8125,-4.899,-4.9875,-4.5568,-4.5495,-4.5438,-4.5419,0.0,0.0,0.0,0.0,0.0,0.0,0.0,0.0,0.0,0.0,0.0,0.0,0.0,0.0,0.0,0.0,0.0,0.0,0.0,0.0,0.0,0.0,0.0,-5.1366,-5.1396,-5.1401,-5.1401,-5.141,-5.1394,-5.1394,-5.1394,-5.1238,-5.0906,-5.1238,-5.1238,-5.0906,-5.036,-4.9384,-4.8037,-4.7744,-4.7295,-4.6768,-4.6436,-4.63,-4.63,-4.63,-4.63,-4.63,-4.63,-4.63,-4.63,-4.63,-4.63,-4.63,-4.63,-4.63,-4.63,-4.63,-4.63,-4.63,-4.63,-4.63,-4.63,-4.63,-4.63,-4.63,-4.63,-4.63,-4.63,-4.63,-4.671,-4.7198,-4.7533,-4.845,-4.9153,-4.8939,-4.974,-5.0117,-4.9082,-4.9995,-5.0681,-5.0089,-5.0426,-5.0867,-5.1157,-5.0677,-5.0213,-4.9927,-4.9096,-4.8396,-4.7985,-4.7424,-4.696,-4.6631,-4.6095,-4.5776,-4.5715,-4.5684,-4.5671,-4.5586,-4.6124,-4.6413,-4.6413,-4.7798,-4.8606,-4.8933,-4.9798,-5.0375,-4.5635,-4.5565,-4.5493,0.0,0.0,0.0,0.0,0.0,0.0,0.0,0.0,0.0,0.0,0.0,0.0,0.0,0.0,0.0,0.0,0.0,0.0,0.0,0.0,0.0,0.0,0.0,-5.1394,-5.1394,-5.1394,-5.1394,-5.1394,-5.1394,-5.1394,-5.1394,-5.1394,-5.1277,-5.0984,-5.1258,-5.1258,-5.0984,-5.0653,-4.9911,-4.8779,-4.8232,-4.7647,-4.7061,-4.6534,-4.63,-4.63,-4.63,-4.63,-4.63,-4.63,-4.63,-4.63,-4.63,-4.63,-4.63,-4.63,-4.63,-4.63,-4.63,-4.63,-4.63,-4.63,-4.63,-4.63,-4.63,-4.63,-4.63,-4.63,-4.63,-4.6378,-4.6651,-4.7178,-4.7748,-4.8281,-4.9332,-5.0086,-4.9738,-5.0575,-5.0996,-4.9827,-5.0536,-5.1062,-5.0442,-5.0828,-5.1188,-5.117,-5.1242,-5.1022,-5.0349,-4.9672,-4.9146,-4.8836,-4.8256,-4.7695,-4.7134,-4.654,-4.6066,-4.5715,-4.57,-4.5806,-4.6009,-4.6605,-4.7028,-4.7278,-4.8702,-4.9394,-4.9413,-5.0279,-5.0702,-4.5737,-4.5692,0.0,0.0,0.0,0.0,0.0,0.0,0.0,0.0,0.0,0.0,0.0,0.0,0.0,0.0,0.0,0.0,0.0,0.0,0.0,0.0,0.0,0.0,0.0,-5.1394,-5.1394,-5.1394,-5.1394,-5.1394,-5.1394,-5.1394,-5.1394,-5.1394,-5.1394,-5.0984,-5.0106,-5.0965,-5.0965,-5.0106,-5.0965,-5.1375,-5.1316,-4.9599,-4.8798,-4.8681,-4.7022,-4.63,-4.63,-4.63,-4.63,-4.63,-4.63,-4.63,-4.63,-4.63,-4.63,-4.63,-4.63,-4.63,-4.63,-4.63,-4.63,-4.63,-4.63,-4.63,-4.63,-4.63,-4.63,-4.63,-4.63,-4.63,-4.6515,-4.7393,-4.7608,-4.8063,-4.9738,-5.0161,-5.0429,-5.1166,-5.1293,-5.128,-5.1209,-5.1203,-5.1172,-5.1106,-5.1157,-5.1175,-5.11,-5.1172,-5.1177,-5.1119,-5.0983,-5.0577,-4.9765,-4.9707,-4.8952,-4.7212,-4.7105,-4.6692,-4.5738,-4.5706,-4.608,-4.6894,-4.6913,-4.7317,-4.8105,-4.899,-4.9413,-4.9433,-5.0298,-5.0702,-4.5794,-4.5802,0.0,0.0,0.0,0.0,0.0,0.0,0.0,0.0,0.0,0.0,0.0,0.0,0.0,0.0,0.0,0.0,0.0,0.0,0.0,0.0,0.0,0.0,-5.1394,-5.1394,-5.1394,-5.1394,-5.1394,-5.1394,-5.1394,-5.1394,-5.1394,-5.1394,-5.1394,-5.0984,-5.0106,-5.0965,-5.0653,-4.9208,-5.0067,-5.0165,-4.956,-4.9032,-4.8154,-4.7002,-4.6515,-4.63,-4.63,-4.63,-4.63,-4.6358,-4.6963,-4.7217,-4.7217,-4.7217,-4.7217,-4.7139,-4.6515,-4.63,-4.63,-4.63,-4.63,-4.63,-4.63,-4.63,-4.63,-4.63,-4.63,-4.63,-4.63,-4.63,-4.6515,-4.7393,-4.8076,-4.8805,-4.9873,-5.0566,-5.1031,-5.1261,-5.1254,-5.1227,-5.1197,-5.1153,-5.1145,-5.1173,-5.1157,-5.1134,-5.117,-5.1149,-5.1119,-5.1099,-5.0983,-5.0577,-4.9765,-4.9707,-4.9223,-4.8082,-4.7975,-4.7272,-4.5758,-4.5706,-4.608,-4.6894,-4.7471,-4.8163,-4.9029,-4.9894,-5.0298,-5.0317,-5.0567,-5.0702,-4.5906,0.0,0.0,0.0,0.0,0.0,0.0,0.0,0.0,0.0,0.0,0.0,0.0,0.0,0.0,0.0,0.0,0.0,0.0,0.0,0.0,0.0,0.0,0.0,-5.1394,-5.1394,-5.1394,-5.1394,-5.1394,-5.1394,-5.1394,-5.1394,-5.1238,-5.0887,-5.1219,-5.0984,-5.0106,-5.0965,-5.0867,-4.9833,-5.0008,-4.9638,-4.8798,-4.8466,-4.7764,-4.6807,-4.6456,-4.63,-4.63,-4.63,-4.6495,-4.6866,-4.7393,-4.7803,-4.8076,-4.8076,-4.8076,-4.7998,-4.7471,-4.7295,-4.7237,-4.6924,-4.6827,-4.6749,-4.6417,-4.63,-4.63,-4.63,-4.63,-4.63,-4.63,-4.6554,-4.7042,-4.792,-4.8525,-4.9202,-5.0331,-5.0947,-5.1273,-5.1235,-5.1196,-5.1138,-5.1099,-5.1099,-5.1099,-5.108,-5.1061,-5.1061,-5.1157,-5.108,-5.1022,-5.1022,-5.0964,-5.0712,-5.0229,-5.019,-4.9788,-4.8937,-4.8813,-4.8147,-4.6764,-4.6692,-4.6908,-4.7375,-4.8202,-4.9048,-4.9913,-5.0433,-5.0702,-5.0702,-5.0702,-5.0702,0.0,0.0,0.0,0.0,0.0,0.0,0.0,0.0,0.0,0.0,0.0,0.0,0.0,0.0,0.0,0.0,0.0,0.0,0.0,0.0,0.0,0.0,0.0,-5.1394,-5.1394,-5.1394,-5.1394,-5.1394,-5.1394,-5.1394,-5.1394,-5.1394,-5.1004,-5.0126,-5.0867,-5.0828,-4.9891,-5.0731,-5.1082,-5.0926,-5.0204,-4.9423,-4.8545,-4.79,-4.7569,-4.7432,-4.6632,-4.63,-4.63,-4.63,-4.6768,-4.751,-4.7647,-4.8154,-4.8818,-4.8896,-4.8915,-4.8915,-4.8837,-4.8798,-4.8681,-4.7959,-4.7705,-4.7549,-4.6671,-4.6417,-4.6397,-4.6319,-4.63,-4.6319,-4.6381,-4.6947,-4.7712,-4.8669,-4.8945,-4.9429,-5.0957,-5.1295,-5.1254,-5.1119,-5.1099,-5.1041,-5.0925,-5.1003,-5.1041,-5.0925,-5.0925,-5.0964,-5.108,-5.0983,-5.0945,-5.1022,-5.1022,-5.1022,-5.1022,-5.1006,-5.0642,-4.976,-4.9633,-4.9232,-4.8351,-4.8237,-4.82,-4.8221,-4.899,-4.9817,-5.0702,-5.0702,-5.0702,-5.0702,-5.0702,-5.0702,0.0,0.0,0.0,0.0,0.0,0.0,0.0,0.0,0.0,0.0,0.0,0.0,0.0,0.0,0.0,0.0,0.0,0.0,0.0,0.0,0.0,0.0,-5.1297,-5.1394,-5.1394,-5.1394,-5.1394,-5.1394,-5.1394,-5.1394,-5.1394,-5.1394,-5.1004,-5.0126,-5.0282,-4.9657,-4.8154,-4.8954,-4.8701,-4.7393,-4.79,-4.7686,-4.6846,-4.7373,-4.7237,-4.6573,-4.6378,-4.63,-4.63,-4.63,-4.6417,-4.671,-4.8037,-4.8642,-4.8876,-4.9579,-4.9813,-4.9716,-4.9032,-4.8798,-4.8779,-4.8603,-4.8545,-4.8388,-4.7569,-4.7315,-4.7178,-4.6495,-4.63,-4.6443,-4.7084,-4.6874,-4.6875,-4.8397,-4.9271,-5.0025,-5.1,-5.119,-5.1138,-5.1119,-5.1022,-5.0945,-5.0906,-5.0925,-5.0945,-5.0906,-5.1003,-5.1041,-5.0964,-5.0925,-5.1157,-5.1854,-5.1912,-5.1912,-5.1912,-5.1879,-5.1479,-5.0668,-5.0522,-5.0084,-4.9256,-4.8508,-4.8432,-4.9106,-4.9298,-4.9817,-5.0702,-5.0702,-5.0702,-5.0702,-5.0702,-5.0702,0.0,0.0,0.0,0.0,0.0,0.0,0.0,0.0,0.0,0.0,0.0,0.0,0.0,0.0,0.0,0.0,0.0,0.0,0.0,0.0,0.0,0.0,-5.0887,-5.1394,-5.1394,-5.1394,-5.1394,-5.1394,-5.1394,-5.1219,-5.0809,-5.0789,-5.0204,-4.8935,-4.9286,-4.8876,-4.7608,-4.8408,-4.8369,-4.749,-4.7569,-4.7139,-4.6319,-4.6768,-4.6729,-4.63,-4.63,-4.63,-4.6339,-4.6749,-4.6924,-4.7081,-4.8779,-4.9423,-4.954,-5.0399,-5.0711,-5.0653,-5.0204,-5.0048,-4.9989,-4.956,-4.9423,-4.9267,-4.8427,-4.8174,-4.7982,-4.7115,-4.6864,-4.6887,-4.6875,-4.6832,-4.6995,-4.7825,-4.8697,-4.9549,-5.0363,-5.0823,-5.108,-5.1022,-5.0964,-5.0906,-5.0906,-5.0906,-5.0925,-5.1003,-5.1003,-5.0983,-5.0925,-5.1254,-5.1699,-5.2144,-5.2569,-5.2821,-5.2821,-5.2768,-5.237,-5.1522,-5.1374,-5.0933,-5.0105,-4.9605,-4.9356,-4.9394,-4.9798,-5.024,-5.0702,-5.0702,-5.0702,-5.0702,-5.0702,-5.0702,0.0,0.0,0.0,0.0,0.0,0.0,0.0,0.0,0.0,0.0,0.0,0.0,0.0,0.0,0.0,0.0,0.0,0.0,0.0,0.0,0.0,-4.8993,-5.0165,-5.1063,-5.1375,-5.1258,-5.1238,-5.1394,-5.1394,-5.1023,-5.0145,-5.0106,-4.9325,-4.7647,-4.8252,-4.8193,-4.7373,-4.8037,-4.8369,-4.8369,-4.7686,-4.7002,-4.63,-4.63,-4.63,-4.63,-4.63,-4.63,-4.6358,-4.7081,-4.7373,-4.7549,-4.9228,-4.9872,-5.0008,-5.1023,-5.1398,-5.1402,-5.1402,-5.1402,-5.1285,-5.0565,-5.0312,-5.0133,-4.9104,-4.8909,-4.8816,-4.7791,-4.7499,-4.7402,-4.6963,-4.712,-4.7401,-4.7481,-4.8156,-4.8968,-4.9635,-5.0461,-5.1041,-5.0925,-5.0906,-5.0906,-5.0906,-5.0906,-5.0945,-5.1061,-5.0983,-5.0964,-5.1119,-5.1757,-5.2318,-5.2608,-5.3285,-5.3694,-5.3694,-5.3642,-5.3221,-5.2355,-5.2107,-5.1645,-5.0933,-5.076,-5.0356,-4.9644,-5.0317,-5.0702,-5.0702,-5.0702,-5.0702,-5.0702,-5.0702,-5.0702,0.0,0.0,0.0,0.0,0.0,0.0,0.0,0.0,0.0,0.0,0.0,0.0,0.0,0.0,0.0,0.0,0.0,0.0,0.0,0.0,-4.831,-4.9755,-4.9462,-4.9735,-5.1258,-5.0711,-5.0594,-5.1336,-5.1394,-5.1023,-5.0145,-5.0106,-4.9325,-4.7647,-4.7705,-4.7354,-4.6475,-4.6573,-4.6632,-4.6632,-4.6515,-4.6417,-4.63,-4.63,-4.63,-4.63,-4.63,-4.63,-4.63,-4.6436,-4.6475,-4.6632,-4.831,-4.8974,-4.9169,-5.0809,-5.1411,-5.1403,-5.1403,-5.1403,-5.1385,-5.1268,-5.123,-5.0916,-4.9296,-4.9333,-4.9587,-4.7963,-4.7494,-4.7801,-4.9157,-4.8412,-4.7501,-4.8188,-4.8955,-4.9596,-4.9687,-5.0345,-5.0925,-5.0906,-5.0906,-5.0906,-5.0906,-5.0906,-5.0925,-5.0925,-5.0925,-5.1177,-5.1931,-5.2124,-5.2782,-5.4291,-5.4508,-5.4531,-5.4531,-5.4438,-5.4015,-5.3186,-5.2377,-5.1856,-5.1741,-5.1068,-5.0644,-5.0529,-5.0625,-5.0702,-5.0702,-5.0702,-5.0702,-5.0702,-5.0702,-5.0702,0.0,0.0,0.0,0.0,0.0,0.0,0.0,0.0,0.0,0.0,0.0,0.0,0.0,0.0,0.0,0.0,0.0,0.0,0.0,0.0,-4.7881,-4.8603,-4.8759,-4.9091,-4.9872,-4.9599,-4.954,-4.9911,-4.993,-4.9579,-4.874,-4.8701,-4.8135,-4.6905,-4.6866,-4.669,-4.63,-4.63,-4.63,-4.63,-4.63,-4.63,-4.63,-4.63,-4.63,-4.63,-4.63,-4.63,-4.6339,-4.6827,-4.6749,-4.6475,-4.8154,-4.8808,-4.8955,-5.0205,-5.0975,-5.1405,-5.1405,-5.1405,-5.1405,-5.14,-5.107,-5.0526,-4.976,-4.9445,-4.9114,-4.7852,-4.7467,-4.7601,-4.8351,-4.7524,-4.684,-4.8167,-4.8739,-4.9107,-4.9591,-5.0326,-5.0906,-5.0906,-5.0906,-5.0906,-5.0906,-5.1312,-5.1621,-5.1621,-5.2047,-5.2492,-5.2879,-5.3343,-5.3942,-5.4716,-5.5167,-5.5439,-5.5439,-5.5307,-5.4669,-5.3379,-5.2877,-5.2222,-5.1279,-5.0894,-5.0702,-5.0702,-5.0702,-5.0702,-5.0702,-5.0702,-5.0702,-5.0702,-5.0702,-5.0933,0.0,0.0,0.0,0.0,0.0,0.0,0.0,0.0,0.0,0.0,0.0,0.0,0.0,0.0,0.0,0.0,0.0,0.0,0.0,-4.6866,-4.7354,-4.7569,-4.7939,-4.833,-4.8759,-4.8623,-4.8584,-4.8779,-4.8798,-4.8447,-4.7647,-4.7608,-4.7198,-4.6339,-4.63,-4.63,-4.63,-4.63,-4.63,-4.63,-4.63,-4.63,-4.63,-4.63,-4.6303,-4.6309,-4.6303,-4.63,-4.6358,-4.7002,-4.6889,-4.6446,-4.7891,-4.8469,-4.8574,-4.9453,-5.0174,-5.0767,-5.0981,-5.1079,-5.1098,-5.1307,-5.08,-5.0064,-4.9843,-4.9449,-4.8892,-4.8045,-4.7892,-4.8063,-4.8263,-4.7606,-4.7223,-4.8496,-4.8919,-4.9204,-4.9861,-5.048,-5.0906,-5.0906,-5.108,-5.1235,-5.1235,-5.195,-5.2531,-5.2531,-5.3091,-5.3594,-5.3807,-5.439,-5.4892,-5.5086,-5.5613,-5.5962,-5.5962,-5.5846,-5.5227,-5.3995,-5.3665,-5.2972,-5.1722,-5.1452,-5.1337,-5.1337,-5.1337,-5.1125,-5.0702,-5.0914,-5.0991,-5.0991,-5.0991,-5.1452,0.0,0.0,0.0,0.0,0.0,0.0,0.0,0.0,0.0,0.0,0.0,0.0,0.0,0.0,0.0,0.0,0.0,0.0,-4.63,-4.6339,-4.6671,-4.751,-4.6905,-4.7042,-4.8642,-4.8115,-4.7978,-4.874,-4.8798,-4.8447,-4.7647,-4.7608,-4.7198,-4.6339,-4.63,-4.63,-4.63,-4.63,-4.63,-4.63,-4.63,-4.63,-4.63,-4.63,-4.6293,-4.6306,-4.629,-4.63,-4.63,-4.6358,-4.6334,-4.6384,-4.7243,-4.7578,-4.767,-4.855,-4.8889,-4.9059,-4.9879,-5.0172,-5.0279,-5.1057,-5.0758,-4.9947,-4.9127,-4.9317,-4.9663,-4.8865,-4.9138,-4.985,-5.0604,-5.0209,-4.96,-4.9625,-5.0229,-5.079,-5.0828,-5.0867,-5.0906,-5.0906,-5.1563,-5.2124,-5.2124,-5.2859,-5.342,-5.342,-5.3533,-5.3881,-5.4619,-5.4761,-5.5091,-5.5864,-5.5866,-5.5807,-5.5807,-5.5745,-5.5665,-5.5568,-5.4857,-5.4395,-5.4299,-5.351,-5.3068,-5.3068,-5.3068,-5.2299,-5.0702,-5.1471,-5.1856,-5.1856,-5.1856,-5.2299,0.0,0.0,0.0,0.0,0.0,0.0,0.0,0.0,0.0,0.0,0.0,0.0,0.0,0.0,0.0,0.0,0.0,0.0,-4.63,-4.63,-4.6612,-4.751,-4.6827,-4.6768,-4.792,-4.7256,-4.6885,-4.7178,-4.7198,-4.7061,-4.6788,-4.6768,-4.6612,-4.63,-4.63,-4.63,-4.63,-4.63,-4.63,-4.63,-4.63,-4.63,-4.63,-4.6295,-4.6303,-4.6307,-4.6249,-4.623,-4.623,-4.623,-4.623,-4.6268,-4.6541,-4.7003,-4.753,-4.7845,-4.864,-4.9614,-4.9926,-5.0394,-5.092,-5.1211,-5.038,-4.9198,-4.8842,-4.8135,-4.7505,-4.7748,-4.7967,-4.8451,-4.986,-4.9567,-4.904,-4.9571,-5.0306,-5.0906,-5.0906,-5.0906,-5.0906,-5.0906,-5.166,-5.2334,-5.2334,-5.3514,-5.4462,-5.4462,-5.4965,-5.5432,-5.5722,-5.5754,-5.586,-5.6168,-5.6107,-5.6059,-5.6059,-5.5994,-5.5746,-5.5223,-5.4913,-5.4506,-5.3944,-5.3615,-5.346,-5.346,-5.346,-5.3078,-5.2318,-5.2587,-5.2741,-5.2741,-5.2741,-5.3203,-4.6201,0.0,0.0,0.0,0.0,0.0,0.0,0.0,0.0,0.0,0.0,0.0,0.0,0.0,0.0,0.0,0.0,-4.63,-4.63,-4.6554,-4.6944,-4.753,-4.7334,-4.7373,-4.7959,-4.7237,-4.6749,-4.6749,-4.6475,0.0,-4.63,-4.63,-4.63,-4.63,-4.63,-4.63,-4.63,-4.63,-4.63,-4.63,-4.6309,-4.6293,-4.6293,-4.6287,-4.6269,-4.6268,-4.6219,-4.62,-4.6204,-4.6204,-4.62,-4.6195,-4.6195,-4.655,-4.7064,-4.7064,-4.7768,-4.8768,-4.906,-4.9547,-5.0073,-5.033,-4.9659,-4.8755,-4.8691,-4.7845,-4.7086,-4.7917,-4.8089,-4.8366,-4.9799,-4.9698,-4.9397,-4.9977,-5.0519,-5.0906,-5.0906,-5.1138,-5.1351,-5.1351,-5.2372,-5.3243,-5.3243,-5.4459,-5.5442,-5.5442,-5.5957,-5.6337,-5.6293,-5.632,-5.6321,-5.6278,-5.6205,-5.6173,-5.6173,-5.6129,-5.5864,-5.534,-5.5301,-5.5029,-5.4458,-5.4439,-5.4439,-5.4439,-5.4439,-5.4347,-5.4165,-5.3895,-5.3779,-5.3779,-5.3779,-5.4088,0.0,0.0,0.0,0.0,0.0,0.0,0.0,0.0,0.0,0.0,0.0,0.0,0.0,0.0,0.0,0.0,-4.6339,-4.6358,-4.6378,-4.7081,-4.7627,-4.7666,-4.8349,-4.8818,-4.8837,-4.8115,-4.7647,-4.7647,-4.6846,-4.6358,-4.6339,-4.63,-4.63,-4.63,-4.63,-4.63,-4.63,-4.63,-4.63,-4.63,-4.6301,-4.6307,-4.6307,-4.6228,-4.6192,-4.6206,-4.6206,-4.6202,-4.6202,-4.6202,-4.6192,-4.6206,-4.6206,-4.6201,-4.6196,-4.6196,-4.6215,-4.6352,-4.7248,-4.754,-4.7669,-4.8485,-4.8701,-4.8643,-4.861,-4.8534,-4.8658,-4.9556,-4.9766,-4.99,-5.0693,-5.0906,-5.0906,-5.0906,-5.0906,-5.0925,-5.0945,-5.1621,-5.2221,-5.2202,-5.3669,-5.4887,-5.4904,-5.5668,-5.6316,-5.6316,-5.6349,-5.6388,-5.632,-5.6366,-5.6368,-5.6255,-5.6193,-5.6168,-5.6188,-5.6168,-5.6149,-5.6149,-5.6129,-5.611,-5.611,-5.611,-5.611,-5.611,-5.611,-5.611,-5.611,-5.5333,-5.4944,-5.4944,-5.4944,-5.4944,-4.6196,0.0,0.0,0.0,0.0,0.0,0.0,0.0,0.0,0.0,0.0,0.0,0.0,0.0,0.0,-4.7217,-4.7237,-4.7432,-4.8037,-4.7803,-4.8057,-4.9267,-4.9052,-4.9052,-4.9677,-4.8974,-4.8466,0.0,-4.8232,-4.7842,-4.7276,-4.6632,-4.63,-4.63,-4.63,-4.63,-4.63,-4.63,-4.63,-4.63,-4.6301,-4.6307,-4.6307,-4.6239,-4.6195,-4.6206,-4.6195,-4.6209,-4.6201,-4.6201,-4.6195,-4.6203,-4.6203,-4.619,-4.6196,-4.6196,-4.6605,-4.7267,-4.8144,-4.8421,-4.8505,-4.9352,-4.8759,-4.7786,-4.8359,-4.807,-4.787,-4.9325,-4.9702,-4.99,-5.0693,-5.0906,-5.0906,-5.0906,-5.0906,-5.108,-5.1699,-5.2531,-5.2956,-5.2318,-5.3707,-5.4982,-5.4964,-5.5834,-5.6527,-5.6514,-5.6536,-5.6536,-5.6514,-5.6523,-5.6751,-5.731,-5.7343,-5.757,-5.8214,-5.7687,-5.7336,-5.7336,-5.6771,-5.6459,-5.6459,-5.6459,-5.6459,-5.6459,-5.6459,-5.6459,-5.6459,-5.5997,-5.5767,-5.5767,-5.5767,-5.5767,0.0,0.0,0.0,0.0,0.0,0.0,-4.6289,-4.6307,-4.6402,0.0,-4.6846,0.0,0.0,0.0,-4.8057,-4.8564,-4.8642,-4.8681,-4.8798,-4.872,-4.9013,-4.9989,-4.9969,-5.0087,-5.0594,-4.9852,-4.9345,-4.9345,-4.9013,-4.8447,-4.7647,-4.712,-4.6671,-4.63,-4.63,-4.63,-4.63,-4.63,-4.6306,-4.6295,-4.6268,-4.6268,-4.6265,-4.623,-4.6201,-4.6201,-4.619,-4.6196,-4.6196,-4.6196,-4.6196,-4.6196,-4.6196,-4.6196,-4.6196,-4.6196,-4.65,-4.705,-4.7907,-4.8165,-4.8205,-4.869,-4.8619,-4.8359,-4.8432,-4.8366,-4.8526,-4.9838,-5.021,-5.0306,-5.079,-5.0906,-5.0906,-5.0906,-5.0906,-5.1041,-5.1544,-5.2647,-5.3514,-5.3359,-5.4539,-5.5552,-5.5617,-5.6179,-5.6591,-5.661,-5.6606,-5.6606,-5.6606,-5.6606,-5.6782,-5.725,-5.7601,-5.7875,-5.805,-5.7894,-5.766,-5.7328,-5.686,-5.6606,-5.6606,-5.6606,-5.6606,-5.6606,-5.6606,-5.6606,-5.6606,-5.6391,-5.63,-5.63,-5.63,-5.63,0.0,0.0,0.0,0.0,0.0,0.0,-4.6289,-4.6289,-4.6502,-4.7288,-4.7458,0.0,0.0,-4.915,-4.9735,-4.993,-4.9969,-4.9755,-4.9169,-4.9677,-5.0145,-5.0223,-5.0926,-5.1394,-5.1394,-5.0692,-5.0243,-5.0243,-4.9442,-4.8623,-4.792,-4.7705,-4.7237,-4.6475,-4.6358,-4.63,-4.63,-4.63,-4.6293,-4.6307,-4.6229,-4.6195,-4.6206,-4.6203,-4.6196,-4.6196,-4.6196,-4.6196,-4.6196,-4.6196,-4.6196,-4.6196,-4.6196,-4.6196,-4.6189,-4.6305,-4.6283,-4.6376,-4.7329,-4.7563,-4.7431,-4.7469,-4.847,-4.9523,-4.8774,-4.9088,-4.9881,-5.0674,-5.0848,-5.079,-5.0887,-5.0828,-5.079,-5.0887,-5.0925,-5.0964,-5.1041,-5.2411,-5.3878,-5.4765,-5.5697,-5.6358,-5.6469,-5.6544,-5.6606,-5.6606,-5.6606,-5.6606,-5.6606,-5.6606,-5.6626,-5.6723,-5.7367,-5.7543,-5.6938,-5.7445,-5.7484,-5.6782,-5.6645,-5.6606,-5.6606,-5.6606,-5.6606,-5.6606,-5.6606,-5.6606,-5.6606,-5.6606,-5.6606,-5.6606,-5.6606,-5.6606,0.0,0.0,0.0,0.0,0.0,0.0,-4.6218,-4.6225,-4.627,0.0,-4.6523,-4.6597,-4.6754,-4.6937,-4.7471,-4.8837,-4.9052,-4.9481,-5.0711,-5.0438,-5.036,-5.1063,-5.1297,-5.1394,-5.1394,-5.1258,-5.116,-5.116,-5.034,-4.9774,-4.9618,-4.833,-4.753,-4.7354,-4.6671,-4.63,-4.63,-4.63,-4.6293,-4.6307,-4.6229,-4.6195,-4.6206,-4.6203,-4.6196,-4.6196,-4.6196,-4.6196,-4.6196,-4.6196,-4.6196,-4.6196,-4.6196,-4.6181,-4.6208,-4.69,-4.7126,-4.727,-4.8805,-4.8868,-4.838,-4.9065,-4.9005,-4.8774,-4.9281,-4.9571,-4.9881,-5.0674,-5.0442,-5.0074,-5.0732,-5.0422,-5.0113,-5.0751,-5.0983,-5.1235,-5.1892,-5.2933,-5.4037,-5.4964,-5.5865,-5.6446,-5.6421,-5.6527,-5.6606,-5.6606,-5.6606,-5.6606,-5.6606,-5.6606,-5.686,-5.7504,-5.7719,-5.8011,-5.8577,-5.8109,-5.7738,-5.7582,-5.6957,-5.6606,-5.6606,-5.6606,-5.6606,-5.6606,-5.6606,-5.6606,-5.6606,-5.6606,-5.6606,-5.6606,-5.6606,-5.6606,0.0,0.0,0.0,-4.6196,0.0,0.0,0.0,-4.6206,-4.6195,-4.62,-4.6228,-4.6249,-4.6249,0.0,-4.7166,-4.8025,-4.8879,-4.9754,-5.0632,-5.0757,-5.0906,-5.1355,-5.1394,-5.1394,-5.1394,-5.1394,-5.1394,-5.1394,-5.1004,-5.0555,-5.0126,-4.8896,-4.8017,-4.7608,-4.6749,-4.63,-4.63,-4.6293,-4.6285,-4.6249,-4.6219,-4.6195,-4.6195,-4.619,-4.6196,-4.6196,-4.6196,-4.6196,-4.6196,-4.6154,-4.6146,-4.6146,-4.6146,-4.6138,-4.621,-4.7038,-4.7298,-4.7486,-4.92,-4.9491,-4.9165,-4.9611,-4.9698,-4.9649,-4.9687,-4.9977,-5.0384,-5.079,-5.0616,-5.0403,-5.0809,-5.0596,-5.0422,-5.0887,-5.1061,-5.1339,-5.2207,-5.315,-5.411,-5.5022,-5.5919,-5.6534,-5.651,-5.6567,-5.6606,-5.6606,-5.6606,-5.6606,-5.6606,-5.6606,-5.6743,-5.7153,-5.7562,-5.7972,-5.8402,-5.8441,-5.8265,-5.7836,-5.7426,-5.7016,-5.6626,-5.6606,-5.6606,-5.6606,-5.6606,-5.6606,-5.6606,-5.6606,-5.6606,-5.6606,-5.6606,-5.6606,0.0,0.0,0.0,0.0,0.0,-4.6209,0.0,0.0,0.0,0.0,0.0,0.0,0.0,0.0,0.0,0.0,0.0,0.0,0.0,-5.0598,0.0,-5.1375,-5.1394,-5.1394,-5.1394,-5.1394,-5.1394,-5.1394,-5.1394,-5.1082,-5.0399,-4.9364,-4.8505,-4.7842,-4.6846,-4.63,-4.63,-4.6301,-4.6269,-4.6204,-4.6202,-4.6206,-4.6196,-4.6189,-4.6189,-4.6189,-4.6181,-4.6154,-4.6154,-4.6102,-4.6084,-4.6084,-4.6084,-4.6075,-4.6163,-4.6987,-4.7338,-4.7663,-4.9232,-4.9848,-4.9939,-4.9939,-5.0384,-5.0751,-4.9939,-5.0268,-5.0906,-5.0906,-5.079,-5.0712,-5.0867,-5.079,-5.077,-5.1041,-5.1254,-5.1596,-5.2368,-5.3397,-5.4375,-5.5083,-5.5978,-5.6591,-5.6607,-5.6598,-5.6606,-5.6606,-5.6606,-5.6606,-5.6606,-5.6606,-5.6606,-5.6606,-5.7172,-5.7562,-5.7562,-5.8363,-5.848,-5.7621,-5.7719,-5.7445,-5.6626,-5.6606,-5.6606,-5.6606,-5.6606,-5.6606,-5.6606,-5.6606,-5.6606,-5.6606,-5.6606,-5.6606,0.0,0.0,0.0,0.0,-4.6196,0.0,0.0,0.0,-4.6209,-4.6196,0.0,0.0,0.0,0.0,0.0,0.0,0.0,0.0,-4.8942,-4.9704,-5.0527,-5.1304,-5.1394,-5.1394,-5.1394,-5.1394,-5.1394,-5.1394,-5.1394,-5.1355,-5.1258,-4.9696,-4.8759,-4.8662,-4.7139,-4.63,-4.63,-4.6301,-4.6269,-4.6204,-4.6202,-4.6206,-4.6196,-4.6138,-4.6102,-4.6102,-4.6056,-4.6017,-4.6017,-4.6007,-4.6007,-4.6007,-4.6007,-4.5975,-4.6026,-4.6887,-4.7649,-4.8406,-4.9374,-5.0171,-5.077,-5.077,-5.0828,-5.0751,-4.9939,-5.0268,-5.0906,-5.0906,-5.0403,-4.9997,-5.0712,-5.0403,-5.0128,-5.0906,-5.1792,-5.2468,-5.2571,-5.3927,-5.5176,-5.5265,-5.5996,-5.6606,-5.661,-5.6606,-5.6606,-5.6606,-5.6606,-5.6606,-5.6606,-5.6606,-5.6606,-5.6606,-5.6684,-5.6743,-5.6743,-5.7484,-5.7601,-5.6782,-5.7406,-5.7445,-5.6626,-5.6606,-5.6606,-5.6606,-5.6606,-5.6606,-5.6606,-5.6606,-5.6606,-5.6606,-5.6606,-5.6606,0.0,0.0,0.0,0.0,0.0,0.0,-4.6196,0.0,-4.6196,0.0,0.0,0.0,0.0,0.0,0.0,0.0,-4.7483,0.0,0.0,0.0,-4.9471,0.0,0.0,0.0,-5.1359,-5.1396,-5.1391,-5.1394,-5.1408,-5.1391,-5.1394,-5.0223,-4.9325,-4.8818,-4.7623,-4.6768,-4.63,-4.6225,-4.6163,-4.6147,-4.6105,-4.6072,-4.6084,-4.6047,-4.6037,-4.6037,-4.6007,-4.5997,-4.5997,-4.5964,-4.5953,-4.5941,-4.5905,-4.5886,-4.6002,-4.6836,-4.7685,-4.8527,-4.9397,-5.0229,-5.0906,-5.0906,-5.0906,-5.0848,-5.05,-5.0635,-5.0906,-5.0906,-5.0674,-5.05,-5.0906,-5.079,-5.0681,-5.1114,-5.1916,-5.2744,-5.3293,-5.4406,-5.545,-5.5962,-5.6352,-5.6606,-5.6606,-5.6606,-5.6606,-5.6606,-5.6606,-5.6606,-5.6606,-5.6606,-5.6606,-5.6606,-5.6606,-5.6782,-5.725,-5.807,-5.8402,-5.807,-5.8363,-5.8187,-5.7328,-5.7309,-5.7074,-5.6606,-5.6606,-5.6606,-5.6606,-5.6606,-5.6606,-5.6606,-5.6606,-5.6606,-4.6196,0.0,0.0,0.0,0.0,0.0,0.0,0.0,0.0,0.0,0.0,0.0,0.0,0.0,0.0,0.0,0.0,-4.7772,0.0,-4.8029,0.0,0.0,0.0,0.0,0.0,-5.1035,-5.0935,-5.0708,-5.0913,-5.1032,-5.1025,-5.0426,-4.9801,-4.9151,-4.8098,-4.7245,-4.6639,-4.6303,-4.6105,-4.6073,-4.6017,-4.5997,-4.5997,-4.5986,-4.5975,-4.5975,-4.5964,-4.5953,-4.5953,-4.5886,-4.5861,-4.588,-4.5827,-4.5841,-4.5977,-4.6814,-4.7657,-4.8527,-4.9397,-5.0229,-5.0867,-5.0654,-5.0732,-5.0867,-5.0654,-5.0732,-5.0906,-5.0906,-5.0906,-5.0945,-5.108,-5.1116,-5.1212,-5.1579,-5.2329,-5.3233,-5.4154,-5.5033,-5.5845,-5.6489,-5.6606,-5.6606,-5.6606,-5.6606,-5.6606,-5.6606,-5.6606,-5.6684,-5.6899,-5.6938,-5.6938,-5.6938,-5.6938,-5.7172,-5.7758,-5.8597,-5.9202,-5.9436,-5.9222,-5.8812,-5.8187,-5.8168,-5.7875,-5.7309,-5.7289,-5.7172,-5.6938,-5.6938,-5.6821,-5.6606,-5.6606,-5.6606,0.0,0.0,0.0,-4.7248,0.0,0.0,0.0,0.0,-4.7462,0.0,0.0,0.0,0.0,0.0,0.0,0.0,0.0,0.0,0.0,0.0,0.0,0.0,0.0,0.0,0.0,-5.0105,-4.9782,-4.8945,-4.9668,-5.0117,-5.0047,-5.0072,-5.0051,-4.9968,-4.8414,-4.7558,-4.7468,-4.6624,-4.6131,-4.599,-4.5998,-4.5997,-4.5997,-4.5922,-4.5898,-4.5905,-4.5822,-4.5814,-4.5814,-4.5814,-4.5814,-4.5814,-4.58,-4.58,-4.591,-4.6767,-4.7657,-4.8527,-4.9397,-5.0229,-5.077,-4.9997,-5.0268,-5.0751,-4.9977,-5.0287,-5.0906,-5.0906,-5.0906,-5.0945,-5.108,-5.1147,-5.1432,-5.2339,-5.3279,-5.4181,-5.5064,-5.5942,-5.6567,-5.6586,-5.6606,-5.6606,-5.6606,-5.6606,-5.6606,-5.6606,-5.6606,-5.6879,-5.766,-5.7758,-5.7758,-5.7758,-5.7758,-5.7777,-5.7797,-5.8597,-5.9456,-6.0315,-5.9573,-5.9085,-5.9065,-5.9065,-5.9046,-5.9026,-5.9026,-5.8597,-5.7758,-5.7758,-5.7367,-5.6606,-5.6606,-5.6606,0.0,0.0,-4.641,-4.7287,0.0,0.0,0.0,0.0,0.0,0.0,0.0,0.0,0.0,0.0,0.0,0.0,0.0,0.0,0.0,0.0,0.0,0.0,0.0,0.0,0.0,0.0,-4.9616,-4.8797,-4.9,-4.943,-4.9968,-5.0028,-5.002,-4.9993,-4.9439,-4.8571,-4.7377,-4.7028,-4.6551,-4.5928,-4.5898,-4.588,-4.588,-4.5835,-4.5822,-4.5822,-4.5814,-4.58,-4.58,-4.58,-4.58,-4.58,-4.58,-4.58,-4.5838,-4.6129,-4.6786,-4.7753,-4.9204,-5.0229,-5.0867,-5.0577,-5.0693,-5.0848,-5.0577,-5.0693,-5.089,-5.0913,-5.0897,-5.0929,-5.1062,-5.1133,-5.1401,-5.2422,-5.3347,-5.4244,-5.5103,-5.5981,-5.6606,-5.6606,-5.6606,-5.6762,-5.7309,-5.7387,-5.7387,-5.7387,-5.7894,-5.8343,-5.8636,-5.8656,-5.8656,-5.8656,-5.8656,-5.8656,-5.8656,-5.9456,-6.0334,-6.1213,-6.0978,-6.0568,-5.9983,-5.9963,-5.969,-5.9104,-5.9104,-5.8948,-5.8656,-5.8656,-5.8519,-5.8246,-5.766,-5.7113,-4.6196,-4.6196,0.0,-4.7676,-4.7735,0.0,-4.8962,0.0,-4.9235,0.0,0.0,0.0,0.0,0.0,0.0,0.0,0.0,0.0,0.0,-4.6471,-4.7105,-4.7915,-4.8366,0.0,0.0,-4.9195,-4.8655,-4.7801,-4.8047,-4.8604,0.0,-4.9784,-5.0099,-5.0388,-5.0062,-4.9204,-4.7747,-4.7372,-4.6758,-4.5848,-4.5827,-4.58,-4.58,-4.58,-4.58,-4.58,-4.58,-4.58,-4.58,-4.58,-4.58,-4.58,-4.58,-4.58,-4.5838,-4.6148,-4.6999,-4.8198,-4.932,-5.0229,-5.0906,-5.0906,-5.089,-5.0893,-5.0893,-5.0893,-5.0951,-5.1293,-5.1157,-5.1033,-5.1503,-5.1629,-5.1895,-5.2928,-5.3834,-5.4693,-5.5571,-5.6196,-5.6606,-5.6606,-5.6606,-5.686,-5.766,-5.805,-5.8168,-5.7855,-5.8538,-5.9104,-5.9104,-5.9378,-5.9553,-5.9553,-5.9553,-5.9553,-5.9553,-6.0354,-6.1095,-6.1661,-6.1701,-6.1447,-6.0881,-6.0861,-6.0744,-6.049,-6.0178,-6.0022,-6.0022,-5.971,-5.9397,-5.9085,-5.8831,-5.8109]}]]